[[{"header":{"parameterUnit":"m.s-1","parameterCategory":1,"la1":30.6,"la2":29.2853,"lo1":-89.7004,"lo2":-87.6739,"dy":0.0162,"dx":0.0183,"nx":112,"ny":82,"refTime":"2026-03-25T00:00:00:Z","depth":0,"parameterNumber":2,"parameterNumberName":"U-component_of_WINDS"},"data":[0.0,0.0,0.0,0.0,0.0,0.0,0.0,0.0,0.0,0.0,0.0,0.0,0.0,0.0,0.0,0.0,0.0,0.0,0.0,0.0,0.0,0.0,0.0,0.0,0.0,0.0,0.0,0.0,0.0,0.0,0.0,0.0,0.0,0.0,0.0,0.0,0.0,0.0,0.0,0.0,0.0,0.0,0.0,0.0,0.0,0.0,0.0,0.0,0.0,0.0,0.0,0.0,0.0,0.0,0.0,0.0,0.0,0.0,0.0,0.0,0.0,0.0,0.0,0.0,0.0,0.0,0.0,0.0,0.0,0.0,0.0,0.0,0.0,0.0,0.0,0.0,0.0,0.0,0.0,0.0,0.0,0.0,0.0,0.0,0.0,0.0,0.0,0.0,0.0,0.0,-2.7676,-2.994,-3.3547,-3.5747,-3.5602,-3.4803,-3.2539,-2.8362,0.0,0.0,0.0,0.0,0.0,0.0,0.0,0.0,0.0,0.0,0.0,0.0,0.0,0.0,0.0,0.0,0.0,0.0,0.0,0.0,0.0,0.0,0.0,0.0,0.0,0.0,0.0,0.0,0.0,0.0,0.0,0.0,0.0,0.0,0.0,0.0,0.0,0.0,0.0,0.0,0.0,0.0,0.0,0.0,0.0,0.0,0.0,0.0,0.0,0.0,0.0,0.0,0.0,0.0,0.0,0.0,0.0,0.0,0.0,0.0,0.0,0.0,0.0,0.0,0.0,0.0,0.0,0.0,0.0,0.0,0.0,0.0,0.0,0.0,0.0,0.0,0.0,0.0,0.0,0.0,0.0,0.0,0.0,0.0,0.0,0.0,0.0,0.0,0.0,0.0,0.0,0.0,0.0,0.0,0.0,0.0,0.0,0.0,0.0,0.0,0.0,0.0,0.0,0.0,-2.7675,-3.2339,-3.4074,-3.4595,-3.3866,-3.3007,-3.0978,-2.7426,0.0,0.0,0.0,0.0,0.0,0.0,0.0,0.0,0.0,0.0,0.0,0.0,0.0,0.0,0.0,0.0,0.0,0.0,0.0,0.0,0.0,0.0,0.0,0.0,0.0,0.0,0.0,0.0,0.0,0.0,0.0,0.0,0.0,0.0,0.0,0.0,0.0,0.0,0.0,0.0,0.0,0.0,0.0,0.0,0.0,0.0,0.0,0.0,0.0,0.0,0.0,0.0,0.0,0.0,0.0,0.0,0.0,0.0,0.0,0.0,0.0,0.0,0.0,0.0,0.0,0.0,0.0,0.0,0.0,0.0,0.0,0.0,0.0,0.0,0.0,0.0,0.0,0.0,0.0,0.0,0.0,0.0,0.0,0.0,0.0,0.0,0.0,0.0,0.0,0.0,0.0,0.0,0.0,0.0,0.0,0.0,0.0,0.0,0.0,0.0,0.0,0.0,0.0,-2.6133,-2.873,-3.2947,-3.3764,-3.4033,-3.4106,-3.2443,-3.0138,-2.7191,-2.486,0.0,0.0,0.0,0.0,0.0,0.0,0.0,0.0,0.0,0.0,0.0,0.0,0.0,0.0,0.0,0.0,0.0,0.0,0.0,0.0,0.0,0.0,0.0,0.0,0.0,0.0,0.0,0.0,0.0,0.0,0.0,0.0,0.0,0.0,0.0,0.0,0.0,0.0,0.0,0.0,0.0,0.0,0.0,0.0,0.0,0.0,0.0,0.0,0.0,0.0,0.0,0.0,0.0,0.0,0.0,0.0,0.0,0.0,0.0,0.0,0.0,0.0,0.0,0.0,0.0,0.0,0.0,0.0,0.0,0.0,0.0,0.0,0.0,0.0,0.0,0.0,0.0,0.0,0.0,0.0,0.0,0.0,0.0,0.0,0.0,0.0,0.0,0.0,0.0,0.0,0.0,0.0,0.0,0.0,0.0,0.0,0.0,0.0,0.0,0.0,0.0,0.0,-2.8164,-2.9531,-3.2753,-3.3083,-3.3295,-3.3761,-3.1783,-2.9418,-2.6861,-2.3483,0.0,0.0,0.0,0.0,0.0,0.0,0.0,0.0,0.0,0.0,0.0,0.0,0.0,0.0,0.0,0.0,0.0,0.0,0.0,0.0,0.0,0.0,0.0,0.0,0.0,0.0,0.0,0.0,0.0,0.0,0.0,0.0,0.0,0.0,0.0,0.0,0.0,0.0,0.0,0.0,0.0,0.0,0.0,0.0,0.0,0.0,0.0,0.0,0.0,0.0,0.0,0.0,0.0,0.0,0.0,0.0,0.0,0.0,0.0,0.0,0.0,0.0,0.0,0.0,0.0,0.0,0.0,0.0,0.0,0.0,0.0,0.0,0.0,0.0,0.0,0.0,0.0,0.0,0.0,0.0,0.0,0.0,0.0,0.0,0.0,0.0,0.0,0.0,0.0,0.0,0.0,0.0,0.0,0.0,0.0,0.0,0.0,0.0,0.0,0.0,0.0,0.0,-2.7793,-2.9297,-3.1913,-3.2186,-3.1912,-3.1226,-3.0265,-2.8564,-2.5969,-2.2588,0.0,0.0,0.0,0.0,0.0,0.0,0.0,0.0,0.0,0.0,0.0,0.0,0.0,0.0,0.0,0.0,0.0,0.0,0.0,0.0,0.0,0.0,0.0,0.0,0.0,0.0,0.0,0.0,0.0,0.0,0.0,0.0,0.0,0.0,0.0,0.0,0.0,0.0,0.0,0.0,0.0,0.0,0.0,0.0,0.0,0.0,0.0,0.0,0.0,0.0,0.0,0.0,0.0,0.0,0.0,0.0,0.0,0.0,0.0,0.0,0.0,0.0,0.0,0.0,0.0,0.0,0.0,0.0,0.0,0.0,0.0,0.0,0.0,0.0,0.0,0.0,0.0,0.0,0.0,0.0,0.0,0.0,0.0,0.0,0.0,0.0,0.0,0.0,0.0,0.0,0.0,0.0,0.0,0.0,0.0,0.0,0.0,0.0,0.0,0.0,0.0,0.0,-2.6953,-2.8691,-3.1836,-3.1679,-3.1229,-3.0935,-2.9605,-2.767,-2.5054,0.0,0.0,0.0,0.0,0.0,0.0,0.0,0.0,0.0,0.0,0.0,0.0,0.0,0.0,0.0,0.0,0.0,0.0,0.0,0.0,0.0,0.0,0.0,0.0,0.0,0.0,0.0,0.0,0.0,0.0,0.0,0.0,0.0,0.0,0.0,0.0,0.0,0.0,0.0,0.0,0.0,0.0,0.0,0.0,0.0,0.0,0.0,0.0,0.0,0.0,0.0,0.0,0.0,0.0,0.0,0.0,0.0,0.0,0.0,0.0,0.0,0.0,0.0,0.0,0.0,0.0,0.0,0.0,0.0,0.0,0.0,0.0,0.0,0.0,0.0,0.0,0.0,0.0,0.0,0.0,0.0,0.0,0.0,0.0,0.0,0.0,0.0,0.0,0.0,0.0,0.0,0.0,0.0,0.0,0.0,0.0,0.0,0.0,0.0,0.0,0.0,0.0,-2.4805,-2.6523,-2.8437,-3.1094,-3.0839,-3.0488,-3.0488,-2.8377,-2.6189,-2.4119,0.0,0.0,0.0,0.0,0.0,0.0,0.0,0.0,0.0,0.0,0.0,0.0,0.0,0.0,0.0,0.0,0.0,0.0,0.0,0.0,0.0,0.0,0.0,0.0,0.0,0.0,0.0,0.0,0.0,0.0,0.0,0.0,0.0,0.0,0.0,0.0,0.0,0.0,0.0,0.0,0.0,0.0,0.0,0.0,0.0,0.0,0.0,0.0,0.0,0.0,0.0,0.0,0.0,0.0,0.0,0.0,0.0,0.0,0.0,0.0,0.0,0.0,0.0,0.0,0.0,0.0,0.0,0.0,0.0,0.0,0.0,0.0,0.0,0.0,0.0,0.0,0.0,0.0,0.0,0.0,0.0,0.0,0.0,0.0,0.0,0.0,0.0,0.0,0.0,0.0,0.0,0.0,0.0,0.0,0.0,0.0,0.0,0.0,0.0,0.0,0.0,0.0,-2.4062,-2.668,-2.8633,-2.9512,-2.9609,-2.9609,-2.959,-2.6406,-2.4022,0.0,0.0,0.0,0.0,0.0,0.0,0.0,0.0,0.0,0.0,0.0,0.0,0.0,0.0,0.0,0.0,0.0,0.0,0.0,0.0,0.0,0.0,0.0,0.0,0.0,0.0,0.0,0.0,0.0,0.0,0.0,0.0,0.0,0.0,0.0,0.0,0.0,0.0,0.0,0.0,0.0,0.0,0.0,0.0,0.0,0.0,0.0,0.0,0.0,0.0,0.0,0.0,0.0,0.0,0.0,0.0,0.0,0.0,0.0,0.0,0.0,0.0,0.0,0.0,0.0,0.0,0.0,0.0,0.0,0.0,0.0,0.0,0.0,0.0,0.0,0.0,0.0,0.0,0.0,0.0,0.0,0.0,0.0,0.0,0.0,0.0,0.0,0.0,0.0,0.0,0.0,0.0,0.0,0.0,0.0,0.0,0.0,0.0,0.0,0.0,0.0,0.0,0.0,-2.4062,-2.668,-2.8633,-2.9512,-2.9609,-2.9355,-2.873,-2.6601,-2.4433,-2.2383,0.0,0.0,0.0,0.0,0.0,0.0,0.0,0.0,0.0,0.0,0.0,0.0,0.0,0.0,0.0,0.0,0.0,0.0,0.0,0.0,0.0,0.0,0.0,0.0,0.0,0.0,0.0,0.0,0.0,0.0,0.0,0.0,0.0,0.0,0.0,0.0,0.0,0.0,0.0,0.0,0.0,0.0,0.0,0.0,0.0,0.0,0.0,0.0,0.0,0.0,0.0,0.0,0.0,0.0,0.0,0.0,0.0,0.0,0.0,0.0,0.0,0.0,0.0,0.0,0.0,0.0,0.0,0.0,0.0,0.0,0.0,0.0,0.0,0.0,0.0,0.0,0.0,0.0,0.0,0.0,0.0,0.0,0.0,0.0,0.0,0.0,0.0,0.0,0.0,0.0,0.0,0.0,0.0,0.0,0.0,0.0,0.0,0.0,0.0,0.0,0.0,0.0,-2.3125,-2.5664,-2.7598,-2.8476,-2.8555,-2.8359,-2.7832,-2.5859,-2.3711,-2.1523,0.0,0.0,0.0,0.0,0.0,0.0,0.0,0.0,0.0,0.0,0.0,0.0,0.0,0.0,0.0,0.0,0.0,0.0,0.0,0.0,0.0,0.0,0.0,0.0,0.0,0.0,0.0,0.0,0.0,0.0,0.0,0.0,0.0,0.0,0.0,0.0,0.0,0.0,0.0,0.0,0.0,0.0,0.0,0.0,0.0,0.0,0.0,0.0,0.0,0.0,0.0,0.0,0.0,0.0,0.0,0.0,0.0,0.0,0.0,0.0,0.0,0.0,0.0,0.0,0.0,0.0,0.0,0.0,0.0,0.0,0.0,0.0,0.0,0.0,0.0,0.0,0.0,0.0,0.0,0.0,0.0,0.0,0.0,0.0,0.0,0.0,0.0,0.0,0.0,0.0,0.0,0.0,0.0,0.0,0.0,0.0,0.0,0.0,0.0,0.0,0.0,0.0,-2.1699,-2.4199,-2.6113,-2.6914,-2.6992,-2.6992,-2.6992,-2.4609,-2.2422,-2.082,0.0,0.0,0.0,0.0,0.0,0.0,0.0,0.0,0.0,0.0,0.0,0.0,0.0,0.0,0.0,0.0,0.0,0.0,0.0,0.0,0.0,0.0,0.0,0.0,0.0,0.0,0.0,0.0,0.0,0.0,0.0,0.0,0.0,0.0,0.0,0.0,0.0,0.0,0.0,0.0,0.0,0.0,0.0,0.0,0.0,0.0,0.0,0.0,0.0,0.0,0.0,0.0,0.0,0.0,0.0,0.0,0.0,0.0,0.0,0.0,-2.4894,-2.349,0.0,0.0,0.0,0.0,0.0,0.0,0.0,0.0,0.0,0.0,0.0,0.0,0.0,0.0,0.0,0.0,0.0,0.0,0.0,0.0,0.0,0.0,0.0,0.0,0.0,0.0,0.0,0.0,0.0,0.0,0.0,0.0,0.0,0.0,0.0,0.0,0.0,0.0,0.0,0.0,-2.1758,-2.4727,-2.6797,-2.6973,-2.6992,-2.6992,-2.6992,-2.4609,-2.2676,-2.1699,-1.8535,0.0,0.0,0.0,0.0,0.0,0.0,0.0,0.0,0.0,0.0,0.0,0.0,0.0,0.0,0.0,0.0,0.0,0.0,0.0,0.0,0.0,0.0,0.0,0.0,0.0,0.0,0.0,0.0,0.0,0.0,0.0,0.0,0.0,0.0,0.0,0.0,0.0,0.0,0.0,0.0,0.0,0.0,0.0,0.0,0.0,0.0,0.0,0.0,0.0,0.0,0.0,0.0,0.0,0.0,0.0,0.0,0.0,0.0,0.0,-2.7761,-2.6145,0.0,0.0,0.0,0.0,0.0,0.0,0.0,0.0,0.0,0.0,0.0,0.0,0.0,0.0,0.0,0.0,0.0,0.0,0.0,0.0,0.0,0.0,0.0,0.0,0.0,0.0,0.0,0.0,0.0,0.0,0.0,0.0,0.0,0.0,0.0,0.0,0.0,0.0,0.0,0.0,-2.168,-2.4141,-2.5918,-2.6328,-2.6387,-2.6387,-2.6387,-2.4746,-2.3203,-2.1973,-1.9805,0.0,0.0,0.0,0.0,0.0,0.0,0.0,0.0,0.0,0.0,0.0,0.0,0.0,0.0,0.0,0.0,0.0,0.0,0.0,0.0,0.0,0.0,0.0,0.0,0.0,0.0,0.0,0.0,0.0,0.0,0.0,0.0,0.0,0.0,0.0,0.0,0.0,0.0,0.0,0.0,0.0,0.0,0.0,0.0,0.0,0.0,0.0,0.0,0.0,0.0,0.0,0.0,0.0,-3.2205,-3.3089,-3.3795,-3.4525,-3.4859,-3.4654,-3.1148,-2.9692,-2.9569,-2.7014,0.0,0.0,0.0,0.0,0.0,0.0,0.0,0.0,0.0,0.0,0.0,0.0,0.0,0.0,0.0,0.0,0.0,0.0,0.0,0.0,0.0,0.0,-2.4216,-2.5462,-2.5803,-2.4841,-2.1196,0.0,0.0,0.0,0.0,0.0,0.0,0.0,0.0,0.0,0.0,0.0,-2.1602,-2.3496,-2.4902,-2.5625,-2.5703,-2.5703,-2.5703,-2.4902,-2.3809,-2.2422,-2.123,-1.9316,0.0,0.0,0.0,0.0,0.0,0.0,0.0,0.0,0.0,0.0,0.0,0.0,0.0,0.0,0.0,0.0,0.0,0.0,0.0,0.0,0.0,0.0,0.0,0.0,0.0,0.0,0.0,0.0,0.0,0.0,0.0,0.0,-2.4782,-2.5782,0.0,0.0,0.0,0.0,0.0,0.0,0.0,0.0,0.0,0.0,0.0,0.0,0.0,-3.0402,-3.1866,-3.349,-3.4412,-3.4649,-3.6297,-3.7118,-3.7241,-3.7356,-3.7417,-3.7383,-3.6826,0.0,-3.2199,-2.965,0.0,0.0,0.0,0.0,0.0,0.0,0.0,0.0,0.0,0.0,0.0,0.0,0.0,0.0,0.0,0.0,0.0,0.0,0.0,0.0,0.0,0.0,-2.8145,-2.7659,-2.7554,-2.7218,-2.59,-2.2782,-1.9941,-1.8964,-1.8217,-1.7422,0.0,0.0,0.0,0.0,0.0,0.0,-2.1758,-2.4023,-2.5566,-2.5684,-2.5703,-2.5703,-2.5703,-2.4902,-2.4316,-2.4082,-2.1894,-2.039,-1.9922,-1.7128,0.0,0.0,0.0,0.0,0.0,0.0,0.0,0.0,0.0,0.0,0.0,0.0,0.0,0.0,0.0,0.0,0.0,0.0,0.0,0.0,0.0,0.0,0.0,0.0,0.0,0.0,0.0,0.0,0.0,-2.4662,-2.6572,-2.6842,-2.672,-2.6249,0.0,0.0,0.0,0.0,0.0,0.0,0.0,0.0,0.0,-3.2275,-3.2764,-3.3605,-3.4819,-3.6048,-3.6914,-3.7444,-3.8208,-3.8837,-3.9314,-3.9314,-3.9303,-3.9282,-3.8791,-3.7744,-3.6154,-3.3186,-3.0917,-2.9135,0.0,0.0,0.0,0.0,-2.6928,-2.651,-2.8396,-2.8659,-2.7962,-2.6736,0.0,0.0,0.0,0.0,0.0,0.0,0.0,-2.4966,-2.639,-2.7582,-2.8569,-2.9159,-2.9313,-2.9063,-2.8198,-2.6569,-2.4617,-2.2352,-2.1626,-2.0514,-1.7796,-1.7768,0.0,0.0,0.0,-2.1816,-2.3125,-2.4707,-2.5703,-2.5703,-2.5703,-2.5703,-2.5703,-2.5352,-2.4922,-2.4433,-2.289,-2.1581,-2.0643,-1.867,-1.7127,0.0,0.0,0.0,0.0,0.0,0.0,0.0,0.0,0.0,0.0,0.0,0.0,0.0,0.0,0.0,0.0,0.0,0.0,0.0,0.0,0.0,0.0,0.0,0.0,0.0,0.0,0.0,0.0,-2.6269,-2.8163,-2.8055,-2.8796,-2.8714,0.0,0.0,0.0,0.0,0.0,0.0,-3.1389,-3.2306,-3.3547,-3.5229,-3.5859,-3.6596,-3.7455,-3.8075,-3.8723,-3.9418,-3.9418,-3.9752,-4.0372,-4.0372,-4.0381,-4.0332,-3.9689,-3.9295,-3.8862,-3.5751,-3.3352,-3.1488,-2.9817,-2.8766,-2.8354,-2.961,-2.9692,-2.9544,-3.2025,-3.2083,-3.0904,-3.0044,-2.8486,-2.6697,-2.5452,0.0,0.0,0.0,0.0,-2.5875,-2.7986,-2.8544,-2.8852,-3.0096,-3.0404,-3.0212,-2.9563,-2.9429,-2.8503,-2.5344,-2.4752,-2.3573,-1.9823,-1.9726,0.0,-1.9368,-2.1132,-2.3144,-2.4843,-2.5625,-2.6035,-2.6035,-2.582,-2.5703,-2.5703,-2.5703,-2.5332,-2.4452,-2.3573,-2.2458,-2.0992,-1.9878,-1.859,-1.7068,0.0,0.0,0.0,0.0,0.0,0.0,0.0,0.0,0.0,0.0,0.0,0.0,0.0,0.0,0.0,0.0,0.0,0.0,0.0,0.0,0.0,0.0,0.0,0.0,0.0,0.0,0.0,0.0,0.0,-2.975,-3.2095,0.0,0.0,0.0,0.0,-3.0128,-3.2294,-3.4044,-3.4904,-3.5774,-3.7016,-3.8706,-3.8801,-3.924,-4.0091,-4.0148,-4.0186,-4.0234,-4.0234,-4.0253,-4.031,-4.031,-4.03,-4.0288,-4.025,-3.9816,-3.8901,-3.6312,-3.517,-3.4886,-3.3202,-3.2567,-3.2589,-3.2685,-3.2673,-3.266,-3.2833,-3.2833,-3.2641,-3.1833,-2.9871,-2.7818,-2.7741,-2.7101,0.0,0.0,-2.8261,-2.9069,-3.0019,-3.0269,-3.0308,-3.0385,-3.0404,-3.0385,-3.0346,-3.0327,-2.9577,-2.6991,-2.653,-2.5734,-2.3106,0.0,-2.2806,-2.2753,-2.3621,-2.49,-2.6656,-2.6912,-2.6932,-2.6932,-2.6191,-2.5703,-2.5703,-2.5703,-2.5331,-2.4452,-2.359,-2.2728,-2.1871,-2.0209,-1.8862,-1.7947,-1.6228,0.0,0.0,0.0,0.0,0.0,0.0,0.0,0.0,0.0,0.0,0.0,0.0,0.0,0.0,0.0,0.0,0.0,0.0,0.0,0.0,0.0,0.0,0.0,0.0,0.0,0.0,0.0,0.0,-3.352,-3.5742,0.0,-3.4017,-3.4609,-3.4896,-3.4304,-3.5095,-3.6203,-3.7578,-3.7941,-3.8639,-3.9804,-3.9843,-3.9995,-4.0301,-4.0301,-4.0301,-4.0301,-4.0301,-4.0301,-4.0301,-4.0301,-4.0291,-4.0291,-4.0291,-4.0128,-3.9764,-3.8293,-3.7072,-3.6025,-3.4852,-3.41,-3.3669,-3.3669,-3.3677,-3.3743,-3.4312,-3.4179,-3.3506,-3.2141,-3.1083,-3.0237,-2.9679,-2.9288,-2.9115,-2.9423,-2.9717,-3.0,-3.0327,-3.0404,-3.0404,-3.0404,-3.0404,-3.0404,-3.0404,-3.0404,-3.0135,-2.9212,-2.8604,-2.7639,-2.567,-2.5835,-2.5879,-2.4822,-2.5903,-2.7092,-2.7748,-2.736,-2.7008,-2.7008,-2.6229,-2.5702,-2.5702,-2.5193,-2.4724,-2.4429,-2.31,-2.2199,-2.1905,-2.0224,-1.8897,-1.8021,-1.6284,-1.4839,0.0,0.0,0.0,0.0,0.0,0.0,0.0,0.0,0.0,0.0,0.0,0.0,0.0,0.0,0.0,0.0,0.0,0.0,0.0,0.0,0.0,0.0,0.0,0.0,0.0,-3.2008,-3.4808,-3.6545,-3.8184,-3.8536,-3.6928,-3.7299,-3.7528,-3.7242,-3.7553,-3.8276,-3.9374,-3.9451,-3.9662,-4.0147,-4.0253,-4.0253,-4.0166,-4.0253,-4.0301,-4.0301,-4.0301,-4.0301,-4.0301,-4.0301,-4.0301,-4.0301,-4.0301,-4.0301,-4.0263,-3.968,-3.8645,-3.7319,-3.6457,-3.5622,-3.4917,-3.4917,-3.4748,-3.4585,-3.518,-3.4829,-3.3973,-3.2878,-3.2327,-3.2007,-3.143,-3.1052,-3.0846,-3.0846,-3.0635,-3.0404,-3.0404,-3.0404,-3.0404,-3.0404,-3.0404,-3.0404,-3.0404,-3.0404,-3.0404,-3.0404,-2.9929,-2.9113,-2.7749,-2.8014,-2.8067,-2.705,-2.7885,-2.8753,-2.9091,-2.8157,-2.7435,-2.7435,-2.6402,-2.57,-2.57,-2.4898,-2.4409,-2.4407,-2.2824,-2.1904,-2.19,-2.0221,-1.8895,-1.8017,-1.6281,-1.5267,-1.4973,0.0,0.0,0.0,0.0,0.0,0.0,0.0,0.0,0.0,0.0,0.0,0.0,0.0,0.0,0.0,0.0,0.0,0.0,0.0,0.0,0.0,0.0,0.0,-3.1686,-3.3956,-3.6279,-3.8607,-3.9328,-3.9091,-3.7623,-3.902,-3.9656,-3.8782,-3.9737,-4.0368,-4.0358,-4.0368,-4.0243,-3.9989,-4.0243,-4.0253,-3.9989,-4.0253,-4.0377,-4.0377,-4.0377,-4.0358,-4.0339,-4.0339,-4.032,-4.0301,-4.0301,-4.0301,-4.0301,-4.0301,-3.9804,-3.8954,-3.8075,-3.725,-3.6537,-3.6537,-3.6024,-3.5327,-3.5308,-3.4798,-3.4134,-3.4115,-3.358,-3.2935,-3.2916,-3.234,-3.1731,-3.1692,-3.1096,-3.0423,-3.0404,-3.0404,-3.0404,-3.0404,-3.0404,-3.0404,-3.0404,-3.0404,-3.0404,-3.0404,-3.0404,-3.0135,-2.93,-2.9183,-2.9283,-2.9401,-2.9491,0.0,-3.0659,-2.932,-2.8308,-2.8308,-2.6732,-2.5719,-2.5739,-2.4916,-2.4387,-2.4367,-2.2801,-2.19,-2.1861,-2.0202,-1.8895,-1.8017,-1.6339,-1.5889,-1.6708,0.0,0.0,0.0,0.0,0.0,0.0,0.0,0.0,0.0,0.0,0.0,0.0,0.0,0.0,0.0,0.0,0.0,0.0,0.0,0.0,0.0,-3.0265,-3.249,-3.3692,-3.6103,-3.8446,-4.0248,-4.2136,-4.2862,-4.1827,-4.2422,-4.243,-4.1351,-4.1567,-4.1673,-4.1474,-4.1632,-4.171,-4.1635,-4.1958,-4.2077,-4.2007,-4.2077,-4.2106,-4.2106,-4.2106,-4.1781,-4.117,-4.117,-4.0845,-4.0301,-4.0301,-4.0301,-4.0301,-4.0301,-4.0148,-3.9862,-3.8973,-3.8122,-3.7375,-3.7375,-3.6865,-3.6101,-3.5492,-3.5155,-3.4875,-3.428,-3.3949,-3.365,-3.3029,-3.2711,-3.2449,-3.1808,-3.1482,-3.1192,-3.0558,-3.0404,-3.0404,-3.0404,-3.0404,-3.0404,-3.0404,-3.0404,-3.0404,-3.0404,-3.0404,-3.0327,-3.0077,-3.0048,-3.0094,-3.018,-3.0214,-3.0125,-2.9811,-2.8873,-2.823,-2.8236,-2.6715,-2.5965,-2.6591,-2.5261,-2.4128,-2.3504,-2.2486,-2.1627,-2.0983,-1.9889,-1.8895,-1.8017,-1.753,-1.71,0.0,0.0,0.0,0.0,0.0,0.0,0.0,0.0,0.0,0.0,0.0,0.0,0.0,0.0,0.0,0.0,0.0,0.0,0.0,0.0,0.0,0.0,-3.3179,-3.5041,-3.6817,-3.82,-3.984,-4.201,-4.2735,-4.3052,-4.303,-4.2925,-4.2593,-4.1937,-4.2145,-4.2236,-4.2084,-4.2337,-4.2457,-4.2356,-4.2509,-4.2593,-4.2622,-4.2593,-4.2664,-4.2794,-4.2794,-4.2335,-4.1495,-4.1495,-4.1055,-4.0301,-4.0301,-4.0301,-4.0301,-4.0301,-4.0301,0.0,0.0,0.0,0.0,0.0,-3.6908,-3.6378,-3.556,-3.5262,-3.5185,-3.4707,-3.4588,-3.4507,-3.4002,-3.3647,-3.3222,-3.2352,-3.1885,-3.1463,-3.0572,-3.0367,-3.0373,-3.0379,-3.0404,-3.0404,-3.0404,-3.0404,-3.0404,-3.0404,-3.0404,0.0,-3.0404,-3.0096,-3.0007,-3.0424,-2.9906,-2.9442,-2.9408,-2.8376,-2.7667,-2.7651,-2.6473,-2.5902,-2.6411,-2.4868,0.0,0.0,0.0,-2.1509,-2.0633,-1.9754,0.0,0.0,0.0,0.0,0.0,0.0,0.0,0.0,-1.6693,-1.5896,0.0,0.0,0.0,0.0,0.0,0.0,0.0,0.0,0.0,0.0,0.0,0.0,0.0,0.0,0.0,0.0,-3.6021,-3.7198,-4.0094,-4.0055,-4.0713,-4.3333,-4.2136,-4.1507,-4.2516,-4.2032,-4.1634,-4.1576,-4.2181,-4.2513,-4.2428,-4.2783,0.0,0.0,0.0,-4.2574,-4.2605,-4.2574,-4.2697,-4.298,-4.298,-4.2485,-4.1599,-4.1599,-4.1093,-4.0253,-4.0291,-4.0272,-4.0253,-4.0291,-4.0301,-4.0301,-4.0301,-3.9823,-3.8954,-3.736,-3.671,-3.65,-3.5641,0.0,0.0,-3.5209,-3.5234,-3.5285,-3.5285,-3.4799,-3.4043,-3.318,-3.2426,-3.1654,-3.0695,-3.0452,-3.0439,-3.0405,-3.0398,-3.0398,-3.0398,-3.0379,-3.0404,-3.0404,-3.0404,-3.0404,-3.0404,-2.9756,-2.9525,-3.0351,-2.9215,-2.85,-2.9151,-2.7932,-2.6996,-2.6905,0.0,0.0,-2.5844,-2.4341,-2.4009,-2.5453,-2.3247,-2.1588,-2.0906,-2.0046,-1.9636,-1.9733,-1.9733,-2.0494,-2.2036,-2.2036,-2.2036,-2.1958,-1.8859,-1.7377,0.0,0.0,0.0,0.0,0.0,0.0,0.0,0.0,0.0,0.0,0.0,0.0,0.0,0.0,0.0,-3.5532,-3.7431,-3.9115,-4.0329,-4.0944,-4.1488,-4.2068,-4.2624,-4.305,-4.3282,-4.3655,-4.3712,-4.3278,-4.3798,-4.3872,-4.3217,-4.376,-4.396,-4.3699,-4.3891,-4.3995,-4.4009,-4.3995,-4.4022,-4.4094,-4.4094,0.0,-4.2147,-4.2147,-4.1361,-3.9996,-4.0215,-4.0176,-3.9996,-4.0206,-4.0301,-4.0301,-4.0301,-4.0205,-3.9919,-3.8897,-3.8075,-3.7349,-3.6519,-3.5793,-3.5209,-3.5209,-3.5209,-3.5218,-3.5218,-3.5154,0.0,-3.401,-3.3695,-3.3264,-3.173,-3.1347,-3.1181,-3.0478,-3.0311,-3.0316,-3.0316,-3.0367,-3.0404,-3.0404,-3.0404,-3.0404,-3.0404,-3.0269,-3.0204,-3.04,-3.013,-2.9506,-2.8343,-2.7944,-2.7538,-2.6887,-2.6096,-2.5938,-2.6683,-2.5805,-2.5043,-2.4671,-2.2915,-2.2115,-2.2603,-2.1822,-2.1705,-2.235,-2.2369,-2.2525,-2.2877,-2.2877,-2.2877,-2.2857,-2.2175,-2.1513,0.0,0.0,0.0,0.0,0.0,0.0,0.0,0.0,0.0,0.0,0.0,-3.1151,-3.1946,0.0,-3.6798,-3.7958,-3.917,-4.0365,-4.1542,-4.1687,-4.185,-4.2248,-4.2832,-4.3195,-4.3195,-4.3557,-4.3693,-4.3426,-4.3868,-4.3958,-4.3563,-4.3989,-4.4227,-4.4151,-4.4114,-4.4198,-4.4402,-4.4279,-4.4279,-4.4397,-4.4397,-4.36,-4.2108,-4.2108,-4.1222,-3.9705,-3.9848,-3.9826,-3.9717,-3.9986,-4.0098,-4.0108,-4.0244,-4.0301,-4.0186,-3.9317,-3.8725,-3.8171,-3.692,-3.6214,-3.5774,-3.5335,-3.5209,-3.5209,-3.5209,-3.5218,-3.5089,-3.424,-3.4014,-3.3769,-3.2513,-3.1888,-3.1454,-3.1046,-3.0631,-3.0305,-3.0304,-3.0336,-3.0367,-3.0379,-3.0404,-3.0404,-3.0404,-3.0404,-3.025,-2.9813,-2.9044,-2.8192,-2.7351,-2.6939,-2.6548,-2.6132,-2.5792,-2.5784,-2.6253,-2.5935,-2.5335,-2.4456,-2.3617,-2.3149,-2.3091,-2.2329,-2.188,-2.1843,-2.1843,-2.2057,-2.2505,-2.2505,-2.2934,-2.3754,-2.3754,-2.3307,0.0,0.0,0.0,0.0,0.0,0.0,0.0,-2.7458,-2.86,-2.9799,-3.2223,-3.4393,-3.5221,-3.7291,-3.9242,-4.0311,-4.0745,-4.1361,-4.2502,-4.2248,-4.2176,-4.2829,-4.2901,-4.2901,-4.2901,-4.305,-4.3123,-4.3067,-4.3477,-4.3675,-4.3577,-4.3862,-4.4046,-4.4084,-4.382,-4.3836,-4.4169,-4.3952,-4.3968,-4.4217,-4.4217,-4.346,-4.2037,-4.19,-4.1038,-3.9652,-3.9483,-3.9446,-3.9526,-3.9739,-3.984,-3.9924,-4.0147,-4.0253,-4.0205,-3.9508,-3.9049,-3.8553,-3.7188,-3.6519,-3.6137,-3.543,-3.5209,-3.5209,-3.5209,-3.5209,-3.5057,-3.4426,-3.4235,-3.4052,-3.3241,-3.2388,-3.1706,-3.16,-3.0905,-3.0286,-3.0279,-3.0292,-3.0323,-3.0373,-3.0379,-3.0379,-3.0404,-3.0404,-3.0154,-2.9467,-2.8063,-2.7024,-2.6871,-2.6149,-2.5564,-2.5426,-2.551,-2.5595,-2.5611,-2.5676,-2.5395,-2.4691,-2.4495,-2.4164,-2.3638,-2.2661,-2.188,-2.1354,-2.1179,-2.151,-2.2387,-2.2387,-2.3168,-2.4652,-2.4652,-2.4281,-2.8249,-2.7874,-2.7732,-2.6938,-2.7817,-2.9615,0.0,-3.2726,-3.3006,-3.5375,-3.6722,-3.7747,-3.8682,-4.0184,-4.1126,-4.0583,-4.1705,-4.2429,-4.1904,-4.2375,-4.2792,-4.2901,-4.2901,-4.2901,-4.2901,-4.3142,-4.3178,-4.2938,-4.3525,-4.3658,-4.3196,-4.3526,-4.361,-4.3321,-4.3304,-4.3304,-4.3339,-4.3286,-4.3357,-4.3497,-4.3497,-4.3203,-4.259,-4.1865,-4.1062,-4.0165,-3.9454,-3.9285,-3.9495,-3.952,-3.9693,-3.9903,-3.9935,-4.0087,-4.0282,-4.0186,-3.9164,-3.7827,-3.7636,-3.6585,-3.5335,-3.5229,-3.5209,-3.5209,-3.5209,-3.5209,-3.519,-3.5095,-3.5076,-3.4885,-3.4071,-3.323,-3.2382,-3.1682,-3.0851,-3.0221,-3.0202,-3.0254,-3.0305,-3.0304,-3.031,-3.0336,-3.0398,-3.0404,-3.0365,-3.0269,-2.9448,-2.8569,-2.7857,-2.6996,-2.6188,-2.548,-2.547,-2.5554,-2.568,-2.5706,-2.5668,-2.5551,-2.4828,-2.4691,-2.5375,-2.3833,-2.3287,-2.3968,-2.3208,-2.3247,-2.4124,-2.4124,-2.4613,-2.5551,-2.5551,-2.5492,-3.11,-3.0582,-3.0279,-3.0401,-3.1278,-3.2599,-3.438,-3.4879,-3.5557,-3.7613,-3.9068,-3.9986,-3.9986,-4.1306,-4.214,-4.1325,-4.2158,-4.2774,-4.2448,-4.2683,-4.2719,-4.2266,-4.2611,-4.2719,-4.2248,-4.2722,-4.2813,-4.2248,-4.2904,-4.3213,-4.2994,-4.3142,-4.3214,-4.3142,-4.3142,-4.316,-4.3214,-4.3214,-4.3233,-4.3269,-4.3269,-4.2697,-4.1646,-4.1296,-4.0498,-3.9346,-3.9014,-3.8921,-3.9045,-3.9192,-3.9337,-3.9452,-3.9611,-3.9837,-4.0087,-4.0244,-3.9843,-3.9145,-3.8629,-3.7674,-3.6585,-3.6099,-3.5602,-3.5209,-3.5209,-3.5209,-3.5209,-3.5209,-3.5209,-3.5114,-3.4789,-3.4082,-3.3242,-3.2394,-3.1568,-3.0818,-3.0303,-3.0221,-3.0247,-3.0286,-3.0292,-3.0318,-3.0349,-3.033,-3.033,-3.033,-2.9233,-2.8077,-2.7209,-2.6355,-2.5735,-2.5485,-2.5486,-2.5549,-2.5683,-2.5707,-2.5707,-2.5707,-2.5355,-2.5081,-2.4945,-2.4242,-2.3793,-2.3656,-2.3287,-2.3287,-2.3637,-2.3637,-2.4086,-2.4945,-2.4945,-2.5218,-3.2061,-3.199,-3.2222,-3.3043,-3.4151,-3.5257,-3.6024,-3.6809,-3.7738,-3.8993,-4.0216,-4.0939,-4.051,-4.1614,-4.2375,-4.1795,-4.2375,-4.2901,-4.2901,-4.2701,-4.2357,-4.1759,-4.2031,-4.2013,-4.1433,-4.2103,-4.2411,-4.2067,-4.2375,-4.2665,-4.2901,-4.2901,-4.2938,-4.303,-4.3049,-4.3086,-4.3123,-4.3123,-4.3142,-4.316,-4.316,-4.2595,-4.1531,-4.1091,-4.0113,-3.8707,-3.8707,-3.8707,-3.8723,-3.8925,-3.9031,-3.9129,-3.9311,-3.9544,-3.9818,-4.0087,-4.0034,-3.9738,-3.9119,-3.8165,-3.7155,-3.6574,-3.5846,-3.5209,-3.5209,-3.5209,-3.5209,-3.5209,-3.5209,-3.5209,-3.5209,-3.4598,-3.3777,-3.2909,-3.2088,-3.1262,-3.0385,-3.02,-3.0207,-3.0266,-3.0273,-3.0279,-3.0305,-3.0292,-3.0286,-3.0273,-2.9096,-2.7876,-2.696,-2.595,-2.5345,-2.5453,-2.5489,-2.5542,-2.5654,-2.5683,-2.5707,-2.5707,-2.5707,-2.5414,-2.4789,-2.4534,-2.4105,-2.3462,-2.3228,-2.3228,-2.3462,-2.3462,-2.391,-2.4769,-2.4769,-2.5101,-2.9904,-3.1135,-3.3061,-3.3865,-3.5792,-3.7702,-3.8522,-3.9253,-3.9863,-4.0108,-4.0199,-4.0292,-4.0456,-4.118,-4.1723,-4.1705,-4.2375,-4.2901,-4.2901,-4.223,-4.1723,-4.1705,-4.1035,-4.0546,-4.0528,-4.1252,-4.2049,-4.281,-4.2158,-4.2067,-4.2846,-4.2901,-4.2901,-4.2919,-4.2919,-4.2919,-4.2901,-4.2901,-4.2957,-4.3104,-4.3104,-4.3123,-4.3069,-4.1568,-4.0113,-3.8707,-3.8707,-3.8707,-3.8707,-3.8707,-3.8866,-3.9101,-3.9115,-3.9272,-3.9532,-3.9807,-3.9372,-3.865,-3.8612,-3.7532,-3.6149,-3.613,-3.5693,-3.5209,-3.5209,-3.5209,-3.5209,-3.5209,-3.5209,-3.5209,-3.5209,-3.4598,-3.3777,-3.2909,-3.2088,-3.1255,-3.0383,-3.0211,-3.0199,-3.0207,-3.0195,-3.0227,-3.0286,-3.0292,-3.0279,-3.0221,-2.9494,-2.8676,-2.7857,-2.6332,-2.5332,-2.5397,-2.5453,-2.5526,-2.56,-2.5654,-2.5707,-2.5707,-2.5707,-2.5687,-2.5668,-2.4847,-2.4397,-2.4358,-2.3521,-2.3521,-2.4358,-2.4358,-2.4808,-2.5668,-2.5668,-2.5668,-3.2973,-3.4204,-3.5543,-3.6881,-3.8183,-3.9343,-4.0146,-4.011,-4.0096,-4.0826,-4.0182,-3.9536,-3.9732,-3.9985,-4.0329,-4.0818,-4.1578,-4.2303,-4.2829,-4.2665,-4.2103,-4.1035,-4.1144,-4.089,-3.9876,-4.0474,-4.1017,-4.1289,-4.1542,-4.1813,-4.2103,-4.2611,-4.2901,-4.2901,-4.2901,-4.2901,-4.2901,-4.2901,-4.2919,-4.2957,-4.2523,-4.2323,-4.2286,-4.0786,-3.9827,-3.9347,-3.8896,-3.8707,-3.8707,-3.8707,-3.875,-3.8837,-3.8837,-3.9007,-3.9245,-3.9337,-3.9176,-3.8983,-3.9346,-3.8706,-3.7654,-3.7086,-3.653,-3.5946,-3.5381,-3.5209,-3.5209,-3.5209,-3.5209,-3.5209,-3.5209,-3.4999,-3.4598,-3.3757,-3.3356,-3.2764,-3.1369,-3.1064,-3.0899,-3.0314,-3.0206,-3.0206,-3.0219,-3.0226,-3.0028,-2.9434,-2.8651,-2.7841,-2.7041,-2.5946,-2.5269,-2.5333,-2.5387,-2.5486,-2.5585,-2.563,-2.565,-2.5706,-2.5707,-2.5707,-2.5707,-2.5414,-2.5257,-2.5257,-2.4965,-2.4965,-2.5257,-2.5257,-2.5414,-2.5707,-2.5707,-2.5707,-3.5163,-3.6291,-3.7345,-3.9165,-4.0005,-4.0544,-4.1062,-4.0796,-4.039,-4.0218,-3.9175,-3.8238,-3.8122,-3.7884,-3.8228,-3.984,-4.0311,-4.0926,-4.2285,-4.2212,-4.1651,-4.0619,-4.0709,-4.06,-3.9858,-3.9731,-3.9912,-4.0456,-4.0981,-4.1397,-4.1687,-4.2466,-4.2901,-4.2901,-4.2901,-4.2901,-4.2901,-4.2901,-4.2901,-4.2901,-4.2468,-4.2123,-4.1851,-4.0626,-3.9944,-3.9664,-3.8941,-3.8658,-3.8692,-3.8658,-3.8658,-3.8692,-3.8658,-3.8758,-3.8964,-3.9059,-3.9031,-3.9017,-3.9464,-3.9046,-3.8244,-3.7769,-3.7059,-3.6279,-3.5815,-3.545,-3.5209,-3.5209,-3.5209,-3.5209,-3.5209,-3.5209,-3.4999,-3.4178,-3.3995,-3.3536,-3.1866,-3.1503,-3.1236,-3.0376,-3.0211,-3.0211,-3.0211,-3.0211,-3.0013,-2.9452,-2.8663,-2.7733,-2.6609,-2.5726,-2.5228,-2.526,-2.532,-2.5406,-2.5515,-2.5576,-2.5632,-2.5701,-2.5705,-2.5707,-2.5707,-2.5707,-2.5707,-2.5707,-2.5707,-2.5707,-2.5707,-2.5707,-2.5707,-2.5707,-2.5707,-2.5707,-3.6427,-3.7363,-3.8509,-4.0649,-4.1244,-4.1287,-4.1268,-4.1238,-4.0578,-3.8346,-3.7209,-3.6412,-3.5679,-3.5025,-3.5602,-3.8663,-3.8662,-3.9043,-4.1325,-4.1017,-4.0546,-4.0492,-3.9912,-3.9786,-4.0438,-3.917,-3.8916,-4.0383,-4.0492,-4.0854,-4.165,-4.2466,-4.2901,-4.2901,-4.2901,-4.2901,-4.2901,-4.2901,-4.2901,-4.2901,-4.2846,-4.2503,-4.1869,-4.1015,-4.0283,-3.9648,-3.8841,-3.8559,-3.8658,-3.8559,-3.8575,-3.8658,-3.8525,-3.8575,-3.8719,-3.8979,-3.8906,-3.8753,-3.8993,-3.8553,-3.7907,-3.8103,-3.7261,-3.6196,-3.6412,-3.588,-3.5193,-3.5201,-3.5209,-3.5209,-3.5209,-3.5209,-3.5018,-3.4235,-3.4071,-3.3605,-3.1981,-3.1599,-3.1293,-3.0433,-3.023,-3.0211,-3.0211,-3.0211,-3.0211,-3.0211,-2.9452,-2.8306,-2.667,-2.5763,-2.525,-2.5212,-2.525,-2.5331,-2.5391,-2.5515,-2.5617,-2.5707,-2.5701,-2.5707,-2.5707,-2.5707,-2.5707,-2.5707,-2.5707,-2.5706,-2.5706,-2.5706,-2.5706,-2.5707,-2.5707,-2.5707,-3.8833,-3.9912,-4.0754,-4.1857,-4.1755,-4.1203,-4.0551,-3.9568,-3.8294,-3.6579,-3.5099,-3.374,-3.2455,-3.3538,-3.4878,-3.5693,-3.7667,-3.9496,-4.0637,-4.1144,-4.1162,-4.0564,-4.0854,-4.0945,-4.0528,-4.013,-4.0076,-4.0474,-4.0492,-4.0854,-4.165,-4.2466,-4.2901,-4.2901,-4.2901,-4.2901,-4.2901,-4.2901,-4.2901,-4.2901,-4.2303,-4.1922,-4.1724,-4.0416,-3.9705,-3.9502,-3.8747,-3.843,-3.8481,-3.843,-3.8465,-3.8481,-3.843,-3.8478,-3.8556,-3.8634,-3.8667,-3.8707,-3.878,-3.8792,-3.8674,-3.8077,-3.7399,-3.6696,-3.6329,-3.5638,-3.501,-3.5168,-3.5209,-3.5209,-3.5209,-3.5209,-3.5152,-3.4942,-3.4885,-3.4617,-3.3586,-3.286,-3.2145,-3.1248,-3.0605,-3.0211,-3.0211,-3.0211,-3.0211,-3.0211,-2.9452,-2.8535,-2.751,-2.6619,-2.5866,-2.526,-2.5215,-2.5269,-2.5387,-2.5476,-2.5585,-2.5694,-2.5693,-2.5702,-2.5702,-2.5705,-2.5705,-2.5702,-2.5702,-2.5699,-2.5694,-2.5694,-2.5697,-2.5702,-2.5702,-2.5704,-4.0671,-4.1522,-4.2001,-4.2009,-4.1745,-4.0975,-3.9085,-3.8024,-3.6725,-3.4117,-3.2567,-3.1303,-3.0156,-3.1043,-3.2546,-3.4301,-3.6127,-3.8047,-4.0184,-4.0601,-4.0764,-4.0999,-4.1107,-4.1126,-4.1035,-4.0709,-4.0637,-4.0999,-4.1035,-4.1216,-4.1687,-4.2466,-4.2901,-4.2901,-4.2901,-4.2901,-4.2901,-4.2901,-4.2901,-4.2901,-4.2067,-4.1705,-4.165,-4.0146,-3.9455,-3.9453,-3.8684,-3.8368,-3.8399,-3.8368,-3.8368,-3.8399,-3.8368,-3.8401,-3.8462,-3.8462,-3.8512,-3.8562,-3.8609,-3.8713,-3.8781,-3.8475,-3.7912,-3.7261,-3.6774,-3.6063,-3.5391,-3.5247,-3.5209,-3.5209,-3.5209,-3.5209,-3.5209,-3.5209,-3.5209,-3.498,-3.4167,-3.3624,-3.2917,-3.1675,-3.0777,-3.0211,-3.0211,-3.0211,-3.0211,-3.0211,-2.9784,-2.9166,-2.8325,-2.7166,-2.6084,-2.5287,-2.5203,-2.5236,-2.5345,-2.543,-2.5493,-2.5615,-2.5673,-2.569,-2.5696,-2.5698,-2.5698,-2.5696,-2.5696,-2.5693,-2.571,-2.571,-2.5692,-2.5696,-2.5696,-2.5697,-4.2021,-4.2523,-4.2642,-4.1678,-4.1374,-4.0492,-3.7353,-3.6432,-3.5198,-3.1441,-2.999,-2.9119,-2.8267,-2.8473,-2.9939,-3.3538,-3.448,-3.6057,-3.9822,-3.9804,-3.9967,-4.1524,-4.1071,-4.0981,-4.1777,-4.1216,-4.1107,-4.1813,-4.185,-4.185,-4.185,-4.252,-4.2901,-4.2901,-4.2901,-4.2901,-4.2901,-4.2901,-4.2901,-4.2901,-4.1995,-4.1542,-4.1488,-3.9948,-3.9276,-3.9291,-3.8599,-3.8322,-3.8368,-3.8305,-3.8322,-3.8368,-3.8305,-3.8322,-3.8401,-3.8401,-3.8382,-3.8399,-3.8478,-3.8494,-3.8556,-3.8931,-3.8456,-3.7684,-3.7314,-3.6652,-3.5901,-3.5318,-3.5132,-3.5124,-3.5149,-3.5149,-3.5149,-3.5149,-3.5193,-3.5018,-3.4312,-3.409,-3.3498,-3.1828,-3.0892,-3.0345,-3.023,-3.0211,-3.0211,-3.0211,-3.0211,-2.9898,-2.9006,-2.7542,-2.6256,-2.5459,-2.5268,-2.5225,-2.5282,-2.5363,-2.5421,-2.5495,-2.5622,-2.5696,-2.5707,-2.5708,-2.5708,-2.5707,-2.5707,-2.5707,-2.5705,-2.5705,-2.5707,-2.5707,-2.5707,-2.5708,-4.2884,-4.3175,-4.2941,-4.1848,-4.0673,-3.9081,-3.6414,-3.4318,-3.2166,-2.9493,-2.8288,-2.7296,-2.5881,-2.7791,-3.0038,-3.1401,-3.3864,-3.6544,-3.9206,-3.9478,-3.9967,-4.1524,-4.1578,-4.1795,-4.2611,-4.2556,-4.2538,-4.2683,-4.2683,-4.2683,-4.2683,-4.2829,-4.2901,-4.2901,-4.2901,-4.2901,-4.2901,-4.2901,-4.2901,-4.2883,-4.1415,-4.0709,-4.0655,-3.9097,-3.8408,-3.8425,-3.828,-3.8224,-3.8224,-3.8207,-3.8224,-3.8224,-3.8207,-3.8257,-3.8323,-3.8323,-3.8336,-3.8399,-3.8415,-3.8415,-3.8465,-3.8686,-3.8228,-3.744,-3.6885,-3.6162,-3.5448,-3.5058,-3.4803,-3.4665,-3.4898,-3.4955,-3.4955,-3.4955,-3.5081,-3.5171,-3.5018,-3.4464,-3.3498,-3.1828,-3.1389,-3.1045,-3.0319,-3.0211,-3.0211,-3.0211,-3.0211,-2.9898,-2.9006,-2.8077,-2.7147,-2.6275,-2.5606,-2.5225,-2.5282,-2.5369,-2.5422,-2.5499,-2.563,-2.5705,-2.5696,-2.5705,-2.5705,-2.5696,-2.5696,-2.5692,-2.5705,-2.5705,-2.5708,-2.5696,-2.5696,-2.5701,-4.2892,-4.2868,-4.2444,-4.1325,-3.9895,-3.792,-3.4581,-3.26,-3.0545,-2.735,-2.6339,-2.5713,-2.4585,-2.6319,-2.8323,-2.9554,-3.1745,-3.4443,-3.7701,-3.7794,-3.8409,-4.0782,-4.1071,-4.1379,-4.2212,-4.2647,-4.2901,-4.2901,-4.2901,-4.2901,-4.2901,-4.2901,-4.2901,-4.2901,-4.2901,-4.2901,-4.2901,-4.2901,-4.2683,-4.2266,-4.1053,-4.0293,-3.9894,-3.8717,-3.8209,-3.8209,-3.8209,-3.8209,-3.8209,-3.8209,-3.8209,-3.8209,-3.8209,-3.8225,-3.8259,-3.8259,-3.8274,-3.8305,-3.8338,-3.8354,-3.837,-3.8499,-3.8272,-3.7784,-3.6805,-3.6247,-3.5789,-3.4886,-3.4572,-3.4529,-3.4663,-3.4684,-3.4733,-3.486,-3.5054,-3.5209,-3.5209,-3.456,-3.3765,-3.2955,-3.2095,-3.1369,-3.0892,-3.0472,-3.0211,-3.0211,-3.0211,-3.0051,-2.9631,-2.8841,-2.8001,-2.7166,-2.6332,-2.5834,-2.5874,-2.5582,-2.5414,-2.5452,-2.5565,-2.5652,-2.5705,-2.5692,-2.5692,-2.5705,-2.5705,-2.5703,-2.5699,-2.5699,-2.5701,-2.5705,-2.5705,-2.5708,-4.2434,-4.2232,-4.1735,-4.0613,-3.8987,-3.6707,-3.3031,-3.1128,-2.9101,-2.5493,-2.4689,-2.4432,-2.3673,-2.4853,-2.6518,-2.831,-2.9952,-3.2411,-3.6433,-3.6453,-3.7161,-4.0148,-4.0347,-4.0637,-4.1614,-4.2266,-4.2701,-4.2901,-4.2901,-4.2901,-4.2901,-4.2901,-4.2901,-4.2901,-4.2901,-4.2901,-4.2901,-4.2719,-4.2339,-4.1687,-4.0709,-3.9967,-3.9369,-3.8571,-3.8209,-3.8209,-3.8209,-3.8209,-3.8209,-3.8209,-3.8209,-3.8209,-3.8209,-3.8209,-3.8209,-3.8209,-3.8209,-3.8209,-3.8257,-3.8274,-3.829,-3.8336,-3.8385,-3.8172,-3.6952,-3.6625,-3.6352,-3.4963,-3.458,-3.4565,-3.4435,-3.442,-3.4508,-3.4831,-3.5054,-3.5209,-3.5209,-3.4694,-3.4205,-3.4033,-3.2936,-3.1904,-3.1477,-3.0892,-3.0414,-3.023,-3.0211,-3.0211,-3.0211,-2.9612,-2.8936,-2.8294,-2.73,-2.6593,-2.6421,-2.5936,-2.558,-2.5402,-2.5508,-2.561,-2.5675,-2.5697,-2.5699,-2.5699,-2.5699,-2.5699,-2.5699,-2.5699,-2.5699,-2.5699,-2.5699,-2.5699,-4.155,-4.1686,-4.12,-4.0061,-3.7867,-3.5349,-3.2777,-2.9827,-2.6916,-2.4418,-2.3912,-2.3667,-2.2862,-2.4024,-2.5878,-2.8219,-2.9952,-3.2411,-3.6433,-3.6941,-3.7775,-4.0202,-3.9912,-4.0075,-4.156,-4.1759,-4.2122,-4.2865,-4.2901,-4.2901,-4.2901,-4.2901,-4.2901,-4.2901,-4.2901,-4.2901,-4.2901,-4.2194,-4.1759,-4.1687,-4.022,-3.946,-3.9369,-3.8571,-3.8209,-3.8209,-3.8209,-3.8209,-3.8209,-3.8209,-3.8209,-3.8209,-3.8209,-3.8209,-3.8209,-3.8209,-3.8209,-3.8209,-3.8209,-3.8209,-3.8209,-3.8225,-3.8305,-3.8234,-3.7393,-3.7134,-3.6848,-3.5514,-3.4999,-3.4752,-3.4259,-3.4166,-3.4344,-3.4792,-3.5054,-3.5209,-3.5209,-3.5152,-3.4866,-3.4147,-3.388,-3.3261,-3.1668,-3.1389,-3.1102,-3.0326,-3.0211,-3.0211,-3.0211,-3.0128,-3.0051,-2.9975,-2.8542,-2.7262,-2.646,-2.6395,-2.6106,-2.5436,-2.5466,-2.5535,-2.5604,-2.5675,-2.5699,-2.5699,-2.5699,-2.5699,-2.5699,-2.5699,-2.5699,-2.5699,-2.5699,-2.5699,-4.014,-4.0551,-4.0452,-3.931,-3.7038,-3.4317,-3.1433,-2.8618,-2.597,-2.3619,-2.2751,-2.248,-2.2632,-2.3177,-2.4219,-2.6131,-2.6964,-2.8612,-3.2176,-3.3082,-3.4443,-3.7324,-3.8264,-3.9097,-4.022,-4.1144,-4.2012,-4.2847,-4.2901,-4.2683,-4.2212,-4.2629,-4.2901,-4.2901,-4.2429,-4.2194,-4.2194,-4.1379,-4.0745,-4.0311,-3.9695,-3.9151,-3.868,-3.8354,-3.8209,-3.8209,-3.8209,-3.8209,-3.8209,-3.8209,-3.8209,-3.8209,-3.8209,-3.8209,-3.8209,-3.8209,-3.8209,-3.8209,-3.8209,-3.8209,-3.8209,-3.8209,-3.8241,-3.8036,-3.6749,-3.6399,-3.6097,-3.4607,-3.415,-3.4077,-3.3853,-3.4049,-3.4353,-3.4508,-3.4889,-3.5198,-3.5153,-3.5145,-3.5058,-3.4786,-3.4298,-3.3573,-3.2394,-3.1801,-3.1197,-3.0319,-3.0211,-3.0211,-3.0211,-3.0211,-3.0211,-3.0211,-2.9134,-2.8096,-2.7243,-2.6767,-2.6167,-2.5389,-2.5449,-2.5505,-2.5549,-2.5598,-2.5654,-2.5699,-2.5699,-2.5699,-2.5699,-2.5699,-2.5699,-2.5699,-2.5699,-2.5699,-3.8106,-3.8788,-3.9059,-3.8191,-3.5952,-3.3245,-3.0432,-2.7743,-2.5179,-2.2825,-2.1884,-2.1595,-2.192,-2.2373,-2.3133,0.0,-2.5244,-2.6747,-2.9748,-3.0853,-3.2451,-3.5442,-3.6598,-3.7631,-3.8933,-4.0456,-4.1578,-4.214,-4.2176,-4.194,-4.1379,-4.1886,-4.2176,-4.2176,-4.1651,-4.1343,-4.1343,-4.0564,-3.9912,-3.9387,-3.9152,-3.8752,-3.8209,-3.8209,-3.8209,-3.8209,-3.8209,-3.8209,0.0,-3.8209,-3.8209,-3.8209,-3.8209,-3.8209,-3.8209,-3.8209,-3.8209,-3.8209,-3.8209,-3.8209,-3.8209,-3.8209,-3.8209,-3.7955,-3.658,-3.6195,-3.588,-3.4283,-3.3687,-3.3577,-3.3591,-3.3935,-3.4284,-3.4295,-3.4693,-3.5066,-3.5075,-3.5084,-3.5101,-3.5155,-3.4696,-3.3931,-3.2867,-3.2207,-3.145,-3.0343,-3.0171,-3.0171,-3.0171,-3.0178,-3.0211,-3.0211,-2.965,-2.8956,-2.8134,-2.7541,-2.6757,-2.5711,-2.5768,-2.5737,-2.5514,-2.5564,-2.563,-2.5699,-2.5699,-2.5699,-2.5699,-2.5699,-2.5699,-2.5699,-2.5699,-2.5699,-3.5394,-3.6325,-3.6789,-3.6578,-3.4515,-3.2049,-3.0218,-2.732,-2.4357,-2.2002,-2.1514,-2.126,-2.0463,-2.1631,-2.2934,-2.3687,-2.5823,-2.8219,-3.0654,-3.1673,-3.3085,-3.5514,-3.5098,-3.5584,-3.7991,-3.9604,-4.051,-4.051,-4.051,-4.051,-4.051,-4.051,-4.051,-4.051,-4.051,-4.051,-4.051,-3.9786,-3.9405,-3.9387,-3.8589,-3.8209,-3.8209,-3.8209,-3.8209,-3.8209,-3.8209,-3.8209,0.0,-3.8209,-3.8209,-3.8209,-3.8209,-3.8209,-3.8209,-3.8209,-3.8209,-3.8209,-3.8209,-3.8209,-3.8209,-3.8209,-3.8209,-3.8064,-3.723,-3.6995,-3.6651,-3.5041,-3.4068,-3.3524,-3.3591,-3.3807,-3.4061,-3.4257,-3.4513,-3.4763,-3.4955,-3.5038,-3.5092,-3.5092,-3.5147,-3.4647,-3.2896,-3.2588,-3.2016,-3.0349,-3.0101,-3.0101,-3.0101,-3.0164,-3.0211,-3.0211,-3.0192,-2.9822,-2.8949,-2.8872,-2.8192,-2.6595,-2.655,-2.6261,-2.5535,-2.5559,-2.563,-2.5699,-2.5699,-2.5699,-2.5699,-2.5699,-2.5699,-2.5699,-2.5699,-2.5699,-3.2099,-3.308,-3.3648,-3.2527,-3.1041,-2.9408,-2.7719,-2.5316,-2.3061,-2.1767,-2.0626,-1.9956,-2.0246,-2.0717,-2.1658,-2.3487,-2.4404,-2.5917,-2.8944,-3.0021,-3.1617,-3.4627,-3.6218,-3.7576,-3.888,-3.946,-3.9967,-4.0456,-4.0492,-4.0275,-3.9786,-3.9749,-3.9985,-4.0474,-4.0021,-3.9749,-3.9749,-3.8971,-3.8589,-3.8589,-3.8317,-3.8209,-3.8209,-3.8209,-3.8209,-3.8209,-3.8209,-3.8209,-3.8209,-3.8209,-3.8209,-3.8209,-3.8209,-3.8209,-3.8209,-3.8209,-3.8209,-3.8209,-3.8209,-3.8209,-3.8209,-3.8209,-3.8209,-3.7955,-3.658,-3.6182,-3.5838,-3.4226,-3.3607,-3.3437,-3.3452,-3.3648,-3.3878,-3.3928,-3.4279,-3.4591,-3.471,-3.4859,-3.4984,-3.5011,-3.5057,-3.4713,-3.3597,-3.2967,-3.2224,-3.1085,-3.0445,-3.0091,-3.0091,-3.0125,-3.0121,-3.0123,-3.0123,-2.9806,-2.8968,-2.8891,-2.8186,-2.654,-2.6544,-2.6243,-2.5456,-2.5535,-2.5624,-2.5699,-2.5699,-2.5699,-2.5699,-2.5699,-2.5699,-2.5699,-2.5699,-2.5699,-2.927,-3.0398,-3.1058,-3.0065,-2.9027,-2.7822,-2.612,-2.4172,-2.2391,-2.125,-2.0002,-1.9258,-1.9739,-2.0101,-2.088,-2.2654,-2.3645,-2.5116,-2.7773,-2.9063,-3.0821,-3.3732,-3.6174,-3.7819,-3.8325,-3.865,-3.9011,-3.9481,-3.9552,-3.9353,-3.89,-3.8917,-3.9152,-3.9623,-3.9188,-3.8952,-3.8952,-3.8462,-3.8209,-3.8209,-3.8209,-3.8209,-3.8209,-3.8209,-3.8209,-3.8209,-3.8209,-3.8209,0.0,-3.8209,-3.8209,-3.8209,-3.8209,-3.8209,-3.8209,-3.8209,-3.8209,-3.8209,-3.8209,-3.8209,-3.8209,-3.8209,-3.7991,-3.7502,-3.62,-3.5369,-3.4682,-3.3683,-3.3393,-3.3393,-3.3393,-3.353,-3.3675,-3.3734,-3.4049,-3.4383,-3.4539,-3.4747,-3.4917,-3.4955,-3.4992,-3.4745,-3.3944,-3.3107,-3.227,-3.1426,-3.0597,-3.0053,-3.0053,-3.0087,-3.0102,-3.0106,-3.0094,-2.9899,-2.9405,-2.9388,-2.8803,-2.7434,-2.7451,-2.7152,-2.638,-2.6156,-2.624,-2.6647,-2.632,-2.6147,-2.6147,-2.5855,-2.5699,-2.5699,-2.5699,-2.5855,0.0,-2.8028,-2.869,-2.8504,-2.7838,-2.6805,-2.5124,-2.359,0.0,-2.0517,-1.9613,-1.9123,-1.9258,-1.9829,-2.0626,-2.1586,-2.3622,-2.5631,-2.726,-2.9011,-3.0939,-3.3115,-3.5379,-3.6802,-3.6802,-3.7467,-3.7899,-3.7899,-3.7968,-3.7984,-3.8001,-3.8122,-3.8192,-3.8209,-3.8209,-3.8209,-3.8209,-3.8209,-3.8209,-3.8209,-3.8209,-3.8209,-3.8209,-3.8209,-3.8209,-3.8209,-3.8209,-3.8209,-3.8209,-3.8209,-3.8209,-3.8209,-3.8209,-3.8209,-3.8191,-3.8136,-3.8154,-3.8191,-3.8136,-3.8154,-3.8191,-3.8136,-3.7575,-3.6759,-3.5965,-3.4663,-3.3465,-3.3429,-3.3393,-3.3393,-3.3393,-3.3393,-3.3452,-3.3629,-3.3868,-3.4148,-3.4397,-3.4676,-3.4887,-3.4889,-3.4945,-3.4755,-3.4014,-3.3159,-3.2305,-3.1507,-3.0652,-3.0056,-2.9999,-3.0046,-3.0087,-3.0095,-3.0098,-3.0094,-3.0101,-3.0164,-2.9822,-2.8949,-2.8964,-2.8668,-2.7913,-2.7245,-2.7285,-2.8165,-2.7322,-2.6862,-2.6807,-2.6069,-2.5699,-2.5699,-2.5757,-2.6186,-2.2816,0.0,-2.4067,-2.3418,-2.3069,-2.2765,0.0,-2.1445,-2.0615,-2.0264,-1.9578,-1.9424,-2.0708,-2.059,-2.1151,-2.3759,-2.5109,-2.6417,-2.808,-3.1205,-3.3728,-3.4839,-3.6532,-3.7629,-3.7629,-3.7791,-3.7899,-3.7899,-3.7916,-3.7951,-3.8001,-3.8036,-3.8088,-3.8209,-3.8209,-3.8209,-3.8209,-3.8209,-3.8209,-3.8209,-3.8209,-3.8209,-3.8209,-3.8209,-3.8209,-3.8209,-3.8209,-3.8209,-3.8209,-3.8209,-3.8209,-3.8209,-3.8209,-3.8209,-3.8136,-3.7502,-3.7665,-3.8118,-3.7502,-3.7683,-3.81,-3.7484,-3.6743,-3.5928,-3.5131,-3.4609,-3.419,-3.3574,-3.3393,-3.3393,-3.3393,-3.3393,-3.3408,-3.3466,-3.3647,-3.3855,-3.4136,-3.4397,-3.4655,-3.4859,-3.4908,-3.487,-3.4661,-3.396,-3.3125,-3.2272,-3.1429,-3.0671,-3.0008,-2.994,-2.9964,-3.0022,-3.0011,-3.0042,-3.0101,-3.0164,-2.9822,-2.8949,-2.8964,-2.8658,-2.7867,-2.775,-2.7807,-2.7966,-2.7213,-2.6523,-2.5901,-2.5773,-2.5699,-2.5718,-2.6322,-2.671,-2.0499,-2.1532,-2.258,-2.2126,-2.199,-2.1844,-2.1416,-2.0676,-2.0001,-1.9678,-1.9255,-1.9335,-2.0616,-2.0796,-2.1563,-2.3999,-2.533,-2.6898,-2.9326,-3.2375,-3.4641,-3.5418,-3.6841,-3.7757,-3.7757,-3.7757,-3.7757,-3.7757,-3.7793,-3.7828,-3.7862,-3.7915,-3.7985,-3.8055,-3.8055,-3.8107,-3.8209,-3.814,-3.814,-3.8209,-3.814,-3.814,-3.8209,-3.8209,-3.8209,-3.8209,-3.8209,-3.8209,-3.8209,-3.8209,-3.8209,-3.8209,-3.8209,-3.8209,-3.8154,-3.772,-3.7828,-3.8136,-3.7701,-3.7846,-3.8136,-3.7701,-3.6761,-3.5713,-3.5279,-3.4643,-3.3954,-3.352,-3.3393,-3.3393,-3.3393,-3.3393,-3.3393,-3.3393,-3.3615,-3.3881,-3.4061,-3.4374,-3.4687,-3.4868,-3.4898,-3.4908,-3.4908,-3.4226,-3.3543,-3.307,-3.197,-3.1033,-3.056,-3.0143,-2.9905,-2.9948,-2.9972,-3.0003,-3.0049,-3.0113,-2.9959,-2.9529,-2.9492,-2.9347,-2.8967,-2.8596,-2.842,-2.8449,-2.8117,-2.7754,-2.7346,-2.7004,-2.6842,-2.6866,-2.7294,-2.7704,-1.9567,-2.1024,-2.2578,-2.2159,-2.2221,-2.2146,-2.1237,-2.0619,-2.0054,-1.9389,-1.9255,-1.957,-2.062,-2.1285,-2.2273,-2.4116,-2.5626,-2.7687,-3.0958,-3.3078,-3.463,-3.553,-3.6808,-3.7595,-3.7595,-3.7595,-3.7595,-3.7595,-3.7649,-3.7685,-3.7703,-3.781,-3.7881,-3.7899,-3.7899,-3.7969,-3.8158,-3.8054,-3.8054,-3.8158,-3.791,-3.7873,-3.7959,-3.7976,-3.7993,-3.7993,-3.8011,0.0,-3.8009,-3.7883,-3.7846,-3.7846,-3.7846,-3.7919,-3.7991,-3.7756,-3.7883,-3.8209,-3.8209,-3.8209,-3.8191,-3.8064,-3.7015,-3.5768,-3.5641,-3.4588,-3.3393,-3.3393,-3.3393,-3.3393,-3.3393,-3.3393,-3.3393,-3.3393,-3.3657,-3.3934,-3.4061,-3.4397,-3.4737,-3.4798,-3.4859,-3.4889,-3.487,-3.4311,-3.3837,-3.3714,-3.2387,-3.1336,-3.1223,-3.0446,-2.9897,-2.9897,-2.9948,-2.9999,-3.0007,-3.0038,-3.0091,-3.019,-3.0132,-3.0161,-3.0279,-2.95,-2.9084,-2.9085,-2.9195,-2.9214,-2.9181,-2.849,-2.8172,-2.8208,-2.8346,-2.8795,-2.0715,-2.1758,-2.2062,-2.0047,-2.0486,-2.1189,-2.0365,-2.0586,-2.0924,-2.0855,-2.0847,-2.1511,-2.3681,-2.3674,-2.4296,-2.7207,-2.8447,-3.014,-3.3257,-3.3994,-3.4731,-3.6094,-3.7041,-3.7595,-3.7595,-3.7595,-3.7595,-3.7595,-3.7613,-3.7649,-3.7703,-3.7721,-3.7775,-3.7917,-3.7899,-3.7899,-3.7934,-3.7934,-3.7934,-3.7934,-3.7233,-3.6909,-3.6926,-3.6991,-3.7006,-3.7006,0.0,-3.7176,-3.714,-3.6453,-3.6166,-3.6166,-3.6166,-3.658,-3.7013,-3.5657,-3.6453,-3.8209,-3.8209,-3.8209,-3.81,-3.7412,-3.6562,-3.5659,-3.4989,-3.4154,-3.3393,-3.3393,-3.3393,-3.3393,-3.3393,-3.3393,-3.3393,-3.3393,-3.3452,-3.3591,-3.3934,-3.4161,-3.4328,-3.4461,-3.4708,-3.4839,-3.4687,-3.4685,-3.4481,-3.3799,-3.2861,-3.1962,-3.128,-3.0446,-2.9897,-2.9897,-2.9905,-2.994,-3.0007,-2.9956,-2.998,-3.011,-3.0102,-3.0135,-3.0215,-3.003,-2.9625,-2.9025,-2.8991,-2.8711,-2.8218,-2.8085,-2.8084,-2.8218,-2.8965,-2.9379,-1.9894,-2.0613,-2.0986,-2.035,-2.1683,-2.2923,-2.2086,-2.2153,-2.241,-2.2439,-2.2439,-2.2914,-2.4461,-2.4784,-2.5732,-2.8488,-2.998,-3.1428,-3.3281,-3.4302,-3.5107,-3.5789,-3.6506,-3.6774,-3.6345,-3.6292,-3.6292,-3.6292,-3.6292,-3.6327,-3.6345,-3.6345,-3.638,-3.6432,-3.6432,-3.6432,-3.6432,-3.6432,-3.6717,-3.7252,-3.6841,-3.6428,-3.6064,-3.6095,-3.6094,-3.6094,0.0,-3.6196,-3.6159,-3.5782,-3.5688,-3.5738,-3.5738,-3.5987,-3.6254,-3.553,-3.6508,-3.8136,-3.7701,-3.7846,-3.8136,-3.7774,-3.6816,-3.5731,-3.5351,-3.4389,-3.3393,-3.3393,-3.3393,-3.3393,-3.3393,-3.3393,-3.3393,-3.3393,-3.3495,-3.3629,-3.3934,-3.4074,-3.4197,-3.4381,-3.4473,-3.4528,-3.4539,-3.4655,-3.4646,-3.4396,-3.3639,-3.2975,-3.2596,-3.1412,-3.0598,-3.0598,-3.0181,-2.9905,-2.9948,-2.9924,-2.9932,-2.9999,-3.003,-3.0034,-3.0045,-3.0034,-2.9893,-2.9555,-2.9576,-2.9498,-2.9303,-2.933,-2.9427,-2.956,-2.9964,-3.0147,-1.948,-1.9883,-2.0453,-2.1256,-2.2715,-2.3949,-2.4016,-2.3915,-2.3933,-2.4486,-2.4593,-2.4789,-2.5396,-2.6282,-2.7567,-2.9619,-3.1124,-3.2335,-3.3142,-3.4321,-3.5162,-3.5341,-3.5809,-3.5882,-3.5275,-3.5186,-3.5186,-3.5186,-3.5186,-3.5186,-3.5186,-3.5186,-3.5186,-3.5186,-3.5186,-3.5186,-3.5186,-3.5186,-3.5593,-3.6357,-3.6109,-3.5714,-3.5169,-3.5186,-3.5202,-3.5202,-3.5218,-3.5218,-3.52,-3.502,-3.4999,-3.5097,-3.513,-3.5178,-3.5297,-3.5874,-3.6743,-3.7576,-3.7158,-3.7538,-3.8154,-3.7757,-3.6924,-3.6055,-3.5858,-3.4935,-3.3918,-3.3737,-3.3683,-3.3647,-3.3447,-3.3393,-3.3393,-3.3393,-3.3524,-3.3684,-3.3881,-3.3985,-3.4074,-3.4209,-3.4209,-3.4221,-3.4374,-3.4495,-3.4655,-3.4868,-3.4216,-3.3638,-3.343,-3.2122,-3.1109,-3.092,-3.0294,-2.9897,-2.9897,-2.9897,-2.9897,-2.9897,-2.9948,-2.9956,-2.9897,-2.9948,-2.9972,-2.9972,-3.0082,-3.0196,-3.0321,-3.0402,-3.0519,-3.0645,-3.0694,-3.0698,-2.0849,-2.1031,-2.1197,-2.2011,-2.1796,-2.2125,-2.498,-2.5105,-2.5217,-2.7411,-2.7857,-2.7892,-2.7946,-2.9159,-3.0475,-3.1367,-3.2257,-3.3096,-3.3901,-3.4115,-3.4454,-3.5132,-3.5257,-3.5258,-3.5204,-3.5186,-3.5186,-3.5186,-3.5186,-3.5186,-3.5186,-3.5186,-3.5186,-3.5186,-3.5186,-3.5186,-3.5186,-3.5186,-3.5239,-3.531,-3.4597,-3.424,-3.4203,-3.4266,-3.4279,-3.4297,-3.4361,-3.4377,-3.4323,-3.3568,-3.3281,-3.3296,-3.3424,-3.35,-3.3846,-3.6089,-3.6508,-3.6057,-3.6759,-3.7538,-3.7938,-3.6472,-3.6399,-3.6777,-3.6021,-3.5713,-3.546,-3.4718,-3.4516,-3.4353,-3.3592,-3.3393,-3.3393,-3.3393,-3.3408,-3.3481,-3.3671,-3.378,-3.382,-3.3766,-3.3947,-3.4111,-3.4124,-3.434,-3.4602,-3.4858,-3.4216,-3.3411,-3.2596,-3.1734,-3.0882,-3.0086,-2.9934,-2.9897,-2.9897,-2.9897,-2.9897,-2.9897,-2.9897,-2.9916,-2.9897,-2.9897,-2.9916,-2.9916,-2.9913,-2.9988,-3.0129,-3.0253,-3.0372,-3.0515,-3.0638,-3.0694,-1.9694,-2.0424,-2.1286,-2.21,-2.2446,-2.3148,-2.5319,-2.6359,-2.7393,-2.9248,-2.9622,-2.9622,-2.9622,-3.0104,-3.0761,-3.1564,-3.1956,-3.2599,-3.3919,-3.4115,-3.4188,-3.449,-3.4526,-3.4329,-3.3812,-3.3758,-3.3758,-3.3758,-3.3758,-3.3758,-3.3758,-3.3758,-3.3758,-3.3758,-3.3758,-3.3758,-3.3758,-3.3758,-3.3758,-3.3758,-3.399,-3.3847,-3.3364,-3.3378,-3.3377,-3.3393,-3.3426,-3.3442,-3.3424,-3.3086,-3.3011,-3.3042,-3.3135,-3.355,-3.4132,-3.4548,-3.5175,-3.5768,-3.5584,-3.6037,-3.6616,-3.5985,-3.5953,-3.6083,-3.586,-3.5392,-3.4891,-3.4648,-3.4244,-3.3791,-3.3484,-3.3393,-3.3393,-3.3393,-3.3393,-3.3452,-3.3675,-3.3633,-3.3577,-3.3671,-3.3671,-3.3739,-3.3998,-3.4185,-3.442,-3.4778,-3.4614,-3.4339,-3.3998,-3.2785,-3.181,-3.1488,-3.0522,-2.9897,-2.9897,-2.9897,-2.9897,-2.9897,-2.9897,-2.9897,-2.9897,-2.9897,-2.9897,-2.9897,-2.9897,-2.9969,-3.0111,-3.0148,-3.0266,-3.0446,-3.0487,-3.0565,-1.895,-1.962,-2.0626,-2.1661,-2.2535,-2.3719,-2.602,-2.7411,-2.8784,-3.0832,-3.085,-3.0672,-3.1171,-3.0654,-3.0582,-3.1867,-3.1867,-3.217,-3.3526,-3.3723,-3.3723,-3.3723,-3.3723,-3.3491,-3.2953,-3.29,-3.29,-3.29,-3.29,-3.29,-3.29,-3.29,-3.29,-3.29,-3.29,-3.29,-3.29,-3.29,-3.29,-3.29,-3.3455,-3.3419,-3.29,-3.29,-3.29,-3.29,-3.29,-3.29,-3.29,-3.29,-3.2932,-3.2995,-3.3057,-3.3476,-3.4022,-3.3733,-3.4341,-3.5255,-3.4695,-3.502,-3.5632,-3.511,-3.5241,-3.5551,-3.5383,-3.506,-3.4722,-3.4602,-3.4147,-3.3626,-3.3451,-3.3393,-3.3393,-3.3393,-3.3393,-3.3437,-3.3577,-3.3509,-3.3437,-3.3577,-3.3477,-3.352,-3.3934,-3.4111,-3.4328,-3.4747,-3.4859,-3.4813,-3.4548,-3.3524,-3.2615,-3.2075,-3.0749,-2.9897,-2.9897,-2.9897,-2.9897,-2.9897,-2.9897,-2.9897,-2.9897,-2.9897,-2.9897,-2.9897,-2.9897,-2.9956,-3.0049,-3.0087,-3.0168,-3.031,-3.0373,-3.0447,-1.9021,-1.8815,-1.9207,-2.0733,-2.1732,-2.3374,-2.7304,-2.8213,-2.9087,-3.2239,-3.1617,-3.1011,-3.2579,-3.0957,-3.0154,-3.2507,-3.2222,-3.1972,-3.2775,-3.29,-3.29,-3.29,-3.29,-3.29,-3.29,-3.29,-3.29,-3.29,-3.29,-3.29,-3.29,-3.29,-3.29,-3.29,-3.29,-3.29,-3.29,-3.29,-3.29,-3.29,-3.29,-3.29,-3.29,-3.29,-3.29,-3.29,-3.29,-3.29,-3.29,-3.29,-3.2932,-3.2995,-3.2995,-3.3042,-3.3209,-3.4,-3.4287,-3.4287,-3.4287,-3.4807,-3.52,-3.362,-3.4177,-3.5344,-3.4555,-3.486,-3.5343,-3.4684,-3.4402,-3.4139,-3.3548,-3.3393,-3.3393,-3.3393,-3.3393,-3.3393,-3.3393,-3.3393,-3.3393,-3.3393,-3.3393,-3.352,-3.3934,-3.4111,-3.4328,-3.4747,-3.4859,-3.4605,-3.3809,-3.3695,-3.3051,-3.1374,-3.0427,-2.9897,-2.9897,-2.9897,-2.9897,-2.9897,-2.9897,-2.9897,-2.9897,-2.9897,-2.9897,-2.9897,-2.9897,-2.9897,-2.9897,-3.0023,-3.0101,-3.0109,-3.0304,-3.0392,-1.8887,-2.0002,-2.1358,-2.1832,-2.4212,-2.6751,-2.7928,-2.8641,-2.9619,-3.1635,-3.1671,-3.1314,-3.1225,-3.0225,-2.9797,-3.1011,-3.1011,-3.1135,-3.1938,-3.2543,-3.29,-3.29,-3.29,-3.29,-3.29,-3.29,-3.29,-3.29,-3.29,-3.29,-3.29,-3.29,-3.29,-3.29,-3.29,-3.29,-3.29,-3.29,-3.29,-3.29,-3.29,-3.29,-3.29,-3.29,-3.29,-3.29,-3.29,-3.29,-3.29,-3.29,-3.2916,-3.2932,-3.2932,-3.2963,-3.3062,-3.3295,-3.3432,-3.3461,-3.3461,-3.3604,-3.373,-3.3263,-3.3771,-3.4546,-3.4361,-3.4435,-3.4546,-3.4393,-3.3908,-3.3422,-3.3234,-3.3259,-3.3337,-3.3396,-3.3393,-3.3396,-3.3337,-3.3367,-3.3396,-3.3337,-3.3367,-3.352,-3.3934,-3.4111,-3.4328,-3.4747,-3.4859,-3.4605,-3.3809,-3.3164,-3.2387,-3.1299,-3.0427,-2.9897,-2.9897,-2.9897,-2.9897,-2.9897,-2.9897,-2.9897,-2.9897,-2.9897,-2.9897,-2.9897,-2.9897,-2.9897,-2.9897,-2.9937,-3.0019,-3.0101,-3.0154,-3.0247,-1.9119,-2.0519,-2.2054,-2.2999,-2.5515,-2.7977,-2.8891,-2.948,-3.0101,-3.1028,-3.0993,-3.0725,-3.0547,-2.964,-2.928,-3.0332,-3.0246,-3.0332,-3.1118,-3.1936,-3.2311,-3.1974,-3.2507,-3.2775,-3.2454,-3.2418,-3.2418,-3.2418,-3.2418,-3.2418,-3.2418,-3.2721,-3.29,-3.29,-3.29,-3.29,-3.29,-3.29,-3.29,-3.29,-3.29,-3.29,-3.29,-3.29,-3.29,-3.29,-3.29,-3.29,-3.29,-3.29,-3.29,-3.29,-3.29,-3.2916,-3.2963,-3.2963,-3.2995,-3.3008,-3.3008,-3.3008,-3.3008,-3.3008,-3.3317,-3.3679,-3.3743,-3.3727,-3.3695,-3.3759,-3.3416,-3.3024,-3.3086,-3.3135,-3.3201,-3.3256,-3.3319,-3.3319,-3.3229,-3.3289,-3.3352,-3.331,-3.3352,-3.3491,-3.3834,-3.4036,-3.4281,-3.4634,-3.4801,-3.4718,-3.4245,-3.3449,-3.2596,-3.1772,-3.092,-3.0276,-2.9934,-2.9897,-2.9897,-2.9897,-2.9897,-2.9897,-2.9897,-2.9897,-2.9897,-2.9897,-2.9897,-2.9897,-2.9897,-2.9897,-2.9937,-3.0015,-3.0079,-3.0138,-1.9583,-2.059,-2.1768,-2.4123,-2.5961,-2.7781,-3.0011,-3.0443,-3.0404,-3.0404,-2.9854,-2.9554,-3.0175,-2.9126,-2.8645,-3.005,-2.9783,-2.9637,-3.0315,-3.1082,-3.1314,-3.0585,-3.1778,-3.24,-3.1653,-3.1653,-3.1689,-3.1689,-3.176,-3.1778,-3.1689,-3.24,-3.2793,-3.2793,-3.2793,-3.2829,-3.29,-3.29,-3.29,-3.29,-3.29,-3.29,-3.29,-3.29,-3.29,-3.29,-3.29,-3.29,-3.29,-3.29,-3.29,-3.29,-3.29,-3.29,-3.29,-3.29,-3.29,-3.29,-3.29,-3.29,-3.29,-3.29,-3.29,-3.29,-3.29,-3.29,-3.2916,-3.2963,-3.2948,-3.2932,-3.3055,-3.3042,-3.3011,-3.3055,-3.3165,-3.3247,-3.3119,-3.3198,-3.3277,-3.3262,-3.3337,-3.3452,-3.3675,-3.3895,-3.4173,-3.4473,-3.4722,-3.4908,-3.4908,-3.4207,-3.3373,-3.2492,-3.1678,-3.0844,-2.9972,-2.9897,-2.9897,-2.9897,-2.9897,-2.9897,-2.9897,-2.9897,-2.9897,-2.9897,-2.9897,-2.9897,-2.9897,-2.9897,-2.9897,-2.9897,-3.0034,-3.0087,-1.9565,-2.1001,-2.2475,-2.4248,-2.6817,-2.9173,-3.0246,-3.005,-2.9637,-2.9637,-2.9375,-2.9053,-2.8682,-2.8298,-2.8177,-2.8557,-2.9059,-2.9458,-2.9619,-3.0279,-3.0689,-3.0514,-3.0814,-3.0957,-3.0779,-3.1332,-3.1689,-3.1689,-3.2293,-3.2382,-3.1724,-3.1849,-3.1956,-3.1956,-3.1956,-3.2257,-3.2882,-3.29,-3.29,-3.29,-3.29,-3.29,-3.29,-3.29,-3.29,-3.29,-3.29,-3.29,-3.29,-3.29,-3.29,-3.29,-3.29,-3.29,-3.29,-3.29,-3.29,-3.29,-3.29,-3.29,-3.29,-3.29,-3.29,-3.29,-3.29,-3.29,-3.29,-3.2916,-3.2916,-3.2916,-3.2948,-3.2963,-3.2979,-3.2948,-3.3057,-3.3119,-3.3042,-3.3088,-3.3135,-3.3057,-3.3198,-3.3396,-3.3591,-3.3766,-3.4023,-3.4506,-3.4749,-3.4907,-3.4908,-3.4207,-3.3373,-3.2492,-3.1678,-3.0844,-2.9972,-2.9897,-2.9897,-2.9897,-2.9897,-2.9897,-2.9897,-2.9897,-2.9897,-2.9897,-2.9897,-2.9897,-2.9897,-2.9897,-2.9897,-2.9897,-2.9921,-2.9937,-1.9448,-2.1136,-2.2957,-2.5693,-2.7906,-2.9601,-3.0332,-3.0208,-2.9911,-2.984,-2.9192,-2.8613,-2.8534,-2.8262,-2.8071,-2.8099,-2.851,-2.882,-2.882,-2.948,-2.9833,-2.9444,-3.0404,-3.0921,-3.0532,-3.1225,-3.1689,-3.1689,-3.1985,-3.204,-3.1662,-3.1969,-3.1987,-3.1662,-3.1673,-3.1706,-3.1742,-3.1742,-3.1938,-3.2329,-3.2329,-3.2525,-3.29,-3.29,-3.29,-3.29,-3.29,-3.29,-3.29,-3.29,-3.29,-3.29,-3.29,-3.29,-3.29,-3.29,-3.29,-3.29,-3.29,-3.29,-3.29,-3.29,-3.29,-3.29,-3.29,-3.29,-3.29,-3.29,-3.29,-3.29,-3.29,-3.2932,-3.2948,-3.2916,-3.2979,-3.3042,-3.2963,-3.3011,-3.3042,-3.3013,-3.3122,-3.3244,-3.3342,-3.3526,-3.3837,-3.4328,-3.4531,-3.4628,-3.466,-3.4323,-3.3598,-3.2297,-3.1788,-3.1073,-2.9902,-2.9808,-2.9798,-2.9805,-2.9806,-2.9798,-2.9805,-2.9806,-2.9832,-2.9897,-2.9897,-2.9897,-2.9897,-2.9897,-2.9897,-2.9897,-2.9897,-2.9897,-1.8967,-2.0922,-2.3225,-2.7036,-2.8588,-2.9387,-3.0139,-3.0315,-3.0309,-3.0287,-2.9278,-2.8588,-2.9059,-2.862,-2.8223,-2.8252,-2.8215,-2.82,-2.8196,-2.8766,-2.8945,-2.8285,-3.0047,-3.1046,-3.0368,-3.1153,-3.1689,-3.1689,-3.1673,-3.1645,-3.16,-3.214,-3.2159,-3.1618,-3.1517,-3.1242,-3.0725,-3.0582,-3.0832,-3.1492,-3.1617,-3.2117,-3.29,-3.29,-3.29,-3.29,-3.29,-3.29,-3.29,-3.29,-3.29,-3.29,-3.29,-3.29,-3.29,-3.29,-3.29,-3.29,-3.29,-3.29,-3.29,-3.29,-3.29,-3.29,-3.29,-3.29,-3.29,-3.29,-3.29,-3.29,-3.29,-3.29,-3.29,-3.29,-3.2932,-3.2963,-3.2916,-3.2948,-3.2979,-3.2979,-3.3042,-3.3086,-3.3101,-3.3321,-3.363,-3.4018,-3.4153,-3.423,-3.4309,-3.4356,-3.3751,-3.2005,-3.1837,-3.1227,-2.9767,-2.9645,-2.9655,-2.969,-2.9692,-2.971,-2.969,-2.9692,-2.9756,-2.9866,-2.9874,-2.9864,-2.9872,-2.988,-2.9907,-2.9897,-2.9897,-2.9897,-1.7476,-2.0065,-2.3082,-2.6349,-2.7781,-2.857,-2.9369,-2.9547,-2.9671,-3.0119,-2.9957,-2.9755,-2.9783,-2.9136,-2.8673,-2.8843,-2.8457,-2.8126,-2.8182,-2.8285,-2.832,-2.8213,-2.9101,-2.9672,-2.9565,-3.085,-3.1689,-3.1689,-3.227,-3.2328,-3.1635,-3.1673,-3.1691,-3.16,-3.0983,-3.0939,-3.1528,-3.085,-3.0564,-3.0672,-3.1367,-3.2117,-3.29,-3.29,-3.29,-3.29,-3.29,-3.29,-3.29,-3.29,-3.29,-3.29,-3.29,-3.29,-3.29,-3.29,-3.29,-3.29,-3.29,-3.29,-3.29,-3.29,-3.29,-3.29,-3.29,-3.29,-3.29,-3.29,-3.29,-3.29,-3.29,-3.29,-3.29,-3.29,-3.29,-3.2916,-3.29,-3.29,-3.2916,-3.2916,-3.2963,-3.3026,-3.3086,-3.3313,-3.353,-3.357,-3.3755,-3.388,-3.3962,-3.3975,-3.3358,-3.173,-3.1545,-3.0984,-2.9553,-2.9443,-2.9502,-2.9692,-2.9692,-2.9711,-2.9701,-2.9692,-2.972,-2.9719,-2.9727,-2.9753,-2.9806,-2.9868,-2.9901,-2.9897,-2.9897,-2.9897,-1.828,-2.0583,-2.285,-2.514,-2.6639,-2.7745,-2.8534,-2.9069,-2.9532,-3.0004,-3.005,-2.9846,-2.9382,-2.8664,-2.8213,-2.8409,-2.8241,-2.8126,-2.8182,-2.8196,-2.8196,-2.8196,-2.8909,-2.9565,-2.9976,-3.1046,-3.1885,-3.2347,-3.2576,-3.258,-3.2291,-3.2191,-3.1996,-3.1618,-3.1321,-3.1135,-3.1028,-3.0279,-2.9886,-2.9886,-3.0672,-3.1457,-3.2239,-3.2239,-3.2472,-3.29,-3.29,-3.29,-3.29,-3.29,-3.29,-3.29,-3.29,-3.29,-3.29,-3.29,-3.29,-3.29,-3.29,-3.29,-3.29,-3.29,-3.29,-3.29,-3.29,-3.29,-3.29,-3.29,-3.29,-3.29,-3.29,-3.29,-3.29,-3.29,-3.29,-3.29,-3.29,-3.29,-3.29,-3.29,-3.2916,-3.2948,-3.2995,-3.3088,-3.3208,-3.3302,-3.3429,-3.3542,-3.3606,-3.3648,-3.3204,-3.1981,-3.1469,-3.082,-2.9809,-2.9437,-2.9267,-2.9363,-2.9471,-2.953,-2.9531,-2.953,-2.952,-2.952,-2.9645,-2.9726,-2.9808,-2.9878,-2.9901,-2.9897,-2.9897,-2.9897,-1.8289,-1.9912,-2.1279,-2.3285,-2.4962,-2.6318,-2.7125,-2.8057,-2.8813,-2.9094,-2.9265,-2.9168,-2.8582,-2.8174,-2.7999,-2.8197,-2.8138,-2.8099,-2.8182,-2.8196,-2.8196,-2.8196,-2.8909,-2.969,-3.0425,-3.1225,-3.2028,-3.2829,-3.2755,-3.269,-3.2789,-3.2706,-3.2423,-3.192,-3.1571,-3.1207,-3.0814,-2.9869,-2.9405,-2.9405,-2.9958,-3.0636,-3.1403,-3.1599,-3.1936,-3.2311,-3.2507,-3.2596,-3.2596,-3.2596,-3.2721,-3.29,-3.29,-3.29,-3.29,-3.29,-3.29,-3.29,-3.29,-3.29,-3.29,-3.29,-3.29,-3.29,-3.29,-3.29,-3.29,-3.29,-3.29,-3.29,-3.29,-3.29,-3.29,-3.29,-3.29,-3.29,-3.29,-3.29,-3.29,-3.29,-3.29,-3.29,-3.29,-3.29,-3.2945,-3.3099,-3.3175,-3.322,-3.3274,-3.3334,-3.3008,-3.209,-3.1315,-3.0627,-2.9971,-2.9314,-2.898,-2.9016,-2.9203,-2.9326,-2.932,-2.9378,-2.9396,-2.9396,-2.9551,-2.9654,-2.9718,-2.9818,-2.9859,-2.9864,-2.9891,-2.9907,-1.5951,-1.6647,-1.7432,-2.0519,-2.2489,-2.3898,-2.4712,-2.5948,-2.6928,-2.687,-2.7277,-2.7616,-2.7581,-2.8105,-2.8621,-2.8827,-2.8376,-2.8056,-2.8168,-2.8196,-2.8196,-2.8196,-2.8909,-2.969,-3.0425,-3.1225,-3.2028,-3.2829,-3.2838,-3.2789,-3.2807,-3.2789,-3.2771,-3.2736,-3.1321,-3.0921,-3.1617,-3.0154,-2.9405,-2.9405,-2.944,-2.9851,-3.0585,-3.135,-3.1314,-3.0672,-3.1421,-3.176,-3.176,-3.176,-3.2222,-3.29,-3.29,-3.29,-3.29,-3.29,-3.29,-3.29,-3.29,-3.29,-3.29,-3.29,-3.29,-3.29,-3.29,-3.29,-3.29,-3.29,-3.29,-3.29,-3.29,-3.29,-3.29,-3.29,-3.29,-3.29,-3.29,-3.29,-3.29,-3.29,-3.29,-3.29,-3.29,-3.29,-3.29,-3.2916,-3.2916,-3.2932,-3.2932,-3.2932,-3.2628,-3.1809,-3.099,-3.0309,-2.9773,-2.8987,-2.8619,-2.8797,-2.8991,-2.9119,-2.913,-2.9294,-2.9396,-2.9396,-2.9411,-2.9453,-2.9512,-2.9655,-2.9747,-2.9816,-2.9859,-2.9901,-1.5327,-1.6041,-1.679,-1.844,-2.0815,-2.2803,-2.3088,-2.4668,-2.6189,-2.6563,-2.6723,-2.6907,-2.7303,-2.7615,-2.7898,-2.811,-2.7983,-2.7922,-2.8112,-2.8168,-2.8196,-2.8196,-2.8445,-2.8927,-2.9726,-3.0047,-3.0547,-3.1296,-3.1816,-3.1872,-3.1357,-3.1803,-3.1856,-3.1339,-3.0799,-3.0654,-3.0939,-3.0386,-3.0118,-3.0101,-2.9637,-2.9797,-3.0478,-3.0315,-3.0065,-2.9815,-3.0101,-3.0493,-3.0975,-3.1492,-3.1867,-3.2186,-3.2704,-3.29,-3.29,-3.29,-3.29,-3.29,-3.29,-3.29,-3.29,-3.29,-3.29,-3.29,-3.29,-3.29,-3.29,-3.29,-3.29,-3.29,-3.29,-3.29,-3.29,-3.29,-3.29,-3.29,-3.29,-3.29,-3.29,-3.29,-3.29,-3.29,-3.29,-3.29,-3.29,-3.29,-3.29,-3.29,-3.29,-3.29,-3.2793,-3.2507,-3.1742,-3.0987,-3.027,-2.9638,-2.9091,-2.8643,-2.8803,-2.8975,-2.9089,-2.9175,-2.9262,-2.9396,-2.9265,-2.9299,-2.9502,-2.9579,-2.9664,-2.9738,-2.9754,-2.9798,-1.4356,-1.4856,-1.5533,-1.6869,-1.8752,-2.0479,-2.128,-2.297,-2.4571,-2.5224,-2.5662,-2.6123,-2.6778,-2.6916,-2.7126,-2.7592,-2.7672,-2.7774,-2.8071,-2.8154,-2.8196,-2.8196,-2.8196,-2.8517,-2.9333,-2.9405,-2.9708,-3.044,-3.0902,-3.0927,-3.0457,-3.0825,-3.0738,-3.0048,-3.0309,-3.0232,-2.9729,-3.0229,-3.0386,-3.0104,-2.9637,-2.9672,-3.0118,-2.9619,-2.9262,-2.8998,-2.928,-2.969,-3.0172,-3.0707,-3.1225,-3.1742,-3.2293,-3.2668,-3.29,-3.29,-3.29,-3.29,-3.29,-3.29,-3.29,-3.29,-3.29,-3.29,-3.29,-3.29,-3.29,-3.29,-3.29,-3.29,-3.29,-3.29,-3.29,-3.29,-3.29,-3.29,-3.29,-3.29,-3.29,-3.29,-3.29,-3.29,-3.29,-3.29,-3.29,-3.29,-3.29,-3.29,-3.29,-3.29,-3.29,-3.29,-3.2186,-3.1367,-3.0582,-2.9944,-2.9269,-2.846,-2.8582,-2.8767,-2.8893,-2.8957,-2.9067,-2.9189,-2.9067,-2.9082,-2.9259,-2.9382,-2.9492,-2.9636,-2.9673,-2.97,0.0,0.0,0.0,-1.5702,-1.6262,-1.6852,-1.9145,-2.0703,-2.1892,-2.2685,-2.395,-2.5143,-2.5921,-2.6059,-2.6394,-2.74,-2.7457,-2.7547,-2.7996,-2.8126,-2.8168,-2.8168,-2.8168,-2.8485,-2.9266,-2.9355,-2.964,-3.0371,-3.0137,-3.0011,-3.0185,-2.9899,-2.9516,-2.9071,-2.9884,-2.9653,-2.8249,-2.9711,-3.0104,-2.9426,-2.9394,-2.9376,-2.9376,-2.9358,-2.8913,-2.8204,-2.9002,-2.934,-2.934,-2.9373,-3.0297,-3.1671,-3.1689,-3.2186,-3.29,-3.29,-3.29,-3.29,-3.29,-3.29,-3.29,-3.29,-3.29,-3.29,-3.29,-3.29,-3.29,-3.29,-3.29,-3.29,-3.29,-3.29,-3.29,-3.29,-3.29,-3.29,-3.29,-3.29,-3.29,-3.29,-3.29,-3.29,-3.29,-3.29,-3.29,-3.29,-3.29,-3.29,-3.29,-3.29,-3.2882,-3.2864,-3.2168,-3.1367,-3.0582,-2.9833,-2.9084,-2.8285,-2.8398,-2.8479,-2.8492,-2.8694,-2.8785,-2.8797,-2.8785,-2.8785,-2.8797,-2.9012,-2.9241,-2.9482,-2.955,-2.9626,-1.2899,0.0,0.0,0.0,0.0,0.0,-1.6302,-1.7474,-1.904,-2.1344,-2.2199,-2.3068,-2.4758,-2.5088,-2.5358,-2.6232,-2.6864,-2.7258,-2.7224,-2.7367,-2.7476,-2.7476,-2.7642,-2.7862,-2.815,-2.8123,-2.8194,-2.845,-2.8605,-2.8466,-2.7944,-2.783,-2.7807,-2.7879,-2.824,-2.8629,-2.8995,-2.9225,-2.9506,-2.9825,-2.9063,-2.869,-2.8657,-2.8066,-2.7685,-2.7494,-2.7703,-2.7823,-2.7888,-2.895,-2.9976,-3.0886,-3.1474,-3.2186,-3.29,-3.29,-3.29,-3.29,-3.29,-3.29,-3.29,-3.29,-3.29,-3.29,-3.29,-3.29,-3.29,-3.29,-3.29,-3.29,-3.29,-3.29,-3.29,-3.29,-3.29,-3.29,-3.29,-3.29,-3.29,-3.29,-3.29,-3.29,-3.29,-3.29,-3.29,-3.29,-3.29,-3.29,-3.29,-3.29,-3.2686,-3.2097,-3.1831,-3.1367,-3.0582,-2.9833,-2.9315,-2.9069,-2.8572,-2.834,-2.8479,-2.8556,-2.8657,-2.8803,-2.8657,-2.8657,-2.8797,-2.8857,-2.8996,-2.9222,-2.9441,-2.9521,-1.3583,-1.4,-1.4453,-1.381,0.0,0.0,-1.573,-1.6449,-1.7537,-1.9841,-2.0619,-2.1437,-2.3291,-2.3633,-2.399,-2.4946,-2.5856,-2.6549,-2.6853,-2.7035,-2.7148,-2.7197,-2.7338,-2.7428,-2.7411,-2.7428,-2.7413,-2.7365,-2.7429,-2.7249,-2.6691,-2.6807,-2.6971,-2.7147,-2.7336,-2.7746,-2.8433,-2.8594,-2.8916,-2.9318,-2.8689,-2.84,-2.8366,-2.7558,-2.7197,-2.7197,-2.7197,-2.7197,-2.7263,-2.8135,-2.9026,-2.9923,-3.081,-3.1673,-3.2436,-3.2775,-3.29,-3.29,-3.29,-3.29,-3.29,-3.29,-3.29,-3.29,-3.29,-3.29,-3.29,-3.29,-3.29,-3.29,-3.29,-3.29,-3.29,-3.29,-3.29,-3.29,-3.29,-3.29,-3.29,-3.29,-3.29,-3.29,-3.29,-3.29,-3.29,-3.29,-3.29,-3.29,-3.29,-3.29,-3.2596,-3.1778,-3.1689,-3.1242,-3.0136,-2.9654,-2.9262,-2.8909,-2.8463,-2.825,-2.8367,-2.838,-2.8432,-2.8543,-2.8427,-2.8432,-2.8543,-2.8644,-2.8779,-2.8987,-2.9214,-2.931,-1.4713,-1.4881,-1.5541,-1.6023,-1.5037,0.0,-1.6127,-1.6417,-1.6746,-1.8121,-1.8951,-1.9866,-2.1331,-2.172,-2.2214,-2.3333,-2.4362,-2.5412,-2.6519,-2.6804,-2.6971,-2.7069,-2.7117,-2.7084,-2.6986,-2.7051,-2.7036,-2.6872,-2.6573,-2.6333,-2.6152,-2.6435,-2.6657,-2.6741,-2.694,-2.7103,-2.7181,-2.7869,-2.8214,-2.8214,-2.8164,-2.8148,-2.8131,-2.7428,-2.7085,-2.7085,-2.7085,-2.7085,-2.7085,-2.7117,-2.7804,-2.893,-2.9951,-3.0886,-3.1749,-3.2565,-3.29,-3.29,-3.29,-3.29,-3.29,-3.29,-3.29,-3.29,-3.29,-3.29,-3.29,-3.29,-3.29,-3.29,-3.29,-3.29,-3.29,-3.29,-3.29,-3.29,-3.29,-3.29,-3.29,-3.29,-3.29,-3.29,-3.29,-3.29,-3.29,-3.29,-3.29,-3.29,-3.29,-3.2829,-3.2472,-3.1653,-3.1492,-3.0886,-2.953,-2.9333,-2.9012,-2.8374,-2.8249,-2.8196,-2.8196,-2.8196,-2.8196,-2.8196,-2.8196,-2.8196,-2.8196,-2.8406,-2.8594,-2.8761,-2.8957,-2.9067,-1.5862,-1.6076,-1.5916,-1.482,-1.4968,0.0,-1.3748,-1.4126,-1.4978,-1.581,-1.6238,-1.6861,-1.8222,-1.9111,-1.9824,-2.0438,-2.1723,-2.3278,-2.5045,-2.5912,-2.6381,-2.6399,-2.6589,-2.6742,-2.6758,-2.6641,-2.6573,-2.659,-2.6123,-2.5811,-2.5712,-2.5917,-2.6154,-2.64,-2.6641,-2.6891,-2.7117,-2.706,-2.7029,-2.7029,-2.6756,-2.6633,-2.6617,-2.6465,-2.6399,-2.6399,-2.6399,-2.6399,-2.6416,-2.664,-2.7417,-2.86,-2.9589,-3.0539,-3.1411,-3.2438,-3.2836,-3.29,-3.29,-3.29,-3.29,-3.29,-3.29,-3.29,-3.29,-3.29,-3.29,-3.29,-3.29,-3.29,-3.29,-3.29,-3.29,-3.29,-3.29,-3.29,-3.29,-3.29,-3.29,-3.29,-3.29,-3.29,-3.29,-3.29,-3.29,-3.29,-3.29,-3.29,-3.29,-3.2329,-3.1617,-3.0814,-3.0208,-2.9726,-2.944,-2.8802,-2.8641,-2.9123,-2.8552,-2.8196,-2.8196,-2.8196,-2.8196,-2.8196,-2.8196,-2.8196,-2.8196,-2.8406,-2.8518,-2.8556,-2.8767,-2.8863,-1.7119,-1.729,-1.7406,-1.6639,-1.615,0.0,0.0,-1.4462,-1.4483,-1.5522,-1.553,-1.5766,-1.7143,-1.7831,-1.8379,-1.8958,-2.0345,-2.1691,-2.2678,-2.4067,-2.5025,-2.5093,-2.5213,-2.543,-2.5764,-2.5763,-2.5878,-2.6192,-2.5864,-2.5656,-2.5597,-2.5787,-2.5954,-2.6099,-2.6329,-2.6521,-2.6657,-2.6521,-2.6452,-2.6452,-2.6292,-2.6202,-2.6202,-2.6202,-2.6202,-2.6202,-2.6202,-2.6419,-2.6735,-2.6495,-2.6957,-2.7929,-2.8896,-2.957,-3.0238,-3.1663,-3.2232,-3.2333,-3.253,-3.2606,-3.2606,-3.2573,-3.2571,-3.2639,-3.2787,-3.2868,-3.29,-3.29,-3.29,-3.29,-3.29,-3.29,-3.29,-3.29,-3.29,-3.29,-3.29,-3.29,-3.29,-3.29,-3.29,-3.29,-3.29,-3.29,-3.29,-3.29,-3.2561,-3.2311,-3.2311,-3.1599,-3.0814,-3.0015,-2.9619,-2.9244,-2.8838,-2.8427,-2.8374,-2.8784,-2.8427,-2.8196,-2.8196,-2.8196,-2.8196,-2.8196,-2.8196,-2.8196,-2.8196,-2.8304,-2.834,-2.8353,-2.8556,-2.8657,-1.8619,-1.8753,-1.9136,-1.8672,-1.7547,-1.6507,0.0,0.0,0.0,-1.5605,-1.5321,-1.5294,-1.6589,-1.6903,-1.7152,-1.77,-1.9078,-2.0022,-1.989,-2.1556,-2.2978,-2.3504,-2.3702,-2.3984,-2.4462,-2.4463,-2.4709,-2.5406,-2.5027,-2.495,-2.5373,-2.5575,-2.575,-2.5897,-2.6096,-2.6202,-2.6202,-2.6168,-2.6168,-2.6168,-2.6168,-2.6168,-2.6168,-2.6185,-2.6202,-2.6202,-2.6202,-2.6535,-2.705,-2.6452,-2.6551,-2.7191,-2.8082,-2.8543,-2.8944,-3.0728,-3.1421,-3.1542,-3.202,-3.2179,-3.2197,-3.2197,-3.2283,-3.2455,-3.2722,-3.287,-3.29,-3.29,-3.29,-3.29,-3.29,-3.29,-3.29,-3.29,-3.29,-3.29,-3.29,-3.29,-3.29,-3.29,-3.29,-3.29,-3.29,-3.29,-3.29,-3.29,-3.2222,-3.1689,-3.1689,-3.0868,-3.0065,-2.9458,-2.9262,-2.8923,-2.8267,-2.8196,-2.8196,-2.8196,-2.8196,-2.8196,-2.8196,-2.8196,-2.8196,-2.8196,-2.8196,-2.8196,-2.8196,-2.8196,-2.8196,-2.8196,-2.8367,-2.8427,-2.0761,-2.0769,-2.0341,-1.8262,-1.8327,-1.8052,-1.4736,0.0,-1.5033,-1.4539,0.0,-1.4459,-1.5282,0.0,0.0,-1.5556,-1.686,-1.7647,-1.6984,-1.8158,-1.9846,-2.1814,-2.2626,-2.3056,-2.3123,-2.2452,-2.2523,-2.3764,-2.2573,-2.262,-2.4515,-2.4826,-2.5209,-2.5864,-2.6096,-2.6202,-2.6202,-2.6079,-2.6026,-2.6026,-2.6026,-2.6026,-2.6026,-2.615,-2.6202,-2.6202,-2.6202,-2.6252,-2.6319,-2.6219,-2.6252,-2.6421,-2.7431,-2.7895,-2.8237,-2.9988,-3.0663,-3.082,-3.1528,-3.1786,-3.1822,-3.2109,-3.2438,-3.2756,-3.2852,-3.29,-3.29,-3.29,-3.29,-3.29,-3.29,-3.29,-3.29,-3.29,-3.29,-3.29,-3.29,-3.29,-3.29,-3.29,-3.29,-3.29,-3.29,-3.29,-3.29,-3.29,-3.2222,-3.1689,-3.1689,-3.0422,-2.9494,-2.9405,-2.8748,-2.8303,-2.8213,-2.8196,-2.8196,-2.8196,-2.8196,-2.8196,-2.8196,-2.8196,-2.8196,-2.8196,-2.8196,-2.8196,-2.8196,-2.8196,-2.8196,-2.8196,-2.8223,-2.8237,-2.1345,-2.1108,-2.0659,-1.9286,-1.8391,-1.7326,-1.5329,-1.4763,-1.4702,-1.4818,0.0,0.0,0.0,0.0,0.0,0.0,-1.5801,-1.5972,-1.5222,-1.5625,-1.6817,-1.9044,-1.9575,-2.0254,-2.1497,-2.1613,-2.2179,-2.3554,-2.2183,-2.207,-2.382,-2.443,-2.4876,-2.5187,-2.5739,-2.6041,-2.6041,-2.597,-2.5936,-2.5936,-2.599,-2.5992,-2.5992,-2.615,-2.6202,-2.6202,-2.6202,-2.6452,-2.68,-2.628,-2.6327,-2.6708,-2.6705,-2.6922,-2.7402,-2.9144,-2.9868,-3.0092,-3.1023,-3.1338,-3.1393,-3.1509,-3.1914,-3.2369,-3.2505,-3.269,-3.2854,-3.2884,-3.29,-3.29,-3.29,-3.29,-3.29,-3.29,-3.29,-3.29,-3.29,-3.29,-3.29,-3.29,-3.29,-3.29,-3.29,-3.29,-3.29,-3.29,-3.1813,-3.1011,-3.1011,-2.9672,-2.8695,-2.8695,-2.8392,-2.8196,-2.8196,-2.8196,-2.8196,-2.8196,-2.8196,-2.8196,-2.8196,-2.8196,-2.8196,-2.8196,-2.8196,-2.8196,-2.8196,-2.8196,-2.8196,-2.8196,-2.8196,-2.8196,-2.2034,-2.1715,-2.1231,-1.9858,-1.833,-1.6812,-1.5491,-1.484,-1.4652,-1.5193,-1.5624,0.0,0.0,0.0,-1.5552,-1.5336,0.0,-1.4977,-1.402,-1.4069,-1.4798,-1.6398,-1.7138,-1.8265,-2.0207,-2.0228,-2.0785,-2.2424,-2.0881,-2.0742,-2.2816,-2.368,-2.4285,-2.4676,-2.5484,-2.5897,-2.5897,-2.5862,-2.5844,-2.5844,-2.5883,-2.5937,-2.599,-2.6097,-2.6168,-2.6202,-2.6202,-2.6599,-2.7177,-2.6341,-2.6401,-2.6975,-2.6252,-2.6189,-2.669,-2.82,-2.8952,-2.9344,-3.0302,-3.0816,-3.1081,-3.1083,-3.1452,-3.1932,-3.2179,-3.2455,-3.269,-3.282,-3.2884,-3.29,-3.29,-3.29,-3.29,-3.29,-3.29,-3.29,-3.29,-3.29,-3.29,-3.29,-3.29,-3.29,-3.29,-3.29,-3.29,-3.29,-3.1528,-3.0496,-3.0496,-2.9141,-2.8196,-2.8196,-2.8196,-2.8196,-2.8196,-2.8196,-2.8196,-2.8196,-2.8196,-2.8196,-2.8196,-2.8196,-2.8196,-2.8196,-2.8196,-2.8196,-2.8196,-2.8196,-2.8168,-2.814,-2.8182,-2.8196,-2.3324,-2.323,-2.2475,-1.9333,-1.83,-1.7298,-1.4346,-1.4506,-1.5267,-1.5303,-1.6437,-1.7437,-1.7465,-1.6868,-1.6138,-1.5419,-1.5303,0.0,0.0,-1.3755,-1.4235,-1.4301,-1.621,-1.8066,-1.9502,-1.7671,-1.7276,-1.9463,-1.7488,-1.7724,-2.1288,-2.2183,-2.3209,-2.4643,-2.5484,-2.5897,-2.5897,-2.5772,-2.5719,-2.5719,-2.5719,-2.5791,-2.5915,-2.5956,-2.6079,-2.6202,-2.6202,-2.6545,-2.7064,-2.6305,-2.6365,-2.6847,-2.6159,-2.5954,-2.6127,-2.7015,-2.7817,-2.8531,-2.9221,-3.0136,-3.1015,-3.1064,-3.1319,-3.1694,-3.2074,-3.2249,-3.2369,-3.2707,-3.2854,-3.29,-3.29,-3.29,-3.29,-3.29,-3.29,-3.29,-3.29,-3.29,-3.29,-3.29,-3.29,-3.29,-3.29,-3.29,-3.29,-3.29,-3.1528,-3.0496,-3.0496,-2.9141,-2.8196,-2.8196,-2.8196,-2.8196,-2.8196,-2.8196,-2.8196,-2.8196,-2.8196,-2.8196,-2.8196,-2.8196,-2.8196,-2.8196,-2.8196,-2.8196,-2.8196,-2.8196,-2.8126,-2.8014,-2.814,-2.8196,0.0,0.0,-2.2664,-2.0551,-1.8959,-1.7369,-1.5324,-1.5839,-1.6481,-1.5489,-1.7216,-1.8617,-1.7669,-1.6901,-1.6321,-1.6072,-1.5216,-1.4062,0.0,-1.2174,-1.2389,-1.3358,-1.5431,-1.6768,-1.6757,-1.6898,-1.7494,-1.8687,-1.7954,-1.8413,-2.0619,-2.1826,-2.2881,-2.3872,-2.4588,-2.5208,-2.5694,-2.5656,-2.5621,-2.5621,-2.568,-2.5772,-2.5897,-2.5972,-2.6063,-2.6202,-2.6202,-2.6264,-2.6354,-2.6052,-2.6012,-2.6083,-2.5854,-2.5828,-2.6018,-2.6869,-2.7687,-2.8575,-2.9731,-3.0373,-3.0654,-3.0695,-3.0922,-3.1276,-3.1675,-3.2003,-3.2249,-3.237,-3.2455,-3.2488,-3.2437,-3.2471,-3.2573,-3.2771,-3.287,-3.29,-3.29,-3.29,-3.29,-3.29,-3.29,-3.29,-3.29,-3.29,-3.29,-3.29,-3.1528,-3.0496,-3.0496,-2.9141,-2.8196,-2.8196,-2.8196,-2.8154,-2.8085,-2.8071,-2.8085,-2.8126,-2.8085,-2.8071,-2.8071,-2.7954,-2.7893,-2.7936,-2.8025,-2.8025,-2.7936,-2.8025,-2.7968,-2.7806,-2.785,-2.7893,-2.358,-2.3271,0.0,-2.0999,-1.9596,0.0,-1.6356,-1.6976,-1.7586,-1.6337,-1.7751,-1.9018,-1.8369,-1.7238,-1.6403,-1.6403,-1.5156,-1.3788,0.0,-1.1975,-1.2042,-1.2993,-1.4592,-1.563,-1.569,-1.5769,-1.6462,-1.7967,-1.7195,-1.7658,-1.9915,-2.1063,-2.2216,-2.3447,-2.416,-2.4855,-2.5581,-2.5597,-2.5597,-2.5597,-2.564,-2.5717,-2.5844,-2.5883,-2.5972,-2.6096,-2.6096,-2.6173,-2.626,-2.5961,-2.5917,-2.6019,-2.5759,-2.5735,-2.5893,-2.6498,-2.7418,-2.8575,-2.967,-3.027,-3.0506,-3.0422,-3.0568,-3.0855,-3.1179,-3.1488,-3.1732,-3.1895,-3.1967,-3.2039,-3.2179,-3.2249,-3.2369,-3.2724,-3.2854,-3.29,-3.29,-3.29,-3.29,-3.29,-3.29,-3.29,-3.29,-3.29,-3.29,-3.29,-3.1528,-3.0496,-3.0496,-2.9098,-2.8126,-2.8126,-2.8053,-2.7996,-2.7893,-2.7925,-2.794,-2.7968,-2.794,-2.7925,-2.7879,-2.776,-2.773,-2.7774,-2.785,-2.785,-2.7774,-2.785,-2.7806,-2.7644,-2.7644,-2.7644]},{"header":{"parameterUnit":"m.s-1","parameterCategory":1,"la1":30.6,"la2":29.2853,"lo1":-89.7004,"lo2":-87.6739,"dy":0.0162,"dx":0.0183,"nx":112,"ny":82,"refTime":"2026-03-25T00:00:00:Z","depth":0,"parameterNumber":3,"parameterNumberName":"V-component_of_WINDS"},"data":[0.0,0.0,0.0,0.0,0.0,0.0,0.0,0.0,0.0,0.0,0.0,0.0,0.0,0.0,0.0,0.0,0.0,0.0,0.0,0.0,0.0,0.0,0.0,0.0,0.0,0.0,0.0,0.0,0.0,0.0,0.0,0.0,0.0,0.0,0.0,0.0,0.0,0.0,0.0,0.0,0.0,0.0,0.0,0.0,0.0,0.0,0.0,0.0,0.0,0.0,0.0,0.0,0.0,0.0,0.0,0.0,0.0,0.0,0.0,0.0,0.0,0.0,0.0,0.0,0.0,0.0,0.0,0.0,0.0,0.0,0.0,0.0,0.0,0.0,0.0,0.0,0.0,0.0,0.0,0.0,0.0,0.0,0.0,0.0,0.0,0.0,0.0,0.0,0.0,0.0,-0.0091,-0.0327,-0.0695,-0.1014,-0.1282,-0.1215,-0.1136,-0.099,0.0,0.0,0.0,0.0,0.0,0.0,0.0,0.0,0.0,0.0,0.0,0.0,0.0,0.0,0.0,0.0,0.0,0.0,0.0,0.0,0.0,0.0,0.0,0.0,0.0,0.0,0.0,0.0,0.0,0.0,0.0,0.0,0.0,0.0,0.0,0.0,0.0,0.0,0.0,0.0,0.0,0.0,0.0,0.0,0.0,0.0,0.0,0.0,0.0,0.0,0.0,0.0,0.0,0.0,0.0,0.0,0.0,0.0,0.0,0.0,0.0,0.0,0.0,0.0,0.0,0.0,0.0,0.0,0.0,0.0,0.0,0.0,0.0,0.0,0.0,0.0,0.0,0.0,0.0,0.0,0.0,0.0,0.0,0.0,0.0,0.0,0.0,0.0,0.0,0.0,0.0,0.0,0.0,0.0,0.0,0.0,0.0,0.0,0.0,0.0,0.0,0.0,0.0,0.0,-0.0151,-0.0529,-0.0743,-0.0981,-0.1183,-0.1153,-0.1048,-0.0928,0.0,0.0,0.0,0.0,0.0,0.0,0.0,0.0,0.0,0.0,0.0,0.0,0.0,0.0,0.0,0.0,0.0,0.0,0.0,0.0,0.0,0.0,0.0,0.0,0.0,0.0,0.0,0.0,0.0,0.0,0.0,0.0,0.0,0.0,0.0,0.0,0.0,0.0,0.0,0.0,0.0,0.0,0.0,0.0,0.0,0.0,0.0,0.0,0.0,0.0,0.0,0.0,0.0,0.0,0.0,0.0,0.0,0.0,0.0,0.0,0.0,0.0,0.0,0.0,0.0,0.0,0.0,0.0,0.0,0.0,0.0,0.0,0.0,0.0,0.0,0.0,0.0,0.0,0.0,0.0,0.0,0.0,0.0,0.0,0.0,0.0,0.0,0.0,0.0,0.0,0.0,0.0,0.0,0.0,0.0,0.0,0.0,0.0,0.0,0.0,0.0,0.0,0.0,0.0,-0.0125,-0.0395,-0.0626,-0.0817,-0.1005,-0.1062,-0.1052,-0.092,-0.1058,0.0,0.0,0.0,0.0,0.0,0.0,0.0,0.0,0.0,0.0,0.0,0.0,0.0,0.0,0.0,0.0,0.0,0.0,0.0,0.0,0.0,0.0,0.0,0.0,0.0,0.0,0.0,0.0,0.0,0.0,0.0,0.0,0.0,0.0,0.0,0.0,0.0,0.0,0.0,0.0,0.0,0.0,0.0,0.0,0.0,0.0,0.0,0.0,0.0,0.0,0.0,0.0,0.0,0.0,0.0,0.0,0.0,0.0,0.0,0.0,0.0,0.0,0.0,0.0,0.0,0.0,0.0,0.0,0.0,0.0,0.0,0.0,0.0,0.0,0.0,0.0,0.0,0.0,0.0,0.0,0.0,0.0,0.0,0.0,0.0,0.0,0.0,0.0,0.0,0.0,0.0,0.0,0.0,0.0,0.0,0.0,0.0,0.0,0.0,0.0,0.0,0.0,0.0,-0.0064,-0.0286,-0.0433,-0.0617,-0.0774,-0.0936,-0.0963,-0.085,-0.0794,0.0,0.0,0.0,0.0,0.0,0.0,0.0,0.0,0.0,0.0,0.0,0.0,0.0,0.0,0.0,0.0,0.0,0.0,0.0,0.0,0.0,0.0,0.0,0.0,0.0,0.0,0.0,0.0,0.0,0.0,0.0,0.0,0.0,0.0,0.0,0.0,0.0,0.0,0.0,0.0,0.0,0.0,0.0,0.0,0.0,0.0,0.0,0.0,0.0,0.0,0.0,0.0,0.0,0.0,0.0,0.0,0.0,0.0,0.0,0.0,0.0,0.0,0.0,0.0,0.0,0.0,0.0,0.0,0.0,0.0,0.0,0.0,0.0,0.0,0.0,0.0,0.0,0.0,0.0,0.0,0.0,0.0,0.0,0.0,0.0,0.0,0.0,0.0,0.0,0.0,0.0,0.0,0.0,0.0,0.0,0.0,0.0,0.0,0.0,0.0,0.0,0.0,0.0,-0.0064,-0.0278,-0.0316,-0.0383,-0.0511,-0.0693,-0.0779,-0.0623,-0.0665,0.0,0.0,0.0,0.0,0.0,0.0,0.0,0.0,0.0,0.0,0.0,0.0,0.0,0.0,0.0,0.0,0.0,0.0,0.0,0.0,0.0,0.0,0.0,0.0,0.0,0.0,0.0,0.0,0.0,0.0,0.0,0.0,0.0,0.0,0.0,0.0,0.0,0.0,0.0,0.0,0.0,0.0,0.0,0.0,0.0,0.0,0.0,0.0,0.0,0.0,0.0,0.0,0.0,0.0,0.0,0.0,0.0,0.0,0.0,0.0,0.0,0.0,0.0,0.0,0.0,0.0,0.0,0.0,0.0,0.0,0.0,0.0,0.0,0.0,0.0,0.0,0.0,0.0,0.0,0.0,0.0,0.0,0.0,0.0,0.0,0.0,0.0,0.0,0.0,0.0,0.0,0.0,0.0,0.0,0.0,0.0,0.0,0.0,0.0,0.0,0.0,0.0,0.0,-0.0031,-0.0104,-0.0242,-0.0307,-0.0371,-0.0517,-0.0574,-0.0492,0.0,0.0,0.0,0.0,0.0,0.0,0.0,0.0,0.0,0.0,0.0,0.0,0.0,0.0,0.0,0.0,0.0,0.0,0.0,0.0,0.0,0.0,0.0,0.0,0.0,0.0,0.0,0.0,0.0,0.0,0.0,0.0,0.0,0.0,0.0,0.0,0.0,0.0,0.0,0.0,0.0,0.0,0.0,0.0,0.0,0.0,0.0,0.0,0.0,0.0,0.0,0.0,0.0,0.0,0.0,0.0,0.0,0.0,0.0,0.0,0.0,0.0,0.0,0.0,0.0,0.0,0.0,0.0,0.0,0.0,0.0,0.0,0.0,0.0,0.0,0.0,0.0,0.0,0.0,0.0,0.0,0.0,0.0,0.0,0.0,0.0,0.0,0.0,0.0,0.0,0.0,0.0,0.0,0.0,0.0,0.0,0.0,0.0,0.0,0.0,0.0,0.0,0.0,0.0,0.0,0.0,-0.0135,-0.02,-0.02,-0.0341,-0.0371,-0.0342,0.0,0.0,0.0,0.0,0.0,0.0,0.0,0.0,0.0,0.0,0.0,0.0,0.0,0.0,0.0,0.0,0.0,0.0,0.0,0.0,0.0,0.0,0.0,0.0,0.0,0.0,0.0,0.0,0.0,0.0,0.0,0.0,0.0,0.0,0.0,0.0,0.0,0.0,0.0,0.0,0.0,0.0,0.0,0.0,0.0,0.0,0.0,0.0,0.0,0.0,0.0,0.0,0.0,0.0,0.0,0.0,0.0,0.0,0.0,0.0,0.0,0.0,0.0,0.0,0.0,0.0,0.0,0.0,0.0,0.0,0.0,0.0,0.0,0.0,0.0,0.0,0.0,0.0,0.0,0.0,0.0,0.0,0.0,0.0,0.0,0.0,0.0,0.0,0.0,0.0,0.0,0.0,0.0,0.0,0.0,0.0,0.0,0.0,0.0,0.0,0.0,0.0,0.0,0.0,0.0,0.0,0.0,0.0,0.0,-0.0115,-0.021,0.0,0.0,0.0,0.0,0.0,0.0,0.0,0.0,0.0,0.0,0.0,0.0,0.0,0.0,0.0,0.0,0.0,0.0,0.0,0.0,0.0,0.0,0.0,0.0,0.0,0.0,0.0,0.0,0.0,0.0,0.0,0.0,0.0,0.0,0.0,0.0,0.0,0.0,0.0,0.0,0.0,0.0,0.0,0.0,0.0,0.0,0.0,0.0,0.0,0.0,0.0,0.0,0.0,0.0,0.0,0.0,0.0,0.0,0.0,0.0,0.0,0.0,0.0,0.0,0.0,0.0,0.0,0.0,0.0,0.0,0.0,0.0,0.0,0.0,0.0,0.0,0.0,0.0,0.0,0.0,0.0,0.0,0.0,0.0,0.0,0.0,0.0,0.0,0.0,0.0,0.0,0.0,0.0,0.0,0.0,0.0,0.0,0.0,0.0,0.0,0.0,0.0,0.0,0.0,0.0,0.0,0.0,0.0,0.0,0.0,-0.0029,-0.0053,-0.0049,0.0,0.0,0.0,0.0,0.0,0.0,0.0,0.0,0.0,0.0,0.0,0.0,0.0,0.0,0.0,0.0,0.0,0.0,0.0,0.0,0.0,0.0,0.0,0.0,0.0,0.0,0.0,0.0,0.0,0.0,0.0,0.0,0.0,0.0,0.0,0.0,0.0,0.0,0.0,0.0,0.0,0.0,0.0,0.0,0.0,0.0,0.0,0.0,0.0,0.0,0.0,0.0,0.0,0.0,0.0,0.0,0.0,0.0,0.0,0.0,0.0,0.0,0.0,0.0,0.0,0.0,0.0,0.0,0.0,0.0,0.0,0.0,0.0,0.0,0.0,0.0,0.0,0.0,0.0,0.0,0.0,0.0,0.0,0.0,0.0,0.0,0.0,0.0,0.0,0.0,0.0,0.0,0.0,0.0,0.0,0.0,0.0,0.0,0.0,0.0,0.0,0.0,0.0,0.0,0.0,0.0,0.0,0.0,0.0,0.0,0.0,0.0,0.0,0.0,0.0,0.0,0.0,0.0,0.0,0.0,0.0,0.0,0.0,0.0,0.0,0.0,0.0,0.0,0.0,0.0,0.0,0.0,0.0,0.0,0.0,0.0,0.0,0.0,0.0,0.0,0.0,0.0,0.0,0.0,0.0,0.0,0.0,0.0,0.0,0.0,0.0,0.0,0.0,0.0,0.0,0.0,0.0,0.0,0.0,0.0,0.0,0.0,0.0,0.0,0.0,0.0,0.0,0.0,0.0,0.0,0.0,0.0,0.0,0.0,0.0,0.0,0.0,0.0,0.0,0.0,0.0,0.0,0.0,0.0,0.0,0.0,0.0,0.0,0.0,0.0,0.0,0.0,0.0,0.0,0.0,0.0,0.0,0.0,0.0,0.0,0.0,0.0,0.0,0.0,0.0,0.0,0.0,0.0,0.0,0.0,0.0,0.0,0.0,0.0,0.0,0.0,0.0,0.0,0.0,0.0,0.0,0.0,0.0,0.0,0.0,0.0,0.0,0.0,0.0,0.0,0.0,0.0,0.0,0.0,0.0,0.0,0.0,0.0,0.0,0.0,0.0,0.0,0.0,0.0,0.0,0.0,0.0,0.0,0.0,0.0,0.0,0.0,0.0,0.0,0.0,0.0,0.0,0.0,0.0,0.0,0.0,0.0,0.0,0.0,0.0,0.0,0.0,0.0,0.0,0.0,0.0,0.0,0.0,0.0,0.0,0.0,0.0,0.0,0.0,0.0,0.0,0.0,0.0,0.0,0.4362,0.4115,0.0,0.0,0.0,0.0,0.0,0.0,0.0,0.0,0.0,0.0,0.0,0.0,0.0,0.0,0.0,0.0,0.0,0.0,0.0,0.0,0.0,0.0,0.0,0.0,0.0,0.0,0.0,0.0,0.0,0.0,0.0,0.0,0.0,0.0,0.0,0.0,0.0,0.0,0.0,0.0,0.0,0.0,0.0,0.0,0.0,0.0,0.0,0.0,0.0,0.0,-0.002,0.0,0.0,0.0,0.0,0.0,0.0,0.0,0.0,0.0,0.0,0.0,0.0,0.0,0.0,0.0,0.0,0.0,0.0,0.0,0.0,0.0,0.0,0.0,0.0,0.0,0.0,0.0,0.0,0.0,0.0,0.0,0.0,0.0,0.0,0.0,0.0,0.0,0.0,0.0,0.0,0.0,0.0,0.0,0.0,0.0,0.0,0.0,0.0,0.0,0.0,0.0,0.0,0.0,0.0,0.0,0.0,0.0,0.0,0.0,0.4864,0.4581,0.0,0.0,0.0,0.0,0.0,0.0,0.0,0.0,0.0,0.0,0.0,0.0,0.0,0.0,0.0,0.0,0.0,0.0,0.0,0.0,0.0,0.0,0.0,0.0,0.0,0.0,0.0,0.0,0.0,0.0,0.0,0.0,0.0,0.0,0.0,0.0,0.0,0.0,0.0,0.0,0.0,0.0,0.0,0.0,0.0,0.0,0.0,0.0,0.0,0.0,0.0,0.0,0.0,0.0,0.0,0.0,0.0,0.0,0.0,0.0,0.0,0.0,0.0,0.0,0.0,0.0,0.0,0.0,0.0,0.0,0.0,0.0,0.0,0.0,0.0,0.0,0.0,0.0,0.0,0.0,0.0,0.0,0.0,0.0,0.0,0.0,0.0,0.0,0.0,0.0,0.0,0.0,0.0,0.0,0.0,0.0,0.0,0.0,0.0,0.0,0.0,0.0,0.0,0.0,0.6078,0.6133,0.6073,0.6204,0.6225,0.6149,0.5562,0.5269,0.5181,0.4824,0.0,0.0,0.0,0.0,0.0,0.0,0.0,0.0,0.0,0.0,0.0,0.0,0.0,0.0,0.0,0.0,0.0,0.0,0.0,0.0,0.0,0.0,0.427,0.4518,0.426,0.3713,0.2697,0.0,0.0,0.0,0.0,0.0,0.0,0.0,0.0,0.0,0.0,0.0,0.0,0.0,0.0,0.0,0.0,0.0,0.0,0.0,0.0,0.0,0.0023,0.0021,0.0,0.0,0.0,0.0,0.0,0.0,0.0,0.0,0.0,0.0,0.0,0.0,0.0,0.0,0.0,0.0,0.0,0.0,0.0,0.0,0.0,0.0,0.0,0.0,0.0,0.0,0.0,0.0,0.0,0.0,0.0,0.0,0.6122,0.6309,0.0,0.0,0.0,0.0,0.0,0.0,0.0,0.0,0.0,0.0,0.0,0.0,0.0,0.6428,0.6773,0.6928,0.7001,0.701,0.7138,0.7215,0.7197,0.7219,0.7104,0.6971,0.6867,0.0,0.5677,0.5395,0.0,0.0,0.0,0.0,0.0,0.0,0.0,0.0,0.0,0.0,0.0,0.0,0.0,0.0,0.0,0.0,0.0,0.0,0.0,0.0,0.0,0.0,0.4931,0.4877,0.4797,0.4677,0.4392,0.3354,0.2338,0.1931,0.1534,0.1161,0.0,0.0,0.0,0.0,0.0,0.0,0.0,0.0,0.0,0.0,0.0,0.0,0.0,0.0,0.0,0.0,0.0119,0.0111,0.0,0.0112,0.0,0.0,0.0,0.0,0.0,0.0,0.0,0.0,0.0,0.0,0.0,0.0,0.0,0.0,0.0,0.0,0.0,0.0,0.0,0.0,0.0,0.0,0.0,0.0,0.0,0.0,0.0,0.0,0.0,0.6436,0.6196,0.6661,0.6077,0.5579,0.0,0.0,0.0,0.0,0.0,0.0,0.0,0.0,0.0,0.6823,0.6964,0.7143,0.7441,0.758,0.7636,0.7576,0.7643,0.7681,0.7686,0.7686,0.764,0.7547,0.7409,0.7166,0.6742,0.6038,0.5521,0.517,0.0,0.0,0.0,0.0,0.4748,0.4645,0.4975,0.5053,0.4962,0.4714,0.0,0.0,0.0,0.0,0.0,0.0,0.0,0.4402,0.4653,0.4863,0.5005,0.5142,0.5169,0.5125,0.4972,0.4416,0.3761,0.3042,0.2727,0.2315,0.1401,0.0951,0.0,0.0,0.0,0.0,0.0,0.0,0.0,0.0,0.0,0.0,0.0,0.0,0.0027,0.0107,0.0175,0.0212,0.0225,0.0285,0.0262,0.0,0.0,0.0,0.0,0.0,0.0,0.0,0.0,0.0,0.0,0.0,0.0,0.0,0.0,0.0,0.0,0.0,0.0,0.0,0.0,0.0,0.0,0.0,0.0,0.0,0.0,0.0,0.0,0.6855,0.6599,0.6962,0.6549,0.6103,0.0,0.0,0.0,0.0,0.0,0.0,0.6672,0.6867,0.7131,0.7488,0.7622,0.782,0.8004,0.8093,0.8143,0.8064,0.8064,0.8088,0.8076,0.8076,0.8032,0.7977,0.7805,0.7683,0.7554,0.6666,0.6106,0.5765,0.5459,0.5234,0.5095,0.5288,0.5269,0.5209,0.5647,0.5657,0.5484,0.5298,0.5023,0.4707,0.4459,0.0,0.0,0.0,0.0,0.4533,0.4935,0.5033,0.5087,0.5341,0.5395,0.5361,0.5213,0.5189,0.493,0.4042,0.3782,0.3339,0.2171,0.1531,0.0,0.0507,0.0231,0.0101,0.0136,0.0112,0.0085,0.0085,0.0028,0.0,0.0,0.0028,0.0083,0.0187,0.0257,0.0343,0.0389,0.0412,0.0385,0.0298,0.0,0.0,0.0,0.0,0.0,0.0,0.0,0.0,0.0,0.0,0.0,0.0,0.0,0.0,0.0,0.0,0.0,0.0,0.0,0.0,0.0,0.0,0.0,0.0,0.0,0.0,0.0,0.0,0.0,0.7349,0.7189,0.0,0.0,0.0,0.0,0.6404,0.6827,0.7236,0.7419,0.7645,0.791,0.8227,0.8247,0.8341,0.8567,0.858,0.8588,0.8552,0.8552,0.8556,0.8568,0.8568,0.8428,0.8197,0.8189,0.7965,0.7562,0.7264,0.6996,0.6821,0.668,0.6367,0.604,0.6058,0.5908,0.5759,0.5789,0.5789,0.5755,0.5613,0.5267,0.4874,0.486,0.4779,0.0,0.0,0.4951,0.5093,0.5327,0.5371,0.5378,0.5392,0.5395,0.5392,0.5385,0.5382,0.5248,0.4729,0.4291,0.3817,0.3299,0.0,0.1445,0.1342,0.0747,0.0326,0.0465,0.0352,0.0294,0.0294,0.0114,0.0,0.0,0.0112,0.0193,0.0187,0.0437,0.0521,0.0406,0.0463,0.0432,0.0294,0.0301,0.0,0.0,0.0,0.0,0.0,0.0,0.0,0.0,0.0,0.0,0.0,0.0,0.0,0.0,0.0,0.0,0.0,0.0,0.0,0.0,0.0,0.0,0.0,0.0,0.0,0.0,0.0,0.0,0.9296,0.8498,0.0,0.7269,0.7396,0.7457,0.7331,0.746,0.7695,0.7988,0.8065,0.8257,0.8506,0.8514,0.8547,0.8612,0.8612,0.8612,0.8612,0.8612,0.8612,0.8612,0.8612,0.8564,0.8472,0.8472,0.8392,0.8226,0.8008,0.7542,0.7003,0.6893,0.6667,0.643,0.643,0.628,0.614,0.6282,0.6142,0.5908,0.5667,0.5481,0.5332,0.5233,0.5197,0.5167,0.5221,0.524,0.5324,0.5382,0.5395,0.5395,0.5395,0.5395,0.5395,0.5395,0.5395,0.5347,0.5184,0.4915,0.4532,0.398,0.3373,0.2663,0.1736,0.1329,0.0976,0.0545,0.0448,0.0442,0.0442,0.0315,0.0252,0.0252,0.0302,0.0378,0.0453,0.0504,0.0581,0.0645,0.064,0.0577,0.0492,0.0409,0.0356,0.0,0.0,0.0,0.0,0.0,0.0,0.0,0.0,0.0,0.0,0.0,0.0,0.0,0.0,0.0,0.0,0.0,0.0,0.0,0.0,0.0,0.0,0.0,0.0,0.0,0.9939,0.9694,1.0006,0.9609,0.9074,0.8398,0.844,0.8492,0.8427,0.8197,0.818,0.8369,0.8385,0.8611,0.9038,0.874,0.874,0.9043,0.874,0.8612,0.8612,0.8612,0.8612,0.8612,0.8612,0.8612,0.8612,0.8612,0.8612,0.8604,0.8434,0.8038,0.7508,0.7334,0.7126,0.6866,0.6866,0.6715,0.6527,0.6639,0.6495,0.6182,0.5982,0.5846,0.5752,0.5648,0.5545,0.5474,0.5474,0.5436,0.5395,0.5395,0.5395,0.5395,0.5395,0.5395,0.5395,0.5395,0.5395,0.5395,0.5395,0.5277,0.5068,0.4581,0.4155,0.3477,0.2307,0.1889,0.1444,0.0794,0.0645,0.0599,0.0599,0.049,0.0393,0.0393,0.0435,0.0506,0.0586,0.0598,0.0669,0.0789,0.0728,0.066,0.0609,0.0497,0.045,0.0474,0.0,0.0,0.0,0.0,0.0,0.0,0.0,0.0,0.0,0.0,0.0,0.0,0.0,0.0,0.0,0.0,0.0,0.0,0.0,0.0,0.0,0.0,0.0,1.0181,1.1033,1.1135,0.9447,1.0492,1.0841,0.9599,0.9729,0.9842,0.9714,0.9083,0.8673,0.8717,0.8673,0.906,0.9878,0.906,0.9016,0.9878,0.9016,0.8629,0.8629,0.8629,0.8624,0.862,0.862,0.8616,0.8612,0.8612,0.8612,0.8612,0.8612,0.8506,0.828,0.8093,0.7748,0.7433,0.7433,0.7207,0.6907,0.6903,0.6764,0.6596,0.6593,0.6375,0.6104,0.6101,0.5884,0.5631,0.5624,0.5518,0.5399,0.5395,0.5395,0.5395,0.5395,0.5395,0.5395,0.5395,0.5395,0.5395,0.5395,0.5395,0.5347,0.5133,0.4524,0.3823,0.3155,0.2418,0.0,0.1238,0.096,0.0834,0.0834,0.0583,0.0421,0.0421,0.0544,0.0612,0.0611,0.0722,0.0789,0.0787,0.0728,0.066,0.0609,0.0535,0.0538,0.0602,0.0,0.0,0.0,0.0,0.0,0.0,0.0,0.0,0.0,0.0,0.0,0.0,0.0,0.0,0.0,0.0,0.0,0.0,0.0,0.0,0.0,1.2266,1.2962,1.2891,1.2962,1.3004,1.3029,1.2132,1.1335,1.0817,1.0038,0.9747,1.031,1.0171,1.039,1.1161,1.0476,1.0158,1.0381,0.9446,0.9088,0.9313,0.9088,0.895,0.895,0.895,0.8881,0.8751,0.8751,0.8682,0.8612,0.8612,0.8612,0.8612,0.8612,0.858,0.8518,0.8284,0.806,0.7817,0.7817,0.7584,0.7222,0.6979,0.6873,0.6779,0.6663,0.6522,0.6427,0.6345,0.6136,0.5941,0.5859,0.5693,0.5535,0.5423,0.5395,0.5395,0.5395,0.5395,0.5395,0.5395,0.5395,0.5395,0.5395,0.5395,0.5382,0.5337,0.5163,0.4766,0.404,0.3777,0.3366,0.2575,0.2051,0.1696,0.1603,0.1108,0.0765,0.0754,0.0799,0.079,0.0744,0.0785,0.0779,0.0733,0.0716,0.066,0.0609,0.0574,0.0578,0.0,0.0,0.0,0.0,0.0,0.0,0.0,0.0,0.0,0.0,0.0,0.0,0.0,0.0,0.0,0.0,0.0,0.0,0.0,0.0,0.0,0.0,1.3447,1.4157,1.4922,1.4664,1.4402,1.4414,1.3782,1.3162,1.2695,1.1854,1.1512,1.1976,1.1145,1.0874,1.1523,1.0556,1.0144,1.056,1.001,0.9736,0.9693,0.9736,0.9507,0.9096,0.9096,0.8999,0.882,0.882,0.8727,0.8612,0.8612,0.8612,0.8612,0.8612,0.8612,0.0,0.0,0.0,0.0,0.0,0.7761,0.7525,0.7235,0.7134,0.7119,0.7022,0.6919,0.6825,0.6763,0.654,0.627,0.6142,0.5982,0.5796,0.5563,0.5491,0.5458,0.5425,0.5395,0.5395,0.5395,0.5395,0.5395,0.5395,0.5395,0.0,0.5395,0.5341,0.5055,0.4411,0.417,0.3811,0.3091,0.2389,0.1935,0.1873,0.1272,0.0905,0.0893,0.0868,0.0,0.0,0.0,0.0775,0.0698,0.069,0.0,0.0,0.0,0.0,0.0,0.0,0.0,0.0,0.0455,0.0277,0.0,0.0,0.0,0.0,0.0,0.0,0.0,0.0,0.0,0.0,0.0,0.0,0.0,0.0,0.0,0.0,1.4599,1.5076,1.625,1.6031,1.5475,1.471,1.5232,1.5416,1.4743,1.4166,1.388,1.4113,1.2045,1.0896,1.122,1.0123,0.0,0.0,0.0,1.0812,1.0771,1.0812,1.0399,0.9528,0.9528,0.9322,0.8985,0.8985,0.8922,0.874,0.8656,0.8652,0.874,0.8656,0.8612,0.8612,0.8612,0.851,0.828,0.7984,0.7845,0.78,0.7616,0.0,0.0,0.7484,0.7369,0.7219,0.7219,0.6961,0.6656,0.6487,0.6376,0.6153,0.5758,0.5678,0.5641,0.5498,0.5428,0.5428,0.5428,0.5425,0.5395,0.5395,0.5395,0.5395,0.5395,0.5247,0.4974,0.4502,0.4171,0.3784,0.3289,0.2536,0.2006,0.1911,0.0,0.0,0.0902,0.085,0.0838,0.0889,0.0837,0.0777,0.0707,0.0722,0.0707,0.0711,0.0711,0.0738,0.0794,0.0794,0.0794,0.0791,0.0556,0.0436,0.0,0.0,0.0,0.0,0.0,0.0,0.0,0.0,0.0,0.0,0.0,0.0,0.0,0.0,0.0,1.4401,1.5123,1.5804,1.6345,1.6543,1.6605,1.6412,1.5831,1.5403,1.5274,1.366,1.3208,1.4691,1.2921,1.2736,1.4986,1.3118,1.2502,1.3517,1.2741,1.2304,1.2256,1.2304,1.2208,1.2021,1.2021,0.0,1.0265,1.0265,1.0025,0.9602,0.8915,0.8999,0.9602,0.8867,0.8612,0.8612,0.8612,0.8592,0.8531,0.8268,0.8093,0.7939,0.7804,0.7649,0.7484,0.7484,0.7484,0.7446,0.7446,0.7272,0.0,0.6919,0.6702,0.6466,0.6168,0.6093,0.6026,0.5855,0.5686,0.555,0.555,0.5491,0.5395,0.5395,0.5395,0.5395,0.5395,0.5371,0.5292,0.519,0.5144,0.4971,0.4584,0.3958,0.329,0.2589,0.1996,0.1416,0.0932,0.0901,0.0875,0.0888,0.0825,0.0796,0.0789,0.0786,0.0782,0.078,0.0781,0.0787,0.0799,0.0799,0.0799,0.0798,0.075,0.0657,0.0,0.0,0.0,0.0,0.0,0.0,0.0,0.0,0.0,0.0,0.0,1.2784,1.311,0.0,1.4867,1.5384,1.5826,1.6309,1.6784,1.6895,1.6961,1.7069,1.6657,1.6365,1.6365,1.5317,1.5045,1.5913,1.4465,1.4124,1.5534,1.4028,1.3258,1.3709,1.3698,1.3355,1.2732,1.3221,1.3221,1.2678,1.2678,1.2194,1.1283,1.1283,1.1045,1.0593,1.012,1.0207,1.0549,0.9646,0.9257,0.9213,0.8784,0.8612,0.8588,0.8357,0.8231,0.8113,0.789,0.7739,0.7645,0.7551,0.7484,0.7484,0.7484,0.7446,0.7298,0.7161,0.6998,0.6832,0.6541,0.6379,0.6257,0.6105,0.5885,0.5719,0.5617,0.5554,0.5491,0.5425,0.5395,0.5395,0.5395,0.5395,0.5368,0.5257,0.5121,0.5003,0.4823,0.4207,0.3643,0.3209,0.2342,0.169,0.1376,0.1076,0.0912,0.0907,0.0876,0.0834,0.0806,0.0804,0.0788,0.0739,0.0739,0.077,0.081,0.081,0.0826,0.0855,0.0855,0.0788,0.0,0.0,0.0,0.0,0.0,0.0,0.0,1.1939,1.2399,1.2726,1.3512,1.4246,1.4544,1.5209,1.5855,1.6338,1.6514,1.6711,1.7172,1.7069,1.704,1.725,1.7279,1.7279,1.7279,1.7012,1.6878,1.7073,1.5717,1.5038,1.5378,1.4358,1.3782,1.3794,1.4609,1.4561,1.3451,1.4334,1.4286,1.336,1.336,1.3028,1.2402,1.2312,1.2059,1.1651,1.1602,1.1451,1.1241,1.0463,1.0072,0.9816,0.913,0.874,0.8592,0.8398,0.83,0.8195,0.7947,0.7804,0.7722,0.7571,0.7484,0.7484,0.7484,0.7484,0.7452,0.7317,0.7277,0.7199,0.6876,0.6663,0.6487,0.6322,0.6112,0.5921,0.5749,0.5683,0.562,0.5458,0.5425,0.5425,0.5395,0.5395,0.5351,0.5196,0.4948,0.4765,0.4738,0.42,0.3764,0.363,0.2625,0.1874,0.1651,0.1177,0.0887,0.0889,0.0909,0.087,0.0825,0.0816,0.0788,0.0746,0.0716,0.0751,0.0831,0.0831,0.086,0.0888,0.0888,0.0874,1.2614,1.2447,1.2383,1.1958,1.2385,1.3147,0.0,1.4272,1.4266,1.4834,1.5258,1.5539,1.5678,1.6287,1.6668,1.6448,1.685,1.7143,1.6983,1.7121,1.7289,1.7279,1.7279,1.7279,1.7279,1.6669,1.6574,1.7239,1.5466,1.5086,1.669,1.552,1.5283,1.6197,1.6298,1.6298,1.615,1.6292,1.6157,1.5832,1.5832,1.5087,1.3787,1.3552,1.3243,1.2905,1.2629,1.2057,1.1278,1.1192,1.0636,0.9903,0.9772,0.9301,0.8608,0.8588,0.8325,0.804,0.8,0.7776,0.7551,0.7488,0.7484,0.7484,0.7484,0.7484,0.748,0.746,0.7456,0.7415,0.7203,0.7025,0.6883,0.6698,0.6382,0.6148,0.6145,0.5984,0.5822,0.5617,0.5583,0.5554,0.5428,0.5395,0.5388,0.5371,0.5192,0.5005,0.4881,0.4699,0.4324,0.3666,0.2986,0.2151,0.1093,0.0926,0.0896,0.0892,0.0894,0.0889,0.0886,0.0832,0.0813,0.0889,0.081,0.0812,0.0895,0.0895,0.0886,0.0892,0.0892,0.089,1.3846,1.3616,1.3481,1.3496,1.3926,1.4514,1.5217,1.5393,1.5599,1.6111,1.6533,1.6716,1.641,1.6794,1.7026,1.6749,1.7033,1.7282,1.715,1.7245,1.726,1.7077,1.7216,1.726,1.7069,1.6937,1.6919,1.7069,1.6416,1.6372,1.7153,1.6615,1.648,1.6831,1.6831,1.6784,1.6588,1.6588,1.6541,1.6447,1.6447,1.5858,1.4747,1.4624,1.4242,1.3692,1.3576,1.3307,1.2875,1.2357,1.1886,1.1499,1.0939,1.0164,0.9301,0.8784,0.8514,0.8321,0.8211,0.8008,0.7776,0.7714,0.7608,0.7484,0.7484,0.7484,0.7484,0.7484,0.7484,0.7464,0.7395,0.7244,0.7066,0.6922,0.6674,0.6445,0.6234,0.6148,0.6017,0.5818,0.5785,0.5756,0.5693,0.569,0.569,0.569,0.5286,0.4982,0.4951,0.4736,0.4191,0.3186,0.2847,0.2207,0.1009,0.0898,0.0898,0.0898,0.0913,0.0903,0.0898,0.0873,0.0857,0.0852,0.0813,0.0813,0.0851,0.0851,0.0867,0.0898,0.0898,0.0908,1.4233,1.4201,1.4304,1.4668,1.5205,1.5697,1.6039,1.6389,1.6704,1.6904,1.7226,1.7272,1.6728,1.6919,1.7121,1.6939,1.7121,1.7279,1.7279,1.7252,1.7113,1.6925,1.6982,1.6974,1.6793,1.7011,1.7135,1.6996,1.7121,1.7238,1.7279,1.7279,1.7239,1.7113,1.7066,1.6972,1.677,1.677,1.6777,1.673,1.673,1.635,1.5631,1.5414,1.4848,1.4088,1.4088,1.4088,1.4046,1.3355,1.2918,1.2619,1.1972,1.1106,1.0159,0.9301,0.8921,0.8901,0.8717,0.8505,0.828,0.8192,0.7865,0.7484,0.7484,0.7484,0.7484,0.7484,0.7484,0.7484,0.7484,0.7354,0.7179,0.7033,0.6857,0.6609,0.632,0.6247,0.6214,0.602,0.5987,0.5954,0.5925,0.5888,0.5921,0.5987,0.5491,0.5104,0.5118,0.478,0.4156,0.3125,0.282,0.2291,0.1232,0.1009,0.0898,0.0898,0.0898,0.0887,0.0893,0.091,0.0868,0.0819,0.0811,0.0811,0.0819,0.0819,0.0861,0.0892,0.0892,0.0904,1.3314,1.3862,1.4676,1.5078,1.5936,1.6737,1.7151,1.7528,1.7644,1.718,1.7115,1.6947,1.65,1.669,1.691,1.6903,1.7121,1.7279,1.7279,1.7062,1.691,1.6903,1.6631,1.6433,1.6426,1.6719,1.7042,1.7296,1.7033,1.7049,1.7311,1.7279,1.7279,1.7286,1.7286,1.7286,1.7279,1.7279,1.7192,1.6979,1.6979,1.6824,1.6532,1.5697,1.4848,1.4088,1.4088,1.4088,1.4088,1.4088,1.3525,1.2705,1.2662,1.21,1.1149,1.0202,0.9771,0.9681,0.9672,0.9401,0.9055,0.905,0.8364,0.7484,0.7484,0.7484,0.7484,0.7484,0.7484,0.7484,0.7484,0.7354,0.7179,0.7033,0.6857,0.6643,0.6423,0.6387,0.635,0.6214,0.6178,0.6115,0.5921,0.5888,0.5954,0.6148,0.59,0.5606,0.5415,0.497,0.4467,0.3824,0.3125,0.2458,0.1818,0.1232,0.0898,0.0898,0.0898,0.0897,0.0896,0.0895,0.0905,0.0904,0.0821,0.0821,0.0904,0.0904,0.0893,0.0896,0.0896,0.0896,1.4681,1.5229,1.5825,1.642,1.7,1.7517,1.7874,1.7858,1.7747,1.7488,1.7056,1.6629,1.6154,1.6155,1.6294,1.6543,1.6851,1.7091,1.725,1.7238,1.7011,1.6631,1.6675,1.6573,1.6111,1.6352,1.6624,1.6682,1.6837,1.6947,1.7011,1.7216,1.7279,1.7279,1.7279,1.7279,1.7279,1.7279,1.7286,1.7192,1.6857,1.6618,1.6497,1.5503,1.4891,1.4613,1.4253,1.4088,1.4088,1.4088,1.3913,1.361,1.361,1.3052,1.2186,1.1886,1.1744,1.1501,1.0267,0.9695,0.9476,0.9333,0.856,0.7682,0.7521,0.7484,0.7484,0.7484,0.7484,0.7484,0.7484,0.7439,0.7354,0.7175,0.709,0.6964,0.6668,0.6603,0.6533,0.6374,0.6317,0.6317,0.6251,0.6218,0.6212,0.6189,0.5927,0.5601,0.5317,0.5014,0.4598,0.3984,0.3624,0.3016,0.2014,0.1652,0.1316,0.0926,0.0898,0.0898,0.0898,0.0887,0.091,0.091,0.0872,0.0872,0.091,0.091,0.0887,0.0898,0.0898,0.0898,1.5426,1.6016,1.6481,1.7437,1.7759,1.7892,1.8121,1.7951,1.7562,1.7072,1.6528,1.5986,1.5499,1.5306,1.5445,1.6096,1.6287,1.6535,1.7084,1.7055,1.6828,1.6463,1.6499,1.6404,1.6104,1.6052,1.6126,1.6397,1.6609,1.6778,1.6895,1.7157,1.7279,1.7279,1.7279,1.7279,1.7279,1.7279,1.7279,1.7279,1.6943,1.6699,1.6485,1.5646,1.5133,1.4879,1.4414,1.4166,1.413,1.4166,1.4166,1.413,1.4166,1.3773,1.3179,1.2833,1.2918,1.296,1.1456,1.0783,1.0606,1.012,0.9197,0.8168,0.7735,0.7575,0.7484,0.7484,0.7484,0.7484,0.7484,0.7484,0.7439,0.7265,0.7187,0.709,0.6773,0.6696,0.6639,0.6457,0.6387,0.6387,0.6387,0.6387,0.6379,0.6294,0.606,0.5737,0.5383,0.5117,0.4818,0.4426,0.4067,0.3486,0.2569,0.2125,0.1624,0.1066,0.0954,0.0898,0.0898,0.0898,0.0898,0.0898,0.0898,0.0898,0.0898,0.0898,0.0898,0.0898,0.0898,0.0898,1.5556,1.6197,1.6744,1.7992,1.8094,1.7899,1.7944,1.7717,1.7172,1.5981,1.546,1.5036,1.4506,1.4196,1.4384,1.5621,1.5571,1.5774,1.6749,1.6624,1.6433,1.6411,1.6126,1.6074,1.6389,1.5826,1.5723,1.6367,1.6411,1.6558,1.6881,1.7157,1.7279,1.7279,1.7279,1.7279,1.7279,1.7279,1.7279,1.7279,1.7311,1.7011,1.6493,1.6156,1.5614,1.4922,1.457,1.4321,1.4166,1.4321,1.4279,1.4166,1.4356,1.4279,1.3997,1.3137,1.3349,1.3962,1.3094,1.262,1.2271,1.1377,1.0202,0.9025,0.8114,0.7708,0.7561,0.7522,0.7484,0.7484,0.7484,0.7484,0.7443,0.7277,0.7203,0.7143,0.6798,0.6717,0.6652,0.6469,0.6391,0.6387,0.6387,0.6387,0.6387,0.6387,0.6294,0.6049,0.5669,0.5329,0.5109,0.5101,0.4481,0.3871,0.3456,0.2569,0.1847,0.1347,0.1066,0.0898,0.0898,0.0898,0.0898,0.0898,0.0898,0.0926,0.0926,0.0926,0.0926,0.0898,0.0898,0.0898,1.6284,1.6993,1.7457,1.8254,1.8047,1.7649,1.7632,1.7051,1.6206,1.5245,1.4583,1.3933,1.3154,1.355,1.4092,1.4421,1.5218,1.5957,1.647,1.6675,1.6683,1.6441,1.6558,1.6595,1.6426,1.6265,1.6242,1.6404,1.6411,1.6558,1.6881,1.7157,1.7279,1.7279,1.7279,1.7279,1.7279,1.7279,1.7279,1.7279,1.7091,1.6938,1.6752,1.6022,1.559,1.5411,1.4874,1.4608,1.4531,1.4608,1.4573,1.4531,1.4608,1.4482,1.4272,1.4062,1.4026,1.4088,1.3828,1.3262,1.2566,1.2189,1.1211,1.0048,0.9058,0.8597,0.8284,0.7676,0.7484,0.7484,0.7484,0.7484,0.7472,0.7427,0.7415,0.7358,0.7139,0.6985,0.6869,0.6678,0.6505,0.6387,0.6387,0.6387,0.6387,0.6387,0.6294,0.6098,0.5848,0.5628,0.541,0.5254,0.4987,0.4484,0.3624,0.31,0.2464,0.1572,0.1234,0.1038,0.1038,0.0954,0.0954,0.1038,0.1038,0.1094,0.1206,0.1206,0.115,0.1038,0.1038,0.0982,1.6175,1.7093,1.772,1.8049,1.7773,1.7287,1.6691,1.6091,1.5353,1.4044,1.3448,1.2926,1.2222,1.2582,1.3191,1.3902,1.4596,1.5372,1.6287,1.6455,1.6521,1.6617,1.6661,1.6668,1.6631,1.6499,1.647,1.6617,1.6631,1.6705,1.6895,1.7157,1.7279,1.7279,1.7279,1.7279,1.7279,1.7279,1.7279,1.7279,1.7049,1.6903,1.6881,1.6067,1.5691,1.5591,1.5092,1.4824,1.4692,1.4824,1.4824,1.4692,1.4824,1.4741,1.4524,1.4524,1.4447,1.437,1.4243,1.3899,1.3353,1.2734,1.1999,1.1126,0.9682,0.9075,0.8701,0.7774,0.7484,0.7484,0.7484,0.7484,0.7484,0.7484,0.7484,0.7435,0.7223,0.7147,0.6997,0.6733,0.6542,0.6387,0.6387,0.6387,0.6387,0.6387,0.6331,0.6233,0.6053,0.5774,0.5514,0.5317,0.5242,0.4877,0.4156,0.3602,0.2961,0.2128,0.1598,0.129,0.1178,0.1122,0.1122,0.1178,0.1178,0.1234,0.1291,0.1291,0.1262,0.1178,0.1178,0.115,1.5659,1.675,1.75,1.7531,1.7296,1.6721,1.552,1.5091,1.4445,1.2743,1.2269,1.2024,1.1528,1.154,1.2134,1.355,1.3931,1.4614,1.614,1.6082,1.6148,1.6829,1.6646,1.6609,1.6932,1.6705,1.6661,1.6947,1.6961,1.6961,1.6961,1.7179,1.7279,1.7279,1.7279,1.7279,1.7279,1.7279,1.7279,1.7279,1.6967,1.6837,1.6815,1.614,1.5719,1.5576,1.5253,1.4999,1.4824,1.5041,1.4999,1.4824,1.5041,1.4999,1.4741,1.4741,1.4734,1.4692,1.4482,1.444,1.4272,1.3215,1.2728,1.2199,1.0304,0.9607,0.9159,0.7992,0.7748,0.7787,0.7672,0.7672,0.7672,0.7672,0.7561,0.7443,0.7293,0.7207,0.7082,0.6765,0.6566,0.6415,0.6391,0.6387,0.6387,0.6387,0.6387,0.6355,0.6232,0.5886,0.5551,0.5353,0.5313,0.5132,0.4743,0.4045,0.3375,0.2764,0.2045,0.1543,0.1347,0.1319,0.1319,0.1347,0.1347,0.1347,0.1375,0.1375,0.1347,0.1347,0.1347,0.1319,1.5344,1.6142,1.6591,1.712,1.6692,1.5889,1.5083,1.4171,1.3242,1.2141,1.1681,1.1271,1.0654,1.1299,1.2098,1.2687,1.3682,1.4765,1.584,1.595,1.6148,1.6829,1.6851,1.6939,1.7216,1.7194,1.7186,1.7245,1.7245,1.7245,1.7245,1.725,1.7279,1.7279,1.7279,1.7279,1.7279,1.7279,1.7279,1.7271,1.6733,1.6499,1.6477,1.5796,1.5469,1.5427,1.5369,1.5298,1.5298,1.534,1.5298,1.5298,1.534,1.5215,1.5048,1.5048,1.4908,1.4692,1.465,1.465,1.4573,1.4033,1.3631,1.3166,1.194,1.1315,1.0711,0.8985,0.896,0.9329,0.8661,0.8513,0.8513,0.8513,0.7978,0.7476,0.7443,0.7326,0.7082,0.6765,0.6672,0.6599,0.6444,0.6387,0.6387,0.6387,0.6387,0.6355,0.6232,0.6,0.577,0.5555,0.5413,0.5132,0.4743,0.4132,0.3516,0.2905,0.2186,0.1713,0.1543,0.1375,0.1375,0.1543,0.1543,0.16,0.1713,0.1713,0.1657,0.1543,0.1543,0.1459,1.4612,1.5391,1.5922,1.6592,1.622,1.5321,1.4148,1.342,1.2613,1.1189,1.0876,1.0651,1.0058,1.0667,1.1443,1.1941,1.2826,1.3916,1.5185,1.527,1.5518,1.6529,1.6646,1.6771,1.7055,1.723,1.7279,1.7279,1.7279,1.7279,1.7279,1.7279,1.7279,1.7279,1.7279,1.7279,1.7279,1.7279,1.7245,1.7077,1.6639,1.6331,1.6118,1.5643,1.5389,1.5389,1.5389,1.5389,1.5389,1.5389,1.5389,1.5389,1.5389,1.5347,1.5264,1.5264,1.5173,1.5041,1.4957,1.4915,1.4873,1.4538,1.4309,1.3939,1.2673,1.2128,1.1585,0.9921,0.9669,0.982,0.941,0.9334,0.9226,0.8813,0.8093,0.7484,0.7484,0.7346,0.7139,0.7005,0.6822,0.6668,0.6566,0.6477,0.6387,0.6387,0.6387,0.6388,0.6298,0.6163,0.5984,0.5774,0.5567,0.5373,0.5176,0.4396,0.3713,0.3294,0.2462,0.1906,0.1713,0.16,0.16,0.1713,0.1713,0.1741,0.1797,0.1797,0.1769,0.1713,0.1713,0.1657,1.3634,1.449,1.519,1.5896,1.5653,1.4831,1.3345,1.2735,1.2017,1.0365,1.0163,1.012,0.9655,1.0073,1.0748,1.1474,1.2102,1.3054,1.4674,1.4728,1.5061,1.6272,1.6353,1.647,1.6866,1.7077,1.7252,1.7279,1.7279,1.7279,1.7279,1.7279,1.7279,1.7279,1.7279,1.7279,1.7279,1.726,1.7106,1.6895,1.6499,1.6148,1.5906,1.5535,1.5389,1.5389,1.5389,1.5389,1.5389,1.5389,1.5389,1.5389,1.5389,1.5389,1.5389,1.5389,1.5389,1.5389,1.5215,1.5173,1.5131,1.4908,1.4783,1.4462,1.3313,1.2835,1.2428,1.1024,1.0613,1.0526,1.0282,1.0196,0.9895,0.8927,0.8093,0.7484,0.7484,0.7374,0.7231,0.7195,0.7001,0.6781,0.6726,0.6566,0.6465,0.6391,0.6387,0.6387,0.6387,0.6294,0.6184,0.6014,0.5803,0.5653,0.5616,0.4748,0.4051,0.3655,0.2822,0.2184,0.1852,0.1825,0.1797,0.1797,0.1797,0.1797,0.1797,0.1797,0.1797,0.1797,0.1797,0.1797,1.2258,1.3344,1.4186,1.4878,1.4821,1.4282,1.3243,1.2203,1.1115,1.0052,0.9844,0.9773,0.947,0.9829,1.0455,1.1437,1.2102,1.3054,1.4674,1.4878,1.5262,1.6294,1.6126,1.6191,1.6844,1.6925,1.7018,1.7264,1.7279,1.7279,1.7279,1.7279,1.7279,1.7279,1.7279,1.7279,1.7279,1.7047,1.6925,1.6895,1.625,1.5943,1.5906,1.5535,1.5389,1.5389,1.5389,1.5389,1.5389,1.5389,1.5389,1.5389,1.5389,1.5389,1.5389,1.5389,1.5389,1.5389,1.5389,1.5389,1.5389,1.5347,1.5041,1.4629,1.426,1.4115,1.3823,1.2402,1.2394,1.2563,1.1546,1.1143,1.0582,0.9079,0.8093,0.7484,0.7484,0.7472,0.7411,0.7219,0.7163,0.707,0.6767,0.6672,0.6611,0.6411,0.6387,0.6387,0.6387,0.6404,0.6388,0.6371,0.6067,0.5795,0.5624,0.5161,0.4574,0.383,0.3183,0.2571,0.2015,0.1852,0.1797,0.1797,0.1797,0.1797,0.1797,0.1797,0.1797,0.1797,0.1797,0.1797,1.151,1.2591,1.3535,1.4259,1.4311,1.3865,1.266,1.1599,1.0592,0.9633,0.9279,0.9168,0.9259,0.9423,0.9816,1.0558,1.0894,1.156,1.2959,1.3324,1.3916,1.5127,1.546,1.5796,1.625,1.6675,1.7027,1.7257,1.7279,1.7245,1.7055,1.7223,1.7279,1.7279,1.7143,1.7047,1.7047,1.6771,1.6514,1.6287,1.6038,1.5768,1.5579,1.5447,1.5389,1.5389,1.5389,1.5389,1.5389,1.5389,1.5389,1.5389,1.5389,1.5389,1.5389,1.5389,1.5389,1.5389,1.5389,1.5389,1.5389,1.5389,1.5257,1.5031,1.4568,1.4338,1.4037,1.3068,1.2896,1.2868,1.2405,1.1434,1.0421,0.9895,0.8699,0.7723,0.7834,0.7872,0.7812,0.7593,0.7447,0.7289,0.6922,0.6796,0.6631,0.6444,0.6387,0.6387,0.6387,0.6387,0.6387,0.6387,0.6193,0.6004,0.5791,0.5294,0.4791,0.4249,0.3463,0.285,0.2432,0.2099,0.1878,0.1797,0.1797,0.1797,0.1797,0.1797,0.1797,0.1797,0.1797,0.1797,1.0882,1.1812,1.2644,1.3384,1.3487,1.3179,1.2218,1.1209,1.0205,0.9251,0.887,0.8752,0.8884,0.9068,0.9376,0.0,1.0199,1.0806,1.1981,1.2426,1.3111,1.4364,1.4787,1.5204,1.5681,1.6345,1.6851,1.7026,1.704,1.6945,1.6771,1.6923,1.704,1.704,1.6828,1.6756,1.6756,1.6441,1.6126,1.5913,1.5818,1.5608,1.5389,1.5389,1.5389,1.5389,1.5389,1.5389,0.0,1.5389,1.5389,1.5389,1.5389,1.5389,1.5389,1.5389,1.5389,1.5389,1.5389,1.5389,1.5389,1.5389,1.5389,1.5287,1.4779,1.4532,1.4269,1.3634,1.3227,1.2973,1.2936,1.1768,1.0645,1.0608,0.9377,0.8217,0.8178,0.814,0.8063,0.7915,0.7732,0.7483,0.7136,0.6956,0.6757,0.6519,0.6482,0.6482,0.6482,0.6449,0.6387,0.6387,0.6302,0.6188,0.6012,0.5603,0.514,0.4678,0.3851,0.3217,0.2766,0.2265,0.1933,0.1797,0.1797,0.1797,0.1797,0.1797,0.1797,0.1797,0.1797,0.1797,1.0275,1.0846,1.1467,1.2062,1.218,1.2102,1.2017,1.1004,0.9841,0.889,0.8692,0.859,0.8268,0.8767,0.9295,0.957,1.0433,1.1437,1.2346,1.2797,1.3367,1.4394,1.4225,1.4377,1.5301,1.6001,1.6419,1.6419,1.6419,1.6419,1.6419,1.6419,1.6419,1.6419,1.6419,1.6419,1.6419,1.6074,1.5921,1.5913,1.5542,1.5389,1.5389,1.5389,1.5389,1.5389,1.5389,1.5389,0.0,1.5389,1.5389,1.5389,1.5389,1.5389,1.5389,1.5389,1.5389,1.5389,1.5389,1.5389,1.5389,1.5389,1.5389,1.533,1.4995,1.49,1.4761,1.4157,1.3592,1.3163,1.2936,1.2305,1.1521,1.0925,1.0019,0.9112,0.8513,0.825,0.8102,0.8102,0.7953,0.7681,0.7368,0.7225,0.7098,0.6763,0.6708,0.6708,0.6708,0.6515,0.6387,0.6387,0.6383,0.6339,0.6219,0.6203,0.5832,0.5049,0.4413,0.372,0.2938,0.232,0.1933,0.1797,0.1797,0.1797,0.1797,0.1797,0.1797,0.1797,0.1797,0.1797,0.9775,1.0629,1.1463,1.124,1.1452,1.1621,1.1164,1.0228,0.9346,0.8794,0.8334,0.8063,0.818,0.837,0.8751,0.949,0.9984,1.0669,1.1731,1.2244,1.2935,1.4034,1.4633,1.5182,1.5709,1.5943,1.6148,1.6397,1.6411,1.6323,1.6074,1.606,1.6155,1.6404,1.617,1.606,1.606,1.5745,1.5542,1.5542,1.5433,1.5389,1.5389,1.5389,1.5389,1.5389,1.5389,1.5389,1.5389,1.5389,1.5389,1.5389,1.5389,1.5389,1.5389,1.5389,1.5389,1.5389,1.5389,1.5389,1.5389,1.5389,1.5389,1.5287,1.4779,1.4618,1.4479,1.3828,1.3535,1.3382,1.3346,1.2622,1.1872,1.1848,1.0726,0.9674,0.9463,0.9056,0.8641,0.8365,0.8255,0.8094,0.7718,0.7497,0.7328,0.7141,0.6959,0.6843,0.6843,0.6782,0.6712,0.6609,0.6609,0.6506,0.6223,0.6207,0.5959,0.543,0.468,0.3981,0.3408,0.2571,0.2017,0.1797,0.1797,0.1797,0.1797,0.1797,0.1797,0.1797,0.1797,0.1797,0.9652,1.0282,1.0884,1.0647,1.0817,1.0959,1.0586,0.9828,0.9075,0.8666,0.8107,0.7756,0.7975,0.8121,0.8436,0.9153,0.9673,1.0307,1.1291,1.1853,1.2609,1.38,1.4845,1.5569,1.5777,1.5911,1.6059,1.6253,1.6181,1.605,1.5815,1.5773,1.5818,1.6009,1.5833,1.5688,1.5688,1.5491,1.5389,1.5389,1.5389,1.5389,1.5389,1.5389,1.5389,1.5389,1.5389,1.5389,0.0,1.5389,1.5389,1.5389,1.5389,1.5389,1.5389,1.5389,1.5389,1.5389,1.5389,1.5389,1.5389,1.5389,1.5301,1.5104,1.4626,1.4335,1.4056,1.3609,1.3492,1.3492,1.3492,1.3039,1.2549,1.2445,1.1434,1.0389,1.0067,0.9473,0.8908,0.8594,0.8441,0.8301,0.7954,0.7758,0.7562,0.74,0.7169,0.7007,0.7007,0.6946,0.6881,0.6778,0.6741,0.6628,0.6418,0.6314,0.6155,0.5831,0.515,0.4483,0.3854,0.3009,0.2382,0.1951,0.1869,0.1828,0.1828,0.1808,0.1797,0.1797,0.1797,0.1808,0.0,0.9788,0.9844,1.0199,1.0201,1.0122,1.0183,0.9651,0.0,0.8498,0.8024,0.7726,0.7756,0.8012,0.8334,0.8721,0.9574,1.0388,1.1048,1.1721,1.2579,1.3759,1.4926,1.5622,1.5622,1.5904,1.6087,1.6087,1.5873,1.5733,1.5692,1.5499,1.5431,1.5389,1.5389,1.5389,1.5389,1.5389,1.5389,1.5389,1.5389,1.5389,1.5389,1.5389,1.5389,1.5389,1.5389,1.5389,1.5389,1.5389,1.5389,1.5389,1.5389,1.5389,1.5382,1.536,1.5367,1.5382,1.536,1.5367,1.5382,1.536,1.5133,1.4805,1.4531,1.4049,1.3521,1.3506,1.3492,1.3492,1.3492,1.3492,1.3346,1.2783,1.2077,1.126,1.0475,0.9657,0.9022,0.878,0.8551,0.8344,0.8166,0.7961,0.7756,0.7564,0.7359,0.725,0.7237,0.704,0.6946,0.6913,0.6811,0.6741,0.6708,0.6515,0.6339,0.6219,0.5761,0.5119,0.4296,0.3587,0.2928,0.234,0.209,0.1967,0.1904,0.1823,0.1797,0.1797,0.1801,0.1831,0.8959,0.0,0.9299,0.9136,0.9116,0.914,0.0,0.891,0.8618,0.8445,0.811,0.7971,0.8393,0.8319,0.8546,0.9599,1.0272,1.0841,1.1417,1.2806,1.4014,1.4699,1.5507,1.5973,1.5973,1.6041,1.6087,1.6087,1.6046,1.5914,1.5692,1.5658,1.5582,1.5389,1.5389,1.5389,1.5389,1.5389,1.5389,1.5389,1.5389,1.5389,1.5389,1.5389,1.5389,1.5389,1.5389,1.5389,1.5389,1.5389,1.5389,1.5389,1.5389,1.5389,1.536,1.5104,1.517,1.5352,1.5104,1.5177,1.5345,1.5097,1.4845,1.4516,1.4194,1.4027,1.3814,1.3565,1.3492,1.3492,1.3492,1.3492,1.3455,1.3309,1.279,1.2114,1.1298,1.0475,0.9733,0.9056,0.8784,0.8613,0.8562,0.8388,0.8182,0.7972,0.78,0.7612,0.7447,0.7396,0.7297,0.7138,0.7101,0.697,0.6708,0.6515,0.6339,0.6219,0.5761,0.5279,0.482,0.3931,0.3507,0.3651,0.304,0.2496,0.1982,0.1859,0.1797,0.1798,0.1841,0.1897,0.8282,0.8699,0.918,0.9052,0.9024,0.902,0.898,0.8723,0.8464,0.8327,0.8124,0.8083,0.8566,0.8641,0.8932,0.9941,1.0557,1.121,1.2035,1.3452,1.4615,1.5034,1.5828,1.6368,1.6368,1.6368,1.6368,1.6368,1.6286,1.6154,1.6023,1.5948,1.5831,1.5714,1.5714,1.5639,1.5389,1.5506,1.5506,1.5389,1.5506,1.5506,1.5389,1.5389,1.5389,1.5389,1.5389,1.5389,1.5389,1.5389,1.5389,1.5389,1.5389,1.5389,1.5367,1.5192,1.5236,1.536,1.5185,1.5243,1.536,1.5185,1.4853,1.4474,1.4298,1.3996,1.3718,1.3543,1.3492,1.3492,1.3492,1.3492,1.3492,1.3492,1.282,1.204,1.1521,1.055,0.962,0.9099,0.8822,0.8703,0.8703,0.8533,0.8363,0.8245,0.7971,0.7773,0.7655,0.755,0.7456,0.7363,0.7265,0.7134,0.6937,0.6745,0.6539,0.631,0.6201,0.5937,0.5434,0.4849,0.447,0.4283,0.3546,0.2948,0.2513,0.2155,0.1965,0.1908,0.1939,0.1968,0.7931,0.8548,0.9237,0.9178,0.9233,0.9258,0.9152,0.8859,0.859,0.8406,0.8273,0.8332,0.8806,0.909,0.9512,1.0268,1.091,1.1752,1.2942,1.3998,1.4789,1.5219,1.61,1.6689,1.6689,1.6689,1.6689,1.6689,1.6517,1.6435,1.6394,1.6245,1.6128,1.6087,1.6087,1.5922,1.5514,1.5665,1.5665,1.5514,1.5606,1.5591,1.5433,1.5391,1.535,1.535,1.5357,0.0,1.5309,1.5258,1.5243,1.5243,1.5243,1.5272,1.5301,1.5206,1.5258,1.5389,1.5389,1.5389,1.5382,1.533,1.4955,1.4496,1.4445,1.3975,1.3492,1.3492,1.3492,1.3492,1.3492,1.3492,1.3492,1.3492,1.2709,1.1892,1.1521,1.0475,0.9511,0.9284,0.8975,0.878,0.8856,0.8674,0.8476,0.8406,0.8075,0.7849,0.7821,0.7626,0.7489,0.7489,0.7363,0.7237,0.7204,0.7073,0.6843,0.6486,0.6749,0.6618,0.5954,0.5968,0.5555,0.4639,0.4038,0.3587,0.3196,0.2649,0.2248,0.2034,0.2013,0.2045,0.858,0.9124,0.9308,0.8355,0.8722,0.9213,0.8855,0.9031,0.9234,0.9149,0.9119,0.9353,1.0143,1.011,1.0344,1.1584,1.2112,1.2871,1.4374,1.4737,1.5147,1.5929,1.6444,1.6689,1.6689,1.6689,1.6689,1.6689,1.6648,1.6566,1.6394,1.6353,1.6278,1.6095,1.6087,1.6087,1.6004,1.6004,1.6004,1.6004,1.5756,1.5619,1.5579,1.5322,1.5234,1.5234,0.0,1.4973,1.4958,1.4728,1.4658,1.4658,1.4658,1.4779,1.4907,1.4406,1.4728,1.5389,1.5389,1.5389,1.5345,1.5068,1.4772,1.4452,1.4181,1.3799,1.3492,1.3492,1.3492,1.3492,1.3492,1.3492,1.3492,1.3492,1.3346,1.2936,1.1892,1.1223,1.07,1.0331,0.9544,0.9132,0.962,0.9253,0.8797,0.8466,0.8193,0.8006,0.7835,0.7626,0.7489,0.7489,0.7456,0.7396,0.7204,0.733,0.7232,0.6848,0.6881,0.6646,0.6079,0.6486,0.623,0.5118,0.5308,0.4869,0.3684,0.3324,0.2797,0.2159,0.2121,0.2087,0.8266,0.8723,0.9043,0.8743,0.94,1.0027,0.9747,0.9834,0.9978,0.9961,0.9961,1.0142,1.07,1.0841,1.1255,1.2461,1.2997,1.3584,1.4514,1.4959,1.5311,1.5701,1.6158,1.6373,1.6182,1.6158,1.6158,1.6158,1.6158,1.6127,1.6039,1.6039,1.596,1.5888,1.5888,1.5888,1.5888,1.5888,1.587,1.5812,1.578,1.5604,1.5262,1.5136,1.5089,1.5089,0.0,1.4946,1.4932,1.4821,1.4691,1.4621,1.4621,1.4631,1.4648,1.4355,1.475,1.536,1.5185,1.5243,1.536,1.5214,1.4874,1.4482,1.4328,1.3894,1.3492,1.3492,1.3492,1.3492,1.3492,1.3492,1.3492,1.3492,1.3236,1.2783,1.1892,1.1484,1.1111,1.0594,1.0293,1.0105,1.0067,0.9733,0.9324,0.8815,0.8465,0.8222,0.8127,0.7868,0.7664,0.7664,0.756,0.7456,0.7363,0.7461,0.7428,0.7237,0.7106,0.7003,0.6868,0.7003,0.6833,0.6282,0.6085,0.5467,0.451,0.4057,0.345,0.2749,0.2621,0.2538,0.8194,0.8542,0.8946,0.9353,0.9965,1.0507,1.0693,1.0679,1.0687,1.0934,1.0982,1.1069,1.134,1.1702,1.2274,1.3187,1.3695,1.4144,1.454,1.5012,1.538,1.5459,1.585,1.5975,1.5705,1.5712,1.5712,1.5712,1.5712,1.5712,1.5712,1.5712,1.5712,1.5712,1.5712,1.5712,1.5712,1.5712,1.5661,1.562,1.5701,1.5483,1.5019,1.4981,1.4942,1.4942,1.4904,1.4904,1.4896,1.482,1.4721,1.4537,1.4507,1.4392,1.4306,1.4494,1.4845,1.5182,1.4966,1.5119,1.5367,1.5255,1.4918,1.4567,1.4533,1.4159,1.3704,1.3631,1.3609,1.3594,1.3514,1.3492,1.3492,1.3492,1.3163,1.2636,1.204,1.1744,1.1484,1.1074,1.1074,1.1037,1.055,1.0218,0.9733,0.9099,0.865,0.8387,0.8335,0.8009,0.7792,0.7745,0.7588,0.7489,0.7489,0.7489,0.7489,0.7489,0.7363,0.733,0.7489,0.7363,0.7265,0.7265,0.6704,0.6075,0.5415,0.4815,0.4154,0.3458,0.3192,0.2956,0.9065,0.9281,0.9438,0.9771,0.9676,0.9851,1.1122,1.1177,1.126,1.224,1.2439,1.2455,1.2479,1.302,1.3568,1.3966,1.432,1.4692,1.5094,1.5189,1.534,1.5642,1.5697,1.5744,1.572,1.5712,1.5712,1.5712,1.5712,1.5712,1.5712,1.5712,1.5712,1.5712,1.5712,1.5712,1.5712,1.5712,1.569,1.5675,1.5404,1.5245,1.5184,1.4944,1.4816,1.4824,1.4674,1.4636,1.4614,1.4292,1.417,1.4133,1.393,1.3748,1.3675,1.4535,1.475,1.4614,1.4805,1.5119,1.5328,1.4735,1.4706,1.4812,1.4599,1.4474,1.4372,1.4071,1.3945,1.3879,1.3572,1.3492,1.3492,1.3492,1.3455,1.3273,1.2673,1.2378,1.2268,1.2415,1.1855,1.1372,1.1335,1.0663,0.9922,0.9137,0.865,0.833,0.8127,0.7949,0.7735,0.7536,0.7498,0.7489,0.7489,0.7489,0.7489,0.7489,0.7489,0.7493,0.7489,0.7489,0.7493,0.7493,0.7423,0.7027,0.6301,0.5573,0.4878,0.4187,0.3525,0.3192,0.8538,0.9013,0.9477,0.9811,0.9994,1.0337,1.1273,1.177,1.2232,1.306,1.3227,1.3227,1.3227,1.3442,1.3696,1.4053,1.4228,1.4514,1.5102,1.5189,1.5266,1.5356,1.5372,1.5284,1.5054,1.503,1.503,1.503,1.503,1.503,1.503,1.503,1.503,1.503,1.503,1.503,1.503,1.503,1.503,1.503,1.5133,1.507,1.4811,1.473,1.4686,1.465,1.4621,1.4585,1.4577,1.4472,1.4353,1.4281,1.4065,1.3983,1.4007,1.4178,1.4346,1.4496,1.4377,1.456,1.4794,1.4585,1.4663,1.4808,1.458,1.4434,1.4319,1.4087,1.3836,1.3653,1.3528,1.3492,1.3492,1.3492,1.3492,1.3346,1.2716,1.2826,1.2973,1.2673,1.2673,1.2489,1.1706,1.1149,1.04,0.9359,0.8831,0.8562,0.8477,0.8174,0.7968,0.7887,0.7645,0.7489,0.7489,0.7489,0.7489,0.7489,0.7489,0.7489,0.7489,0.7489,0.7489,0.7489,0.7489,0.7195,0.6572,0.6305,0.5712,0.4788,0.4386,0.3956,0.824,0.8658,0.9183,0.9644,1.0033,1.0591,1.1619,1.224,1.2853,1.3727,1.3735,1.3656,1.3878,1.3648,1.3616,1.4188,1.4188,1.4323,1.4927,1.5014,1.5014,1.5014,1.5014,1.4911,1.4629,1.4605,1.4605,1.4605,1.4605,1.4605,1.4605,1.4605,1.4605,1.4605,1.4605,1.4605,1.4605,1.4605,1.4605,1.4605,1.4895,1.4879,1.4605,1.4605,1.4605,1.4605,1.4605,1.4605,1.4605,1.4605,1.4533,1.4389,1.4245,1.421,1.4223,1.4102,1.4268,1.4513,1.4282,1.4416,1.4623,1.4453,1.4597,1.4817,1.4611,1.4523,1.4471,1.42,1.397,1.38,1.3557,1.3492,1.3492,1.3492,1.3492,1.3382,1.2973,1.32,1.3382,1.2973,1.3229,1.3119,1.1892,1.1372,1.07,0.9473,0.8975,0.868,0.8614,0.8359,0.8132,0.8034,0.7702,0.7489,0.7489,0.7489,0.7489,0.7489,0.7489,0.7489,0.7489,0.7489,0.7489,0.7489,0.7489,0.733,0.6937,0.6773,0.6309,0.5583,0.5117,0.4652,0.8419,0.8402,0.8577,0.9231,0.9676,1.0407,1.2192,1.2598,1.2988,1.4312,1.4077,1.3807,1.4462,1.3783,1.3425,1.4431,1.4304,1.4193,1.455,1.4605,1.4605,1.4605,1.4605,1.4605,1.4605,1.4605,1.4605,1.4605,1.4605,1.4605,1.4605,1.4605,1.4605,1.4605,1.4605,1.4605,1.4605,1.4605,1.4605,1.4605,1.4605,1.4605,1.4605,1.4605,1.4605,1.4605,1.4605,1.4605,1.4605,1.4605,1.4533,1.4389,1.4389,1.4281,1.4139,1.4476,1.4598,1.4598,1.4598,1.4774,1.4896,1.4271,1.4507,1.4957,1.4668,1.4797,1.4911,1.4411,1.4426,1.4447,1.3682,1.3492,1.3492,1.3492,1.3492,1.3492,1.3492,1.3492,1.3492,1.3492,1.3492,1.3119,1.1892,1.1372,1.07,0.9473,0.8975,0.8628,0.8429,0.8401,0.824,0.7859,0.7622,0.7489,0.7489,0.7489,0.7489,0.7489,0.7489,0.7489,0.7489,0.7489,0.7489,0.7489,0.7489,0.7489,0.7489,0.6966,0.6708,0.6675,0.5617,0.512,0.8384,0.8905,0.9509,0.9692,1.078,1.1945,1.2471,1.2789,1.3187,1.4085,1.4101,1.3942,1.3902,1.3457,1.3267,1.3807,1.3807,1.3862,1.422,1.4447,1.4605,1.4605,1.4605,1.4605,1.4605,1.4605,1.4605,1.4605,1.4605,1.4605,1.4605,1.4605,1.4605,1.4605,1.4605,1.4605,1.4605,1.4605,1.4605,1.4605,1.4605,1.4605,1.4605,1.4605,1.4605,1.4605,1.4605,1.4605,1.4605,1.4605,1.4569,1.4533,1.4533,1.4461,1.4333,1.4434,1.4363,1.4246,1.4246,1.4307,1.4361,1.4162,1.4465,1.4887,1.4674,1.475,1.4887,1.4599,1.4393,1.4187,1.3979,1.3819,1.3681,1.3535,1.3492,1.3535,1.3681,1.3608,1.3535,1.3681,1.3608,1.3119,1.1892,1.1372,1.07,0.9473,0.8975,0.8628,0.8429,0.8269,0.8075,0.784,0.7622,0.7489,0.7489,0.7489,0.7489,0.7489,0.7489,0.7489,0.7489,0.7489,0.7489,0.7489,0.7489,0.7489,0.7489,0.7326,0.7068,0.6708,0.6375,0.6017,0.8487,0.9136,0.9819,1.024,1.136,1.2456,1.2901,1.3164,1.3402,1.3815,1.3799,1.368,1.36,1.3235,1.3036,1.3505,1.3506,1.3505,1.3854,1.4177,1.4344,1.4236,1.4431,1.455,1.4407,1.4391,1.4391,1.4391,1.4391,1.4391,1.4391,1.4526,1.4605,1.4605,1.4605,1.4605,1.4605,1.4605,1.4605,1.4605,1.4605,1.4605,1.4605,1.4605,1.4605,1.4605,1.4605,1.4605,1.4605,1.4605,1.4605,1.4605,1.4605,1.4569,1.4461,1.4461,1.4389,1.431,1.431,1.431,1.431,1.431,1.453,1.4775,1.4628,1.4665,1.4738,1.4591,1.44,1.4274,1.4129,1.4065,1.4008,1.3775,1.3674,1.3674,1.3891,1.3746,1.3645,1.3797,1.3645,1.3193,1.2231,1.1595,1.085,0.9809,0.9122,0.8656,0.8538,0.834,0.8127,0.7959,0.7745,0.7584,0.7498,0.7489,0.7489,0.7489,0.7489,0.7489,0.7489,0.7489,0.7489,0.7489,0.7489,0.7489,0.7489,0.7489,0.7326,0.6999,0.6806,0.6544,0.8693,0.9167,0.9692,1.074,1.1559,1.2369,1.3362,1.3594,1.3537,1.3537,1.3331,1.3236,1.3474,1.3044,1.2829,1.3419,1.3299,1.3195,1.3497,1.3839,1.3942,1.3657,1.4148,1.4383,1.4093,1.4093,1.4109,1.4109,1.414,1.4148,1.4109,1.4383,1.4557,1.4557,1.4557,1.4573,1.4605,1.4605,1.4605,1.4605,1.4605,1.4605,1.4605,1.4605,1.4605,1.4605,1.4605,1.4605,1.4605,1.4605,1.4605,1.4605,1.4605,1.4605,1.4605,1.4605,1.4605,1.4605,1.4605,1.4605,1.4605,1.4605,1.4605,1.4605,1.4605,1.4605,1.4569,1.4461,1.4497,1.4533,1.4201,1.4281,1.4353,1.4201,1.3992,1.3899,1.4101,1.3964,1.3826,1.3863,1.3681,1.3346,1.2716,1.2003,1.1186,1.0293,0.9344,0.8703,0.8703,0.8529,0.8321,0.8139,0.7935,0.7726,0.7508,0.7489,0.7489,0.7489,0.7489,0.7489,0.7489,0.7489,0.7489,0.7489,0.7489,0.7489,0.7489,0.7489,0.7489,0.7489,0.7003,0.6773,0.8685,0.935,0.9977,1.0796,1.194,1.2989,1.3506,1.3419,1.3195,1.3195,1.3348,1.3394,1.3033,1.2933,1.2915,1.2977,1.3052,1.3116,1.3187,1.3481,1.3664,1.3626,1.3719,1.3783,1.3703,1.395,1.4109,1.4109,1.4336,1.4375,1.4125,1.418,1.4228,1.4228,1.4228,1.432,1.4597,1.4605,1.4605,1.4605,1.4605,1.4605,1.4605,1.4605,1.4605,1.4605,1.4605,1.4605,1.4605,1.4605,1.4605,1.4605,1.4605,1.4605,1.4605,1.4605,1.4605,1.4605,1.4605,1.4605,1.4605,1.4605,1.4605,1.4605,1.4605,1.4605,1.4605,1.4569,1.4569,1.4569,1.4497,1.4461,1.4425,1.4497,1.4245,1.4101,1.4281,1.4173,1.4065,1.4245,1.3964,1.3535,1.2936,1.2415,1.1632,1.018,0.9392,0.8865,0.8703,0.8529,0.8321,0.8139,0.7935,0.7726,0.7508,0.7489,0.7489,0.7489,0.7489,0.7489,0.7489,0.7489,0.7489,0.7489,0.7489,0.7489,0.7489,0.7489,0.7489,0.7489,0.7391,0.7326,0.8659,0.9383,1.0191,1.1439,1.2425,1.3179,1.3505,1.3449,1.3395,1.3599,1.3419,1.3229,1.3306,1.3104,1.2867,1.2805,1.2843,1.2869,1.2869,1.3164,1.3282,1.3148,1.3537,1.3767,1.3634,1.3902,1.4109,1.4109,1.445,1.4517,1.4263,1.4485,1.4493,1.4263,1.4143,1.4117,1.4132,1.4132,1.422,1.4351,1.4351,1.4439,1.4605,1.4605,1.4605,1.4605,1.4605,1.4605,1.4605,1.4605,1.4605,1.4605,1.4605,1.4605,1.4605,1.4605,1.4605,1.4605,1.4605,1.4605,1.4605,1.4605,1.4605,1.4605,1.4605,1.4605,1.4605,1.4605,1.4605,1.4605,1.4605,1.4533,1.4497,1.4569,1.4425,1.4281,1.4461,1.4353,1.4281,1.4397,1.4145,1.3855,1.3513,1.2996,1.2107,1.07,1.0024,0.9685,0.9571,0.9398,0.916,0.8957,0.8816,0.8544,0.8012,0.7987,0.7949,0.7847,0.7917,0.7949,0.7847,0.7917,0.7819,0.7489,0.7489,0.7489,0.7489,0.7489,0.7489,0.7489,0.7489,0.7489,0.8445,0.9288,1.031,1.2073,1.2766,1.3084,1.3458,1.3497,1.3653,1.4123,1.3653,1.3331,1.3977,1.3536,1.3048,1.2987,1.2784,1.2629,1.259,1.2845,1.2925,1.263,1.3378,1.3823,1.3521,1.387,1.4109,1.4109,1.4476,1.463,1.4401,1.4817,1.4868,1.4409,1.4156,1.391,1.368,1.3616,1.3727,1.4021,1.4077,1.4299,1.4605,1.4605,1.4605,1.4605,1.4605,1.4605,1.4605,1.4605,1.4605,1.4605,1.4605,1.4605,1.4605,1.4605,1.4605,1.4605,1.4605,1.4605,1.4605,1.4605,1.4605,1.4605,1.4605,1.4605,1.4605,1.4605,1.4605,1.4605,1.4605,1.4605,1.4605,1.4605,1.4533,1.4461,1.4569,1.4497,1.4425,1.4425,1.4281,1.4129,1.4093,1.3462,1.2615,1.1589,1.1056,1.0752,1.0694,1.0545,1.0319,1.0014,0.9962,0.9622,0.8712,0.8641,0.8538,0.8269,0.8409,0.8414,0.8269,0.8409,0.8252,0.7689,0.7657,0.7619,0.7587,0.7554,0.7526,0.7489,0.7489,0.7489,0.7758,0.8907,1.0246,1.1697,1.2369,1.2758,1.3076,1.3155,1.3405,1.4205,1.4409,1.4512,1.4809,1.4487,1.4101,1.3796,1.3194,1.2744,1.2621,1.263,1.2646,1.2598,1.2957,1.3211,1.3163,1.3735,1.4109,1.4109,1.4579,1.4733,1.4417,1.4476,1.4484,1.4401,1.3916,1.3775,1.4037,1.3735,1.3608,1.3656,1.3966,1.4299,1.4605,1.4605,1.4605,1.4605,1.4605,1.4605,1.4605,1.4605,1.4605,1.4605,1.4605,1.4605,1.4605,1.4605,1.4605,1.4605,1.4605,1.4605,1.4605,1.4605,1.4605,1.4605,1.4605,1.4605,1.4605,1.4605,1.4605,1.4605,1.4605,1.4605,1.4605,1.4605,1.4605,1.4569,1.4605,1.4605,1.4569,1.4569,1.4461,1.4317,1.4129,1.3586,1.3039,1.2718,1.2161,1.1749,1.157,1.1533,1.1283,1.0732,1.067,1.0254,0.9283,0.9177,0.8985,0.8479,0.8479,0.8484,0.8447,0.8479,0.8452,0.8382,0.8209,0.8042,0.7917,0.7759,0.7629,0.7489,0.7489,0.7489,0.8115,0.9137,1.0143,1.1193,1.186,1.2353,1.2742,1.2981,1.3381,1.4311,1.4575,1.4638,1.465,1.4252,1.3798,1.3436,1.3057,1.2744,1.2621,1.259,1.259,1.259,1.2909,1.3163,1.3346,1.3823,1.4196,1.4359,1.4803,1.4934,1.4673,1.4798,1.4708,1.4409,1.4068,1.3862,1.3815,1.3481,1.3306,1.3306,1.3656,1.4005,1.4312,1.4312,1.4415,1.4605,1.4605,1.4605,1.4605,1.4605,1.4605,1.4605,1.4605,1.4605,1.4605,1.4605,1.4605,1.4605,1.4605,1.4605,1.4605,1.4605,1.4605,1.4605,1.4605,1.4605,1.4605,1.4605,1.4605,1.4605,1.4605,1.4605,1.4605,1.4605,1.4605,1.4605,1.4605,1.4605,1.4605,1.4605,1.4569,1.4497,1.4389,1.4173,1.384,1.3455,1.3084,1.2792,1.2732,1.2622,1.2415,1.2116,1.1923,1.1485,1.0666,1.0136,0.9722,0.9364,0.9151,0.9028,0.8958,0.9028,0.906,0.906,0.8501,0.8139,0.7987,0.7797,0.7629,0.7489,0.7489,0.7489,0.8143,0.8866,0.9446,1.0367,1.1114,1.1717,1.2113,1.2565,1.3169,1.3994,1.4313,1.4423,1.4328,1.4009,1.3656,1.3336,1.3046,1.2805,1.2621,1.259,1.259,1.259,1.2909,1.3219,1.3586,1.3902,1.426,1.4573,1.4927,1.507,1.49,1.5034,1.4947,1.4547,1.418,1.3894,1.3719,1.3298,1.3092,1.3092,1.3338,1.364,1.3982,1.4069,1.4177,1.4344,1.4431,1.447,1.447,1.447,1.4526,1.4605,1.4605,1.4605,1.4605,1.4605,1.4605,1.4605,1.4605,1.4605,1.4605,1.4605,1.4605,1.4605,1.4605,1.4605,1.4605,1.4605,1.4605,1.4605,1.4605,1.4605,1.4605,1.4605,1.4605,1.4605,1.4605,1.4605,1.4605,1.4605,1.4605,1.4605,1.4605,1.4605,1.4453,1.4049,1.3869,1.376,1.3783,1.3637,1.3504,1.3374,1.3051,1.2569,1.1844,1.1106,1.0548,1.0275,0.9913,0.967,0.9562,0.951,0.9516,0.9516,0.8823,0.8398,0.8242,0.8025,0.7792,0.7619,0.7591,0.7526,0.7102,0.7412,0.7761,0.9136,1.0042,1.0671,1.1003,1.1825,1.2592,1.2852,1.3488,1.4033,1.4015,1.432,1.4426,1.4099,1.3459,1.2897,1.2652,1.259,1.259,1.259,1.2909,1.3219,1.3586,1.3902,1.426,1.4573,1.4792,1.49,1.4908,1.49,1.4892,1.4875,1.4068,1.3767,1.4077,1.3425,1.3092,1.3092,1.3108,1.329,1.3657,1.3958,1.3942,1.3656,1.3989,1.414,1.414,1.414,1.4304,1.4605,1.4605,1.4605,1.4605,1.4605,1.4605,1.4605,1.4605,1.4605,1.4605,1.4605,1.4605,1.4605,1.4605,1.4605,1.4605,1.4605,1.4605,1.4605,1.4605,1.4605,1.4605,1.4605,1.4605,1.4605,1.4605,1.4605,1.4605,1.4605,1.4605,1.4605,1.4605,1.4605,1.4605,1.4569,1.4569,1.4533,1.4533,1.4533,1.4399,1.4079,1.3757,1.3218,1.2333,1.1933,1.149,1.0982,1.0516,1.0276,1.0244,0.9766,0.9516,0.9516,0.9344,0.9145,0.8952,0.8608,0.8284,0.7954,0.7792,0.7629,0.6824,0.7142,0.7475,0.8186,0.924,1.0153,1.028,1.1242,1.2282,1.2813,1.3287,1.3747,1.4213,1.4375,1.4253,1.3786,1.3422,1.3094,1.2775,1.2652,1.259,1.259,1.2702,1.2917,1.3235,1.3378,1.36,1.3934,1.4207,1.4274,1.4084,1.4284,1.4308,1.4076,1.3753,1.3648,1.3775,1.3529,1.341,1.3402,1.3195,1.3267,1.361,1.3497,1.3386,1.3275,1.3402,1.3576,1.3791,1.4021,1.4188,1.4288,1.4518,1.4605,1.4605,1.4605,1.4605,1.4605,1.4605,1.4605,1.4605,1.4605,1.4605,1.4605,1.4605,1.4605,1.4605,1.4605,1.4605,1.4605,1.4605,1.4605,1.4605,1.4605,1.4605,1.4605,1.4605,1.4605,1.4605,1.4605,1.4605,1.4605,1.4605,1.4605,1.4605,1.4605,1.4605,1.4605,1.4605,1.4605,1.4557,1.4431,1.4132,1.3715,1.3162,1.2504,1.1938,1.1536,1.1021,1.0618,1.0301,1.0117,0.9862,0.9516,0.9792,0.9626,0.8985,0.8797,0.8576,0.8317,0.8112,0.7949,0.6411,0.6634,0.6936,0.7489,0.8398,0.9225,0.9586,1.0681,1.1819,1.2439,1.3005,1.3562,1.4163,1.4236,1.4046,1.3644,1.3571,1.3359,1.2867,1.2683,1.259,1.259,1.259,1.2734,1.306,1.3092,1.3227,1.3553,1.4001,1.4135,1.38,1.417,1.4171,1.3614,1.3653,1.3539,1.3275,1.3498,1.3529,1.3442,1.3195,1.3211,1.341,1.3187,1.3028,1.2949,1.3036,1.3219,1.3433,1.3672,1.3902,1.4132,1.4336,1.4502,1.4605,1.4605,1.4605,1.4605,1.4605,1.4605,1.4605,1.4605,1.4605,1.4605,1.4605,1.4605,1.4605,1.4605,1.4605,1.4605,1.4605,1.4605,1.4605,1.4605,1.4605,1.4605,1.4605,1.4605,1.4605,1.4605,1.4605,1.4605,1.4605,1.4605,1.4605,1.4605,1.4605,1.4605,1.4605,1.4605,1.4605,1.4605,1.4288,1.3966,1.3616,1.2981,1.2424,1.2081,1.1584,1.1115,1.0839,1.0611,1.0364,1.0015,1.0364,1.0263,0.9684,0.937,0.9017,0.8673,0.8474,0.8306,0.0,0.0,0.0,0.6991,0.7411,0.7858,0.8902,1.0126,1.1155,1.1621,1.2534,1.3369,1.3819,1.3892,1.3887,1.3811,1.3914,1.3734,1.2981,1.2744,1.2652,1.2652,1.2652,1.2757,1.3068,1.3108,1.3235,1.3562,1.4213,1.4476,1.4156,1.4663,1.4556,1.3633,1.3737,1.3397,1.2614,1.3267,1.3442,1.314,1.3164,1.3156,1.3156,1.3148,1.2948,1.2668,1.2988,1.314,1.314,1.3116,1.3489,1.4101,1.4109,1.4288,1.4605,1.4605,1.4605,1.4605,1.4605,1.4605,1.4605,1.4605,1.4605,1.4605,1.4605,1.4605,1.4605,1.4605,1.4605,1.4605,1.4605,1.4605,1.4605,1.4605,1.4605,1.4605,1.4605,1.4605,1.4605,1.4605,1.4605,1.4605,1.4605,1.4605,1.4605,1.4605,1.4605,1.4605,1.4605,1.4605,1.4597,1.4589,1.428,1.3966,1.3616,1.3282,1.2949,1.263,1.2127,1.1833,1.1802,1.1303,1.1014,1.0982,1.1014,1.1014,1.0982,1.0345,0.9678,0.9049,0.8894,0.8705,0.5794,0.0,0.0,0.0,0.0,0.0,0.7558,0.8593,0.9911,1.1319,1.1834,1.2362,1.3548,1.3799,1.3876,1.3984,1.4209,1.4341,1.4323,1.4133,1.3962,1.3962,1.3631,1.3402,1.3389,1.349,1.3523,1.3532,1.4457,1.4898,1.4547,1.4681,1.4514,1.39,1.3697,1.3426,1.3099,1.3628,1.3995,1.4186,1.4372,1.4461,1.4484,1.4224,1.4068,1.3971,1.4077,1.41,1.4057,1.3385,1.3346,1.3751,1.4013,1.4288,1.4605,1.4605,1.4605,1.4605,1.4605,1.4605,1.4605,1.4605,1.4605,1.4605,1.4605,1.4605,1.4605,1.4605,1.4605,1.4605,1.4605,1.4605,1.4605,1.4605,1.4605,1.4605,1.4605,1.4605,1.4605,1.4605,1.4605,1.4605,1.4605,1.4605,1.4605,1.4605,1.4605,1.4605,1.4605,1.4605,1.451,1.4248,1.4172,1.3966,1.3616,1.3282,1.3052,1.2981,1.2609,1.2212,1.1833,1.1646,1.1397,1.1021,1.1397,1.1397,1.0982,1.0825,1.0446,0.9919,0.9247,0.899,0.6083,0.6251,0.6435,0.6149,0.0,0.0,0.7714,0.8586,0.9696,1.114,1.1547,1.2006,1.3211,1.3439,1.3642,1.433,1.4628,1.483,1.4885,1.4717,1.4549,1.4499,1.4231,1.4013,1.4004,1.4013,1.4043,1.4094,1.4893,1.5378,1.5371,1.5128,1.4835,1.451,1.4192,1.3947,1.3791,1.4217,1.4535,1.4778,1.4935,1.4982,1.5003,1.4653,1.4499,1.4499,1.4499,1.4499,1.4458,1.3913,1.3728,1.3794,1.3919,1.4143,1.4399,1.455,1.4605,1.4605,1.4605,1.4605,1.4605,1.4605,1.4605,1.4605,1.4605,1.4605,1.4605,1.4605,1.4605,1.4605,1.4605,1.4605,1.4605,1.4605,1.4605,1.4605,1.4605,1.4605,1.4605,1.4605,1.4605,1.4605,1.4605,1.4605,1.4605,1.4605,1.4605,1.4605,1.4605,1.4605,1.447,1.4148,1.4109,1.391,1.3418,1.3203,1.3028,1.2909,1.271,1.2467,1.2151,1.212,1.1996,1.1677,1.1957,1.1996,1.1677,1.1428,1.1083,1.0586,0.9881,0.9594,0.657,0.6625,0.6919,0.7134,0.7172,0.0,0.8485,0.9218,0.9938,1.0835,1.1274,1.176,1.2659,1.273,1.3085,1.4369,1.482,1.5006,1.5003,1.4934,1.4835,1.4736,1.4647,1.4667,1.4767,1.4688,1.4756,1.4972,1.5458,1.594,1.6381,1.5884,1.5468,1.5323,1.4971,1.4715,1.4529,1.4857,1.5041,1.5041,1.5133,1.5164,1.5155,1.4853,1.4706,1.4706,1.4706,1.4706,1.4706,1.4647,1.4435,1.411,1.3966,1.4035,1.426,1.4541,1.4605,1.4605,1.4605,1.4605,1.4605,1.4605,1.4605,1.4605,1.4605,1.4605,1.4605,1.4605,1.4605,1.4605,1.4605,1.4605,1.4605,1.4605,1.4605,1.4605,1.4605,1.4605,1.4605,1.4605,1.4605,1.4605,1.4605,1.4605,1.4605,1.4605,1.4605,1.4605,1.4605,1.4573,1.4415,1.4093,1.4021,1.3751,1.3147,1.306,1.2917,1.267,1.2614,1.259,1.259,1.259,1.259,1.259,1.259,1.259,1.259,1.2058,1.1553,1.1076,1.0611,1.0364,0.7062,0.7158,0.7086,0.6618,0.7361,0.0,0.7176,0.7992,0.9089,0.9712,0.9684,0.9858,1.0895,1.1117,1.1445,1.2402,1.3182,1.416,1.5499,1.5918,1.6048,1.6019,1.5701,1.54,1.5294,1.5497,1.5575,1.5468,1.6244,1.6842,1.7099,1.6751,1.6343,1.5941,1.5497,1.5059,1.4647,1.5116,1.5331,1.5331,1.5879,1.6122,1.6112,1.606,1.6019,1.6019,1.6019,1.6019,1.599,1.5614,1.5198,1.4809,1.4672,1.473,1.4898,1.4869,1.4748,1.4605,1.4605,1.4605,1.4605,1.4605,1.4605,1.4605,1.4605,1.4605,1.4605,1.4605,1.4605,1.4605,1.4605,1.4605,1.4605,1.4605,1.4605,1.4605,1.4605,1.4605,1.4605,1.4605,1.4605,1.4605,1.4605,1.4605,1.4605,1.4605,1.4605,1.4605,1.4605,1.4351,1.4077,1.3719,1.3449,1.3235,1.3108,1.2861,1.2789,1.3004,1.275,1.259,1.259,1.259,1.259,1.259,1.259,1.259,1.259,1.2058,1.174,1.1646,1.1115,1.0863,0.76,0.7698,0.7772,0.743,0.7877,0.0,0.0,0.835,0.9072,0.9841,0.9681,0.9709,1.0712,1.09,1.1125,1.1789,1.259,1.3423,1.4274,1.5222,1.579,1.5718,1.5488,1.5431,1.5634,1.5749,1.5897,1.6169,1.6797,1.7183,1.7306,1.6987,1.6694,1.6467,1.6095,1.5778,1.5546,1.5778,1.5894,1.5894,1.623,1.6413,1.6413,1.6413,1.6413,1.6413,1.6413,1.6508,1.6665,1.6236,1.6038,1.5922,1.5002,1.4623,1.4545,1.4639,1.452,1.4438,1.4996,1.5204,1.5204,1.5275,1.5232,1.5133,1.4856,1.4677,1.4605,1.4605,1.4605,1.4605,1.4605,1.4605,1.4605,1.4605,1.4605,1.4605,1.4605,1.4605,1.4605,1.4605,1.4605,1.4605,1.4605,1.4605,1.4605,1.4605,1.4454,1.4344,1.4344,1.4069,1.3719,1.3403,1.3187,1.302,1.2877,1.2694,1.267,1.2853,1.2694,1.259,1.259,1.259,1.259,1.259,1.259,1.259,1.259,1.2344,1.2212,1.2182,1.1646,1.1397,0.8265,0.8349,0.8545,0.8338,0.8487,0.8685,0.0,0.0,0.0,1.0038,0.9902,0.9908,1.0747,1.0872,1.0954,1.133,1.2038,1.2481,1.2398,1.3601,1.4568,1.4723,1.4811,1.506,1.5547,1.5472,1.5704,1.6499,1.6683,1.6869,1.7114,1.6847,1.6722,1.6818,1.6545,1.6413,1.6413,1.6431,1.6431,1.6431,1.6431,1.6431,1.6431,1.6402,1.6413,1.6413,1.6413,1.6581,1.6862,1.6529,1.6591,1.6745,1.5367,1.4622,1.4391,1.4698,1.4694,1.4666,1.566,1.6,1.6009,1.6009,1.5833,1.5524,1.4999,1.4721,1.4605,1.4605,1.4605,1.4605,1.4605,1.4605,1.4605,1.4605,1.4605,1.4605,1.4605,1.4605,1.4605,1.4605,1.4605,1.4605,1.4605,1.4605,1.4605,1.4605,1.4304,1.4109,1.4109,1.3743,1.3386,1.3116,1.3028,1.2877,1.2622,1.259,1.259,1.259,1.259,1.259,1.259,1.259,1.259,1.259,1.259,1.259,1.259,1.259,1.259,1.259,1.2151,1.1957,0.9216,0.9247,0.9056,0.8107,0.8939,0.9523,0.7815,0.0,0.9371,0.9129,0.0,0.9256,0.9782,0.0,0.0,0.9934,1.0612,1.0974,1.0561,1.1374,1.2431,1.3631,1.4138,1.4407,1.4484,1.4303,1.4627,1.5655,1.5118,1.5258,1.6535,1.6315,1.6371,1.6797,1.6545,1.6413,1.6413,1.6534,1.6581,1.6581,1.6581,1.6581,1.6581,1.6459,1.6413,1.6413,1.6413,1.6444,1.6446,1.6423,1.6444,1.643,1.6118,1.5863,1.5733,1.6113,1.6133,1.6044,1.6587,1.6768,1.6698,1.6184,1.5559,1.4971,1.4713,1.4605,1.4605,1.4605,1.4605,1.4605,1.4605,1.4605,1.4605,1.4605,1.4605,1.4605,1.4605,1.4605,1.4605,1.4605,1.4605,1.4605,1.4605,1.4605,1.4605,1.4605,1.4304,1.4109,1.4109,1.3545,1.3132,1.3092,1.2837,1.2638,1.2598,1.259,1.259,1.259,1.259,1.259,1.259,1.259,1.259,1.259,1.259,1.259,1.259,1.259,1.259,1.259,1.2529,1.2498,0.9198,0.9398,0.9442,0.8688,0.9119,0.9432,0.828,0.8609,0.9164,0.9237,0.0,0.0,0.0,0.0,0.0,0.0,0.9874,0.9932,0.9512,0.9787,1.0534,1.1871,1.2202,1.2626,1.34,1.3802,1.4403,1.5406,1.4822,1.4886,1.6029,1.617,1.631,1.6513,1.6595,1.663,1.663,1.6705,1.6722,1.6722,1.6637,1.6599,1.6599,1.6459,1.6413,1.6413,1.6413,1.6529,1.6746,1.6582,1.6691,1.6892,1.6566,1.6097,1.5662,1.603,1.6048,1.6085,1.7152,1.755,1.7491,1.7242,1.6481,1.5657,1.5374,1.507,1.4756,1.4641,1.4605,1.4605,1.4605,1.4605,1.4605,1.4605,1.4605,1.4605,1.4605,1.4605,1.4605,1.4605,1.4605,1.4605,1.4605,1.4605,1.4605,1.4605,1.4164,1.3807,1.3807,1.3211,1.2813,1.2813,1.2678,1.259,1.259,1.259,1.259,1.259,1.259,1.259,1.259,1.259,1.259,1.259,1.259,1.259,1.259,1.259,1.259,1.259,1.259,1.259,0.9523,0.981,0.9928,0.9128,0.9239,0.9271,0.8389,0.8633,0.9133,0.9447,0.9716,0.0,0.0,0.0,0.9647,0.9513,0.0,0.9313,0.8782,0.8813,0.9269,1.0246,1.0683,1.1386,1.2627,1.2887,1.3466,1.4528,1.3854,1.3991,1.5281,1.5711,1.6036,1.6294,1.6629,1.6818,1.6818,1.6835,1.6864,1.6864,1.6768,1.6684,1.6637,1.6506,1.6431,1.6413,1.6413,1.6661,1.7064,1.6741,1.6901,1.7309,1.6845,1.6285,1.5761,1.6077,1.6214,1.6434,1.7671,1.8107,1.808,1.8037,1.7345,1.6446,1.6,1.5524,1.507,1.4784,1.4641,1.4605,1.4605,1.4605,1.4605,1.4605,1.4605,1.4605,1.4605,1.4605,1.4605,1.4605,1.4605,1.4605,1.4605,1.4605,1.4605,1.4605,1.4037,1.3618,1.3618,1.3012,1.259,1.259,1.259,1.259,1.259,1.259,1.259,1.259,1.259,1.259,1.259,1.259,1.259,1.259,1.259,1.259,1.259,1.259,1.2652,1.2713,1.2621,1.259,1.066,1.0863,1.054,0.9144,0.9299,0.9319,0.7548,0.8312,0.9402,0.9493,1.0221,1.0869,1.086,1.0489,1.0035,0.9565,0.9493,0.0,0.0,0.8616,0.8917,0.8958,1.0105,1.1262,1.2245,1.123,1.1086,1.2489,1.1548,1.1899,1.4123,1.4682,1.5361,1.6272,1.6629,1.6818,1.6818,1.6937,1.6983,1.6983,1.6983,1.6909,1.679,1.6655,1.6534,1.6413,1.6413,1.6748,1.7242,1.6798,1.6958,1.7435,1.6988,1.6694,1.6605,1.6881,1.7256,1.7698,1.8215,1.8332,1.8269,1.807,1.7584,1.6941,1.621,1.5903,1.5657,1.5078,1.4756,1.4605,1.4605,1.4605,1.4605,1.4605,1.4605,1.4605,1.4605,1.4605,1.4605,1.4605,1.4605,1.4605,1.4605,1.4605,1.4605,1.4605,1.4037,1.3618,1.3618,1.3012,1.259,1.259,1.259,1.259,1.259,1.259,1.259,1.259,1.259,1.259,1.259,1.259,1.259,1.259,1.259,1.259,1.259,1.259,1.2744,1.2989,1.2713,1.259,0.0,0.0,1.0871,0.9857,0.9896,0.9877,0.8692,0.94,1.0149,0.9562,1.0706,1.1633,1.1014,1.051,1.0149,0.9994,0.9485,0.8787,0.0,0.7607,0.7742,0.8367,0.9619,1.0427,1.0446,1.0662,1.1145,1.1962,1.1799,1.2274,1.3647,1.4549,1.5325,1.5951,1.6391,1.6764,1.7127,1.7183,1.72,1.72,1.7078,1.6937,1.6818,1.6666,1.6524,1.6413,1.6413,1.6571,1.683,1.6757,1.6892,1.7141,1.6991,1.6853,1.6775,1.7076,1.7427,1.7812,1.8578,1.8841,1.8831,1.8764,1.8351,1.774,1.6975,1.635,1.5903,1.57,1.5524,1.5409,1.5515,1.5444,1.5275,1.4892,1.4721,1.4605,1.4605,1.4605,1.4605,1.4605,1.4605,1.4605,1.4605,1.4605,1.4605,1.4605,1.4037,1.3618,1.3618,1.3012,1.259,1.259,1.259,1.2683,1.2836,1.2867,1.2836,1.2744,1.2836,1.2867,1.2867,1.3072,1.3155,1.3064,1.292,1.292,1.3064,1.292,1.3042,1.3338,1.3246,1.3155,1.0131,1.0821,0.0,1.0584,1.0612,0.0,0.9443,1.0125,1.0777,1.0085,1.1065,1.1913,1.1478,1.0745,1.02,1.02,0.947,0.8637,0.0,0.7483,0.7524,0.8139,0.9118,0.9743,0.9757,0.9926,1.0437,1.1419,1.1247,1.1716,1.3119,1.4074,1.4985,1.5778,1.6258,1.6765,1.7295,1.7306,1.7306,1.7306,1.7172,1.7022,1.6864,1.6768,1.6666,1.6545,1.6545,1.6714,1.7013,1.6899,1.7073,1.7344,1.7171,1.6994,1.6896,1.7003,1.7341,1.7812,1.8675,1.9007,1.9108,1.9241,1.9008,1.8539,1.791,1.732,1.6828,1.6559,1.6376,1.6237,1.6044,1.5903,1.5657,1.5043,1.4756,1.4605,1.4605,1.4605,1.4605,1.4605,1.4605,1.4605,1.4605,1.4605,1.4605,1.4605,1.4037,1.3618,1.3618,1.3108,1.2744,1.2744,1.2858,1.2981,1.3155,1.3133,1.3103,1.3042,1.3103,1.3133,1.3186,1.339,1.345,1.3359,1.3246,1.3246,1.3359,1.3246,1.3338,1.367,1.367,1.367]}]]